GFSNGP_sfc_dewp_000.txt.gz
Dewpoint
30 31 32 32 33 33 32 31 30 29 29 31 32 31 36 37 37 38 37 38 38 39 39 38 39 40 38 37 36 37 37 37 35 36 37 36 36 37 37 36 36 37 35 28
29 33 33 31 33 33 33 33 33 33 32 33 31 37 37 37 38 38 38 38 39 38 37 39 39 38 37 35 36 38 37 37 38 39 37 37 37 37 37 36 36 37 29 24
23 30 29 22 25 30 31 31 30 26 28 30 35 36 36 37 39 39 38 38 35 34 36 38 37 36 35 35 36 36 34 29 30 31 33 35 35 35 33 28 25 23 22 23
24 30 22 26 30 29 29 29 29 30 30 34 36 37 37 39 39 37 36 36 36 34 35 36 35 34 33 31 30 27 27 30 31 30 27 26 24 23 23 21 20 20 22 25
29 28 27 30 29 28 28 26 29 31 35 36 35 36 35 39 38 38 38 37 37 37 35 34 33 27 23 23 24 27 31 32 31 25 24 24 22 20 20 19 20 22 24 23
28 25 23 26 27 30 35 27 35 37 35 35 35 33 35 39 39 38 35 36 36 35 34 33 34 27 25 27 25 24 27 26 23 24 24 22 19 19 19 20 22 22 20 21
30 27 26 30 31 33 27 28 34 34 36 36 35 38 37 37 35 32 35 36 35 34 32 34 34 26 22 21 22 25 25 24 24 24 23 19 19 19 19 20 21 17 15 17
25 25 21 31 33 30 33 37 36 37 37 40 38 37 36 35 33 31 34 34 33 32 32 34 32 22 23 24 23 24 24 23 23 23 21 18 19 19 18 19 18 16 12 15
31 28 31 32 36 35 37 38 37 37 39 38 35 34 34 33 32 30 34 33 32 31 32 33 29 28 32 32 25 24 23 22 22 23 21 19 19 19 19 18 17 16 20 18
32 34 37 39 37 39 41 41 39 39 38 37 34 35 33 33 30 30 32 31 30 32 33 32 32 32 26 23 23 23 23 22 23 22 22 19 19 19 19 17 16 19 17 17
35 38 38 38 40 41 40 40 39 38 37 34 33 33 33 31 31 33 32 30 31 33 32 31 30 29 25 22 23 22 23 23 23 23 21 21 20 19 21 20 17 18 16 16
34 37 41 40 41 42 39 37 37 35 34 34 33 30 32 31 32 32 32 31 31 33 31 30 28 23 23 23 23 23 23 24 21 20 19 21 18 18 21 20 21 19 19 19
40 41 41 41 38 36 34 33 32 32 32 29 30 32 31 31 31 32 32 32 31 29 28 24 24 24 23 23 22 21 19 21 19 19 17 16 15 15 10 14 19 18 19 18
39 40 37 36 34 33 31 31 31 30 30 31 31 30 30 31 31 30 30 27 25 25 24 24 24 23 25 26 24 17 15 16 16 15 12 12 5 8 4 4 5 9 15 16
37 37 36 35 33 31 28 28 26 26 28 30 29 29 30 29 29 29 27 25 26 26 25 25 24 25 27 27 26 24 24 19 10 8 8 7 5 5 3 4 3 8 12 12
35 34 32 26 26 26 26 25 25 26 28 29 29 29 29 29 28 28 26 25 24 24 25 22 24 25 27 28 28 25 22 19 13 13 10 10 8 6 7 5 8 11 8 8
30 27 26 27 27 27 26 25 26 27 29 29 28 25 30 28 25 26 24 20 17 19 22 25 21 25 26 27 26 20 17 17 16 14 12 10 6 5 4 5 8 10 5 6
28 27 27 28 28 28 28 26 27 27 27 28 23 24 29 28 25 26 18 18 17 24 25 21 21 24 22 26 26 24 18 14 14 10 10 5 5 5 1 4 7 7 6 8
27 27 28 29 30 29 29 28 27 26 23 30 29 28 28 28 25 21 23 25 23 24 23 22 26 24 24 25 26 23 21 13 10 12 7 3 1 1 -2 -4 3 2 3 7
25 25 26 27 27 25 26 26 25 25 26 28 31 30 28 29 27 21 22 24 24 25 26 25 24 24 24 25 24 22 15 12 16 9 -1 5 -4 -5 -7 -1 3 -0 -1 1
25 26 25 24 25 24 22 23 22 23 25 23 31 30 29 30 23 21 22 24 25 24 25 25 25 25 26 25 25 23 21 22 13 4 1 1 -2 -5 -7 -8 -6 -4 -2 1
27 25 23 23 23 24 25 24 23 22 23 28 30 30 30 23 23 22 23 26 27 26 25 25 25 25 25 25 24 24 24 23 18 8 2 2 2 -1 -4 -8 -6 -2 -4 0
27 26 26 23 23 26 26 24 23 22 23 26 29 30 29 25 22 20 22 24 24 24 25 20 24 26 26 21 23 24 24 23 21 18 11 10 7 6 -2 -4 -6 -4 -6 -3
26 26 26 25 23 21 23 27 25 25 23 23 24 30 28 24 23 22 22 23 22 20 16 19 25 24 24 22 22 23 24 24 23 12 5 3 -1 2 -1 -6 -4 -7 -9 -7
25 25 24 22 24 26 27 27 27 27 25 25 28 27 25 26 24 19 15 16 18 19 17 21 24 19 21 23 24 21 19 22 23 17 7 5 8 5 4 -2 0 2 -6 -6
26 27 27 26 27 27 27 27 29 30 30 30 27 22 21 24 24 23 25 23 16 18 22 21 24 22 16 15 22 24 19 17 16 17 13 12 10 12 11 11 7 5 3 4
24 22 24 25 26 26 26 29 30 31 32 32 30 19 21 28 27 26 25 23 21 22 16 21 21 23 23 12 12 11 14 16 14 15 16 14 12 12 14 13 12 9 4 2

GFSNGP_sfc_dewp_003.txt.gz
Dewpoint
31 31 32 31 31 32 31 32 31 30 29 31 33 34 33 37 37 37 37 39 40 38 36 36 38 39 38 36 37 39 38 37 37 39 38 37 34 32 33 34 35 35 36 33
31 32 31 31 31 32 32 33 33 33 32 34 34 34 37 36 36 37 39 39 37 37 36 36 38 37 35 35 37 37 34 30 30 30 30 31 32 33 32 29 25 25 24 23
27 30 30 27 26 31 31 32 30 28 28 32 32 35 35 35 37 39 37 37 35 34 35 36 38 35 33 34 35 32 28 28 31 32 28 25 24 23 23 23 23 22 22 23
31 31 24 27 30 30 30 30 30 29 31 33 35 36 36 38 38 38 38 35 33 32 35 38 36 33 32 31 29 27 28 32 32 28 23 23 23 22 21 21 21 20 23 24
29 28 29 29 29 29 29 26 30 33 35 36 37 37 37 39 39 37 37 36 33 35 37 37 34 33 25 24 24 25 28 30 26 23 23 23 21 20 21 20 20 21 19 20
31 28 25 30 27 31 33 28 34 35 36 37 37 35 37 37 38 37 36 34 33 36 37 34 33 32 24 25 27 27 28 26 23 23 22 21 20 19 20 19 19 19 19 19
30 29 30 31 31 32 30 33 36 36 37 37 36 38 38 38 37 35 34 32 34 36 34 32 34 33 27 23 25 30 27 25 23 22 22 21 19 19 18 18 22 25 25 24
28 27 25 30 32 35 37 39 38 38 39 39 39 37 36 36 34 32 32 31 32 34 32 32 34 28 24 28 32 34 26 24 22 21 21 19 18 19 18 20 23 24 24 23
31 31 33 32 36 39 39 39 39 39 38 38 36 32 32 33 32 33 31 30 32 32 31 33 34 27 31 32 33 28 25 24 22 22 21 20 18 19 18 19 22 21 19 20
34 37 34 37 40 42 41 40 39 39 38 36 33 32 33 32 32 30 29 30 31 32 31 33 32 30 31 31 26 24 24 23 22 22 22 22 20 20 18 22 21 19 19 18
35 37 38 39 41 42 40 41 39 38 36 35 34 32 31 31 30 29 30 31 32 32 32 34 32 31 27 24 24 22 23 22 23 24 23 21 21 19 21 22 21 20 18 18
35 38 40 40 43 42 39 37 35 32 31 31 31 30 31 29 29 31 31 31 31 31 33 33 30 25 25 24 23 23 23 23 25 24 23 21 19 19 20 20 20 19 19 20
39 40 40 39 37 36 32 30 30 30 28 27 28 31 30 29 31 32 30 30 28 26 26 26 25 23 24 27 27 26 25 26 25 22 23 22 21 21 20 19 19 17 18 17
40 39 35 34 32 31 31 28 29 28 26 27 28 29 29 30 31 30 29 29 28 24 26 25 24 25 27 28 28 26 26 22 25 23 23 22 22 21 20 19 19 18 17 16
37 37 36 32 29 28 28 28 27 25 24 25 27 29 29 30 30 30 30 29 27 26 25 25 25 26 27 28 27 27 27 25 25 25 24 22 22 21 20 20 19 17 16 14
33 28 29 30 29 29 29 28 27 25 23 25 28 29 29 30 31 31 30 29 25 26 26 28 26 26 27 26 26 26 26 23 20 24 24 23 22 20 19 19 18 17 15 14
30 28 29 28 28 29 29 29 28 26 27 28 28 28 28 29 29 29 29 27 25 24 27 27 27 25 25 25 25 24 25 24 21 23 23 22 21 20 19 19 19 17 16 16
29 29 29 29 28 29 30 30 30 29 28 28 27 28 29 28 29 28 30 26 25 26 28 28 26 25 25 27 26 26 25 24 25 23 23 23 21 20 19 18 18 17 16 15
25 25 26 26 28 29 28 28 28 28 27 27 25 26 30 31 30 29 28 25 25 26 27 27 26 26 25 27 26 26 25 26 25 23 22 20 22 20 19 19 19 18 16 15
26 26 28 27 27 26 27 27 27 27 28 27 25 26 29 31 30 31 27 26 28 28 28 28 27 26 27 27 26 25 26 26 25 25 23 22 22 21 20 16 17 19 18 16
26 27 27 26 26 26 24 25 25 26 28 26 23 25 29 31 32 30 26 27 29 28 28 28 27 26 26 26 25 27 26 26 26 25 24 23 21 22 21 19 19 19 19 18
27 28 26 25 25 26 27 27 28 26 25 25 25 28 30 31 32 28 26 28 29 26 28 28 27 27 27 27 25 27 27 27 27 26 24 22 22 21 22 20 19 19 19 18
27 27 27 26 25 27 27 27 26 25 25 27 28 29 29 31 32 29 28 29 28 27 28 29 25 27 28 29 28 27 27 27 26 26 25 24 23 22 21 21 20 19 19 18
27 28 27 27 25 25 26 28 28 28 28 28 29 29 30 31 32 29 30 26 25 25 29 28 27 25 23 30 28 28 28 27 27 27 25 18 23 21 21 20 19 20 17 15
27 27 26 25 27 28 28 28 28 29 29 29 32 32 31 31 30 31 30 29 24 23 28 23 24 24 28 29 28 27 26 26 27 27 26 25 23 23 23 22 19 19 19 17
28 28 28 27 27 27 29 29 29 29 29 29 30 34 33 29 30 29 28 27 26 24 29 29 29 28 28 27 27 26 26 26 25 25 24 25 25 23 23 22 22 20 19 19
27 24 26 27 28 28 28 29 30 29 30 30 31 33 31 30 32 31 29 28 28 28 28 28 28 28 29 28 26 25 25 25 23 23 24 23 23 23 23 23 23 23 21 18

GFSNGP_sfc_dewp_006.txt.gz
Dewpoint
28 28 27 28 27 26 26 29 29 29 25 27 29 30 33 35 36 36 36 39 39 38 37 36 35 36 37 37 35 37 35 33 33 33 32 31 31 29 28 27 23 23 22 23
30 29 28 29 28 27 28 29 29 29 29 30 31 34 35 35 35 35 38 37 37 35 34 31 31 36 36 32 33 36 33 31 30 31 29 28 27 26 23 22 22 22 22 22
33 31 31 32 30 27 27 30 29 28 29 32 33 35 36 36 37 38 38 37 36 34 29 31 35 38 32 30 33 34 31 29 30 31 26 25 22 19 20 22 23 23 23 23
35 34 29 28 29 28 29 29 28 28 31 34 35 36 35 38 39 38 37 34 32 30 29 32 36 33 32 30 31 31 30 29 30 27 23 21 20 20 22 22 22 22 23 23
32 28 28 27 28 29 28 28 31 33 35 37 36 35 35 38 39 38 37 35 32 31 31 33 35 32 31 30 29 28 28 28 28 25 22 19 19 21 22 22 22 22 22 22
33 30 28 29 29 31 32 28 36 39 40 40 37 37 37 39 39 36 33 31 29 27 30 34 35 32 32 31 29 27 28 30 26 25 22 19 21 22 23 22 21 22 24 24
33 32 31 31 32 33 32 35 40 40 40 40 38 39 40 38 34 29 28 28 27 25 26 31 33 33 33 29 25 24 27 28 26 24 20 20 22 22 22 22 24 28 29 27
33 30 29 32 32 35 38 40 40 40 40 39 39 38 34 29 26 24 25 25 23 24 25 28 30 32 31 24 23 26 28 27 26 22 20 19 22 22 22 23 24 27 29 28
32 34 35 35 37 38 40 40 41 40 38 38 35 30 26 24 24 24 24 23 22 24 26 26 27 31 28 24 25 29 27 26 25 22 21 22 22 23 22 21 24 24 20 21
36 35 35 38 39 41 42 40 39 39 35 32 30 26 25 23 23 24 22 21 24 24 24 26 28 32 29 29 29 28 26 24 24 23 22 23 23 22 19 23 23 20 19 18
37 38 38 37 41 42 41 40 39 34 31 28 24 23 22 21 21 20 21 24 24 24 24 23 25 32 30 29 27 23 22 22 23 24 25 24 22 20 21 23 22 20 19 19
37 39 40 40 40 42 41 38 31 28 25 23 23 22 21 20 20 21 23 25 24 25 26 25 25 26 28 26 25 25 23 23 26 27 27 25 20 20 22 21 19 18 18 20
40 39 39 40 39 37 32 29 27 25 24 24 24 20 21 22 22 25 25 25 26 28 28 27 28 29 27 30 30 30 28 28 28 27 26 24 24 23 22 21 20 18 17 17
40 38 37 36 35 32 29 26 28 26 26 24 21 23 24 24 24 24 26 29 30 29 29 27 26 29 29 28 28 31 29 28 28 27 26 26 25 24 23 22 21 21 18 15
37 38 37 33 30 27 27 26 26 22 21 24 24 25 27 26 26 28 30 31 31 30 27 25 28 28 26 27 25 25 26 26 29 30 28 26 26 24 23 22 20 19 17 14
33 31 29 27 26 24 23 20 20 23 24 23 24 26 27 27 28 29 31 31 31 29 28 31 31 28 27 26 24 23 23 25 26 27 26 25 24 23 21 21 20 19 17 16
31 29 27 24 19 19 21 23 24 24 27 27 29 32 30 30 31 31 31 31 33 31 31 31 31 27 25 24 25 23 24 24 25 25 24 24 24 22 22 21 20 19 18 19
26 23 21 21 22 24 26 27 29 29 29 30 32 31 30 30 31 33 33 33 32 31 32 31 31 25 26 24 25 24 26 27 27 26 25 25 24 23 22 22 20 19 19 18
20 20 23 24 27 28 28 28 30 31 32 32 32 31 31 31 32 34 33 32 31 30 31 32 28 27 24 27 26 25 27 28 26 24 26 24 25 23 23 23 22 21 20 18
21 23 27 28 30 30 31 32 33 32 31 32 32 31 31 31 32 33 33 32 33 32 33 30 29 28 29 27 26 24 27 29 26 27 27 25 25 24 24 22 22 21 22 21
26 28 33 33 33 33 32 32 31 30 31 31 30 30 31 32 33 33 32 31 34 33 32 29 29 26 25 25 24 29 29 29 29 28 27 25 24 24 24 24 23 22 22 22
26 31 34 33 32 32 33 34 33 32 31 31 30 30 31 32 33 33 34 33 34 30 31 31 29 28 26 28 26 31 28 29 29 29 28 27 25 24 24 24 23 23 22 22
27 28 30 32 32 31 32 33 32 32 31 31 31 31 31 32 32 32 31 35 33 33 33 34 31 29 28 32 32 31 31 29 29 29 28 27 25 25 24 24 24 23 23 22
28 30 30 33 34 31 31 30 32 34 33 33 32 32 32 33 34 35 36 33 31 31 33 34 31 29 28 32 31 31 31 30 30 30 29 26 27 26 25 24 24 24 23 22
33 31 31 32 31 30 28 28 30 30 30 32 32 33 35 34 33 34 34 33 31 32 34 31 28 29 31 32 31 29 28 28 29 29 29 29 28 27 26 25 25 24 24 23
29 29 30 30 31 29 29 29 28 30 31 32 31 32 34 34 34 32 33 32 34 32 33 33 32 32 32 32 31 29 28 27 27 27 26 26 27 27 26 26 25 25 25 24
30 30 30 31 31 31 31 30 31 31 32 32 31 33 33 33 33 33 32 33 32 32 33 33 33 32 32 31 29 29 29 28 26 26 25 25 25 25 25 26 26 26 26 25

GFSNGP_sfc_dewp_009.txt.gz
Dewpoint
27 23 22 22 23 22 21 23 27 28 25 26 28 30 32 33 34 34 34 37 37 37 37 35 33 31 32 35 35 33 33 31 32 31 31 30 29 27 26 25 22 21 22 22
30 25 23 25 23 22 22 25 25 25 26 28 30 31 33 35 36 35 36 38 38 34 32 30 28 30 32 34 32 32 32 31 30 30 31 30 27 25 22 22 21 22 22 22
32 32 32 34 30 23 23 25 28 28 28 29 31 34 35 36 36 37 38 38 36 33 30 30 28 29 32 31 31 30 30 29 28 30 31 27 24 19 19 21 23 22 22 21
35 35 30 29 27 27 26 27 26 26 28 32 35 36 36 38 38 37 37 36 32 31 29 27 26 27 32 31 29 29 28 27 28 30 29 25 22 19 20 21 22 21 22 23
34 29 28 27 28 28 29 28 29 32 35 37 37 36 35 39 38 37 36 33 30 27 24 23 23 25 28 29 29 28 28 26 26 29 28 24 20 20 21 21 22 21 22 24
36 31 29 31 30 31 32 30 37 38 38 39 37 35 33 37 37 35 32 26 25 24 24 22 21 23 24 24 25 29 27 23 26 25 26 23 21 21 22 21 20 23 25 25
33 33 32 30 31 34 30 35 40 40 40 39 36 36 38 37 32 27 23 23 23 22 20 20 22 23 22 21 23 26 26 25 27 28 25 22 21 21 20 21 25 29 31 28
35 32 29 32 32 35 37 39 41 40 41 39 37 35 32 28 24 22 21 20 19 18 19 21 19 20 19 18 22 26 26 28 29 28 23 19 21 21 21 22 25 28 31 30
34 33 33 36 37 40 39 41 41 41 40 40 32 29 27 24 22 21 18 15 15 16 19 19 19 19 18 27 31 32 33 32 32 27 23 20 20 20 20 21 24 26 21 24
37 34 33 37 39 41 42 41 41 40 39 32 29 26 23 22 21 17 14 14 14 18 18 20 21 21 23 30 32 30 30 29 26 23 22 21 19 19 19 23 24 21 20 19
37 35 35 36 41 41 40 41 40 36 31 30 25 23 23 20 17 16 16 17 19 20 20 21 23 24 25 29 27 28 28 24 24 24 23 22 21 21 22 24 23 20 19 19
38 38 40 40 41 41 39 38 33 30 28 25 24 22 19 18 19 18 19 20 19 20 22 24 25 26 28 28 29 28 26 25 26 27 26 24 21 21 23 23 20 19 17 20
38 41 41 42 40 39 35 31 30 27 26 23 21 19 19 20 21 23 21 20 22 25 27 28 28 25 27 30 30 30 28 27 26 26 25 24 24 24 23 24 23 20 18 18
41 41 39 39 37 33 31 28 29 25 21 19 19 20 20 19 21 21 22 24 26 28 29 28 27 27 30 28 28 29 28 28 28 27 27 27 26 26 25 24 24 23 24 17
39 40 41 40 32 28 26 23 20 17 18 19 19 20 21 22 23 25 26 27 29 31 30 27 27 28 27 28 26 24 24 25 29 29 29 27 28 27 26 24 23 21 21 19
38 36 32 29 25 21 18 18 18 19 19 19 23 26 26 27 27 28 30 30 31 30 31 31 31 31 29 27 26 23 22 27 27 27 27 27 26 25 24 23 22 21 21 19
34 32 28 25 19 18 19 20 21 21 26 25 27 31 30 31 31 30 31 33 35 33 33 31 31 30 28 27 25 23 23 25 26 25 26 25 25 25 24 24 23 21 23 22
30 26 19 18 19 21 24 27 27 27 28 29 34 33 32 32 32 32 32 33 34 33 34 31 32 29 27 26 25 24 25 27 27 27 26 27 26 24 25 24 23 22 22 21
20 18 19 19 23 27 29 28 27 31 34 35 34 33 33 33 32 32 33 33 33 32 32 34 30 28 25 26 25 25 27 28 27 27 27 26 27 26 26 26 25 25 23 21
18 19 22 23 28 31 32 32 35 32 32 33 34 32 32 32 33 33 34 33 33 33 36 32 30 29 28 25 27 24 28 29 27 29 30 27 27 27 27 26 25 25 25 24
23 25 29 35 35 36 35 35 34 32 33 34 32 32 31 32 31 32 32 31 32 35 36 32 31 29 26 26 26 32 31 30 30 29 29 29 27 27 27 27 28 27 26 25
25 29 36 36 35 33 35 36 34 34 34 33 33 32 30 31 32 33 34 34 35 33 35 33 32 30 27 27 27 33 29 29 29 30 30 30 29 27 26 27 27 27 26 26
25 25 29 35 34 32 34 34 34 33 33 33 33 32 33 32 32 31 31 34 36 35 36 35 33 29 28 32 33 32 32 30 29 30 30 30 29 27 27 26 26 26 25 25
27 27 29 33 36 35 33 31 32 33 34 34 34 34 34 32 33 34 36 35 33 33 34 35 33 29 29 32 32 32 32 32 32 32 31 30 32 29 27 27 26 26 26 25
32 31 31 34 33 31 28 28 30 32 32 31 33 34 35 33 33 33 34 34 33 32 33 32 32 30 32 31 32 32 32 31 30 31 30 31 31 31 30 27 27 26 26 26
28 29 28 29 30 30 30 31 32 33 32 33 34 35 36 36 35 34 34 33 34 33 33 33 32 32 32 32 32 32 31 30 29 28 28 27 27 28 28 27 27 27 27 27
29 30 30 32 31 31 32 32 34 33 32 33 33 35 34 35 34 33 33 33 33 33 33 33 33 32 32 32 33 32 32 31 29 27 27 26 26 26 25 26 26 27 27 27

GFSNGP_sfc_dewp_012.txt.gz
Dewpoint
27 23 23 22 21 21 21 23 26 27 22 24 29 30 34 35 35 35 36 36 37 38 37 34 33 33 32 33 37 37 35 33 35 34 33 33 34 33 32 30 27 27 26 26
33 24 25 25 24 23 22 21 21 24 25 28 32 35 35 36 36 37 37 37 36 36 33 31 32 31 30 31 35 38 36 35 34 34 33 34 34 33 30 28 26 26 26 26
34 32 33 35 33 23 24 24 25 29 29 33 34 35 35 36 37 37 36 35 35 32 32 30 27 26 26 28 33 37 36 34 36 36 35 34 32 28 25 26 27 27 26 26
35 35 30 28 27 27 26 25 25 25 31 35 35 36 35 38 37 35 35 35 33 30 28 27 26 25 26 23 24 26 29 33 38 35 34 31 30 28 26 26 26 26 27 26
34 29 28 28 28 29 30 29 29 33 36 37 36 35 35 37 35 35 34 33 27 24 25 25 23 23 23 22 22 23 22 34 35 34 30 31 28 26 26 26 26 26 26 27
35 30 26 33 30 32 32 30 38 38 38 38 35 35 34 35 34 31 26 23 22 22 21 20 22 21 21 20 20 21 31 32 34 34 32 31 30 26 26 25 25 28 28 28
34 31 33 30 31 33 29 35 40 40 39 38 37 38 35 34 29 24 22 21 22 19 18 20 20 20 20 19 20 27 32 33 35 36 34 33 28 25 25 25 27 29 29 29
34 33 29 32 31 34 39 42 41 39 40 41 41 38 30 27 24 21 19 17 15 16 18 20 19 20 20 20 24 30 33 32 32 32 31 26 26 26 25 24 27 27 25 26
35 35 38 38 37 40 43 42 43 41 41 38 39 30 27 24 23 21 16 14 15 15 19 20 20 20 22 24 27 30 29 30 30 30 27 25 24 23 23 24 26 25 23 22
39 35 33 36 39 42 42 41 41 39 37 38 30 28 25 24 22 19 15 15 17 19 18 21 22 24 26 27 29 28 28 28 28 26 25 24 23 23 23 26 26 24 22 20
37 35 36 38 41 41 41 42 39 38 32 29 27 24 23 21 20 19 18 20 20 20 21 23 24 26 27 26 29 27 27 27 27 29 28 26 23 24 27 26 23 22 22 21
38 39 41 41 41 41 39 40 39 30 28 26 25 21 19 21 21 19 20 21 20 21 24 24 26 27 27 28 29 30 28 28 28 28 29 26 24 24 25 24 21 20 18 19
37 40 42 43 40 40 39 36 30 28 26 21 19 20 20 19 20 23 20 22 23 24 27 29 29 28 28 30 30 29 28 28 27 27 28 27 27 26 25 26 25 23 21 21
41 41 40 39 39 36 31 29 29 24 18 20 19 19 19 21 23 23 24 26 26 26 29 29 30 29 31 30 29 29 29 27 29 30 29 28 27 26 26 26 24 25 26 23
40 41 41 40 38 33 28 23 18 17 19 20 20 21 24 24 24 26 28 28 30 30 30 28 30 30 30 31 28 28 27 27 28 30 30 29 28 28 27 26 24 24 23 22
38 39 38 37 29 24 19 18 19 21 20 21 24 29 27 27 27 28 30 30 30 30 32 31 31 30 31 29 27 27 26 25 24 27 29 28 28 27 26 26 24 24 23 21
38 35 32 28 23 19 19 21 22 24 26 26 30 31 30 30 31 30 30 31 30 32 33 33 32 30 32 30 28 26 27 27 26 27 27 28 27 26 27 26 25 24 24 19
35 33 26 21 20 22 28 32 31 30 30 32 31 28 28 28 30 30 30 31 31 31 33 33 32 31 31 28 28 27 27 26 28 29 29 28 28 26 25 26 25 25 24 22
25 21 21 20 23 31 32 32 30 32 31 31 31 31 30 30 31 31 31 30 30 30 30 33 32 31 30 27 26 26 28 28 28 28 29 29 28 27 27 27 27 26 24 24
20 21 24 24 28 32 32 32 32 32 32 31 29 30 30 29 29 30 30 29 29 31 33 34 33 30 28 27 26 26 28 29 28 27 28 28 28 28 28 26 26 26 26 25
29 30 28 34 34 33 33 32 30 32 32 30 31 31 30 30 30 31 30 27 29 32 34 34 33 31 29 29 27 28 28 29 29 28 28 28 28 28 28 27 27 27 27 26
31 29 30 31 32 32 33 34 34 33 32 31 29 31 31 30 30 30 30 30 32 33 33 33 34 33 31 25 28 31 29 28 27 29 29 29 28 28 28 27 27 27 27 26
30 29 28 30 30 32 33 34 32 33 32 32 32 32 31 30 31 30 28 31 32 34 33 33 34 32 31 31 31 30 30 28 28 28 28 29 28 28 28 27 27 27 26 25
30 29 30 31 33 33 32 32 33 33 33 32 32 33 33 32 33 32 32 32 32 33 33 33 33 32 31 31 30 29 29 29 30 29 29 29 29 29 27 27 27 27 27 26
31 31 31 31 31 32 32 32 32 32 33 33 33 32 33 34 33 32 33 33 33 33 33 33 32 32 32 31 29 29 30 30 29 28 29 29 28 28 29 29 28 27 27 27
30 30 31 31 31 31 32 32 32 34 34 33 33 33 34 34 34 34 33 33 33 33 33 33 33 33 32 31 30 30 30 30 28 29 28 28 28 27 27 28 28 28 28 27
31 31 32 32 32 32 32 32 33 35 34 33 32 32 33 33 33 33 33 33 33 33 33 33 33 32 32 32 31 31 32 31 29 29 28 28 27 27 27 27 27 27 27 27

GFSNGP_sfc_dewp_015.txt.gz
Dewpoint
30 27 26 25 25 25 23 25 24 25 28 30 34 35 36 37 36 37 36 36 36 35 34 33 32 32 31 31 32 37 37 36 37 38 35 36 37 36 36 30 26 25 25 26
29 31 30 28 29 27 25 26 25 26 27 35 35 36 36 36 37 36 35 35 35 35 32 32 30 26 26 28 32 37 36 34 38 38 37 38 38 38 33 27 24 24 25 25
28 32 32 25 30 28 27 28 28 26 31 36 35 35 37 37 36 35 35 35 35 34 33 27 26 26 26 24 26 26 24 34 39 39 38 37 37 36 27 23 23 25 25 25
23 24 14 31 31 30 30 30 30 35 36 36 35 37 37 36 35 34 34 34 34 33 26 25 24 23 23 22 23 23 31 33 36 36 36 37 37 33 24 24 23 24 25 26
26 24 25 29 31 31 30 30 38 37 37 37 36 36 35 35 34 34 33 33 29 23 23 21 21 20 21 21 21 22 31 32 34 35 35 35 35 26 24 24 25 26 27 27
25 18 14 28 32 34 34 27 39 39 38 38 36 29 34 33 33 33 25 23 21 20 18 19 19 20 21 20 22 30 33 33 36 36 36 35 35 32 25 24 27 28 27 27
30 17 26 34 33 35 26 27 41 39 39 39 36 36 37 35 29 24 23 19 20 18 18 19 19 20 21 22 26 30 33 33 32 34 35 35 34 28 24 24 27 26 25 25
30 25 22 35 33 28 34 41 40 39 40 40 40 40 40 28 25 23 19 15 16 18 19 20 20 22 23 25 27 30 30 30 31 31 30 28 26 23 23 25 24 23 15 18
30 28 34 36 36 39 41 41 40 39 42 40 38 39 30 26 25 22 16 17 18 19 21 21 22 25 26 27 30 30 29 28 29 29 27 25 23 22 23 24 21 22 22 16
33 36 36 35 42 42 42 41 41 41 42 39 37 30 27 24 21 20 18 18 20 20 21 23 25 27 28 28 29 29 28 28 27 27 28 25 23 24 24 21 19 22 20 18
33 36 37 41 41 41 41 41 40 39 39 31 28 26 23 22 21 21 19 20 21 22 24 25 28 28 27 27 29 29 28 28 27 27 26 26 23 23 25 22 21 19 18 17
31 38 38 41 41 41 42 41 39 37 29 28 23 21 21 21 21 21 22 23 24 25 26 28 29 29 30 29 29 28 27 27 26 26 25 26 25 25 26 25 24 21 20 15
37 43 43 42 40 41 40 40 36 29 28 21 22 21 21 21 23 26 25 25 27 27 28 29 29 30 30 29 28 27 27 27 26 26 25 24 23 23 19 24 28 27 23 22
42 41 39 40 39 38 36 32 32 26 23 23 21 22 25 25 26 26 26 28 28 30 30 29 29 30 32 30 29 26 26 25 24 23 22 22 25 25 26 24 16 22 24 25
41 41 41 40 39 36 32 24 21 22 23 23 24 27 26 27 27 27 28 29 30 29 29 29 31 29 30 30 30 27 27 25 22 19 19 26 26 26 25 25 24 20 19 21
40 40 40 39 37 27 22 23 23 23 25 24 26 27 29 29 28 29 30 30 28 28 29 26 30 32 31 30 30 27 26 23 21 20 21 26 26 25 25 25 24 22 18 14
39 38 39 31 24 23 23 25 26 26 27 27 26 28 29 29 28 28 28 28 26 28 29 29 31 33 31 31 30 28 24 23 21 22 23 26 26 25 25 24 24 22 17 12
34 29 26 24 24 27 28 28 26 27 26 28 25 21 20 20 26 27 26 29 28 28 29 29 31 33 31 31 29 25 21 20 20 20 26 26 26 26 24 23 24 23 18 15
24 25 26 28 29 27 27 27 28 28 26 24 23 25 23 24 27 28 29 27 27 27 27 30 31 32 32 29 25 21 18 16 22 26 26 24 25 25 25 23 23 23 22 14
26 28 27 26 27 26 26 28 26 29 30 27 19 21 24 21 27 29 28 27 28 28 29 30 33 33 31 29 24 23 17 15 20 25 17 17 24 26 25 25 23 17 19 21
25 25 25 28 28 27 27 27 24 28 29 24 25 26 28 25 24 27 28 28 27 25 29 33 32 32 32 29 23 21 18 16 16 17 17 19 19 23 26 25 25 15 14 17
27 26 25 25 27 28 28 29 30 26 29 31 25 24 22 25 25 25 30 28 29 32 30 32 31 32 32 30 30 27 22 21 21 25 17 20 19 22 23 25 25 24 18 16
28 28 27 26 24 28 28 29 28 29 28 27 27 30 27 27 27 27 28 27 30 31 30 32 32 32 32 32 30 28 27 21 19 20 25 26 26 25 25 25 25 25 25 24
30 28 27 28 26 27 28 29 30 30 27 28 31 30 25 26 28 28 31 32 30 31 31 32 33 32 32 32 30 29 27 24 27 21 21 26 27 27 24 23 26 26 25 25
27 27 28 26 28 29 30 31 30 29 28 29 29 28 26 25 27 30 32 32 32 31 32 32 32 32 32 32 31 29 28 27 27 27 25 25 28 27 25 23 26 27 27 26
28 29 29 29 29 30 29 29 29 29 26 23 23 21 21 22 29 28 30 32 32 32 32 32 33 33 32 32 31 30 29 29 29 29 29 27 26 26 26 26 27 26 27 27
29 27 28 29 29 29 28 27 25 27 26 23 27 23 24 31 26 27 30 32 31 32 32 32 32 32 32 32 32 31 30 30 30 30 29 27 26 25 26 26 26 26 25 25

GFSNGP_sfc_dewp_018.txt.gz
Dewpoint
28 28 27 26 25 25 24 26 25 25 28 31 35 35 36 37 36 35 35 35 35 35 34 32 32 29 27 28 31 33 32 32 36 37 36 36 37 37 38 37 36 29 26 26
28 31 33 26 30 29 27 26 25 26 32 35 35 36 37 36 35 35 35 35 35 34 33 33 27 25 25 25 25 27 27 36 37 37 37 37 37 37 37 37 28 25 26 27
22 30 30 23 28 28 27 28 27 25 32 35 35 36 36 35 35 34 34 34 33 33 32 25 23 23 21 22 24 25 33 34 36 36 37 37 37 38 36 34 28 26 26 26
19 19 9 28 30 30 29 33 35 35 35 35 36 37 35 35 34 34 34 33 32 30 23 22 21 20 21 21 22 27 32 33 34 35 35 35 36 35 34 28 27 25 27 26
16 22 19 28 30 29 26 28 37 36 37 36 37 35 34 34 34 33 32 28 25 21 20 20 19 19 20 21 23 32 32 32 34 35 35 35 34 34 34 30 25 27 26 25
27 12 7 21 32 33 32 27 38 38 37 37 35 29 33 35 33 30 24 21 18 17 19 18 19 20 21 22 28 30 32 32 33 35 35 34 33 32 31 25 27 27 25 25
16 15 24 28 34 34 25 24 40 39 38 37 34 34 36 38 28 24 21 17 19 19 19 19 20 23 23 25 27 29 30 31 31 31 31 32 32 29 24 27 26 24 22 23
25 16 19 33 33 28 31 39 40 39 39 38 38 39 40 32 25 21 16 17 18 20 20 21 22 25 25 26 28 30 29 29 29 28 28 26 23 24 25 24 23 22 11 16
29 28 31 35 34 35 40 40 39 39 40 40 38 38 35 26 22 19 18 18 20 19 22 23 24 26 26 26 29 29 28 28 27 27 27 25 22 23 23 23 20 21 22 14
32 33 34 36 40 41 41 41 41 41 41 40 39 34 25 22 21 20 19 19 20 21 23 24 26 28 28 28 28 28 28 28 28 27 27 26 23 24 23 19 18 22 19 17
32 34 39 41 41 41 41 41 40 41 39 38 29 23 22 21 21 20 20 22 23 24 26 26 29 29 29 30 29 28 28 27 26 26 26 25 23 23 24 22 21 19 18 17
30 34 34 38 41 41 40 40 40 39 30 24 22 21 20 21 22 22 24 25 25 27 27 28 29 29 30 30 29 28 27 26 26 25 23 25 24 23 26 26 25 25 22 15
37 40 41 41 41 41 42 41 40 31 24 21 21 21 22 23 24 27 25 26 27 28 30 30 28 29 30 30 31 31 28 27 26 26 25 23 21 22 16 23 26 26 26 24
42 41 39 39 39 41 41 35 29 23 23 23 22 25 25 25 26 26 26 27 28 29 30 28 28 29 30 31 30 28 28 26 24 24 22 23 18 25 19 17 13 15 22 26
41 41 40 40 37 35 30 23 23 22 23 24 26 26 26 26 27 27 28 28 29 29 29 29 28 29 30 31 30 29 29 24 20 17 20 20 19 22 22 19 21 18 15 19
40 40 40 38 37 27 24 25 24 24 24 24 25 25 27 29 28 28 29 29 28 28 28 28 28 28 31 32 30 30 28 25 19 18 18 22 20 19 24 21 19 20 12 12
39 39 39 30 26 27 26 26 26 25 26 25 25 26 28 27 27 28 28 27 27 28 28 28 27 30 31 33 31 30 28 25 24 25 24 24 22 25 24 21 22 15 19 15
36 37 31 29 29 29 28 27 26 26 26 26 25 18 17 17 24 25 25 25 28 28 28 27 29 30 32 33 32 30 25 24 24 23 20 16 24 24 24 21 21 14 15 13
32 31 29 27 27 25 23 23 25 27 24 23 20 20 19 20 25 26 25 22 27 26 26 28 29 30 32 32 32 28 24 17 17 18 20 17 13 23 24 22 18 23 16 14
26 28 28 26 25 24 24 25 25 28 28 25 17 23 25 23 23 23 23 24 26 26 27 27 30 30 31 31 29 28 20 16 16 17 13 11 8 16 25 21 23 17 10 10
26 26 25 27 27 27 26 25 22 26 28 21 25 28 25 25 23 21 20 25 27 25 26 31 29 30 33 32 31 27 20 15 14 16 16 16 14 14 21 25 23 20 13 6
27 26 25 24 25 26 27 27 28 25 24 30 31 29 26 28 23 19 21 25 29 26 30 30 30 31 32 32 31 28 27 26 23 20 19 16 16 18 17 20 23 23 22 12
27 28 27 25 22 26 27 27 25 24 25 26 25 25 26 28 23 23 26 27 27 29 31 30 30 31 32 32 32 31 30 27 26 26 24 23 22 18 20 21 23 23 20 23
29 27 27 27 25 25 26 28 28 29 26 27 26 25 29 26 20 24 26 26 24 27 29 31 31 31 32 32 31 31 31 29 29 28 26 25 24 24 24 24 25 26 24 23
27 27 27 25 27 28 28 29 29 28 28 28 28 29 28 29 26 27 24 24 27 30 31 31 31 31 32 32 32 31 30 29 28 28 27 26 26 27 27 26 24 23 23 25
28 28 28 29 29 29 29 28 27 26 27 24 24 27 30 30 28 29 24 29 30 30 29 29 29 30 31 32 31 31 31 30 29 28 28 28 28 28 28 25 24 25 25 25
28 25 28 28 29 29 28 27 30 31 26 26 30 28 27 26 29 28 27 28 27 29 28 28 29 29 30 31 31 31 31 32 31 30 30 29 29 28 27 25 23 23 24 25

GFSNGP_sfc_dewp_021.txt.gz
Dewpoint
28 29 26 24 23 26 26 26 23 24 26 27 34 34 35 36 36 35 35 34 34 34 34 33 30 25 24 25 26 28 28 33 34 35 36 36 36 36 36 37 37 36 31 27
28 30 31 25 24 26 25 25 28 25 30 35 35 36 36 36 35 34 34 34 33 33 32 29 24 21 22 22 24 26 31 34 36 36 37 36 36 36 37 36 32 32 27 27
17 28 27 16 26 28 27 27 26 26 29 35 35 36 36 36 35 34 33 32 32 32 30 24 21 21 19 21 23 24 32 33 35 34 34 34 36 36 35 34 34 26 26 26
18 18 6 20 30 29 27 30 34 34 35 35 36 37 36 35 34 33 32 32 31 26 22 22 20 19 21 21 22 25 31 32 33 33 34 34 34 34 31 30 28 25 26 25
16 18 17 22 29 29 28 26 35 34 35 35 36 34 34 35 34 33 32 29 24 20 20 20 18 19 20 21 23 31 31 32 32 33 34 34 33 32 31 31 25 26 25 25
24 9 4 17 31 33 30 25 37 36 36 36 35 29 33 34 34 33 25 20 17 18 19 18 19 20 21 23 27 28 30 31 31 31 31 32 32 32 31 25 27 25 24 24
14 14 21 25 32 32 23 21 38 38 37 36 35 34 34 36 34 25 18 17 19 19 19 20 21 23 24 25 26 28 29 29 30 29 28 28 28 27 26 26 25 23 22 23
25 17 17 30 32 28 31 34 39 39 38 38 36 37 39 32 24 18 16 17 19 20 21 22 23 25 25 25 27 29 29 28 28 27 27 24 23 25 25 23 23 22 9 16
27 27 30 33 33 34 37 38 39 39 39 39 39 38 38 26 21 19 18 18 20 20 22 24 25 26 26 27 28 28 29 28 27 27 26 25 22 23 23 22 20 20 21 15
30 30 32 33 35 38 40 39 39 40 40 39 37 39 28 22 21 19 18 19 21 23 24 25 27 28 29 29 29 28 28 28 27 26 27 26 23 24 22 19 17 21 19 18
31 33 36 39 39 40 41 41 41 41 40 39 39 27 23 21 21 20 21 23 24 25 26 27 28 29 29 29 30 28 28 28 27 26 26 23 23 23 24 23 21 20 18 17
29 33 35 34 40 41 40 39 40 39 34 29 24 22 21 21 22 23 23 24 25 27 27 28 29 28 28 30 30 29 29 29 29 27 25 24 24 24 25 26 26 27 26 15
33 36 37 39 40 41 40 41 40 29 23 22 21 21 22 23 24 27 25 25 26 27 28 29 28 28 29 29 29 29 30 30 30 28 26 24 22 23 21 21 26 26 26 26
40 40 38 39 39 42 41 34 28 23 23 24 24 24 24 24 26 25 25 27 28 28 29 28 28 28 29 30 30 30 29 29 29 27 27 25 21 20 17 17 13 15 21 25
41 40 39 40 41 36 25 23 24 25 25 25 25 25 25 25 25 27 28 28 29 28 28 27 26 26 27 30 31 31 30 29 27 25 19 20 20 16 18 16 15 16 13 17
40 40 39 37 27 25 27 29 27 25 25 25 25 25 26 28 28 28 28 28 27 26 27 27 27 27 28 30 32 32 31 30 25 24 21 23 24 21 21 22 15 16 11 11
38 37 33 29 30 33 34 32 27 27 26 25 24 26 27 26 25 27 28 26 21 22 25 28 25 27 29 31 32 32 31 30 26 25 25 25 22 23 23 20 22 16 13 9
36 34 34 34 34 32 28 29 27 26 26 26 25 19 19 19 24 24 23 22 21 23 26 26 27 28 30 31 32 32 30 28 27 26 26 19 17 21 18 19 21 15 14 11
35 34 33 30 28 27 25 23 24 27 25 23 21 22 19 20 23 24 22 19 20 23 26 25 27 28 31 28 29 31 30 28 25 21 18 15 11 14 14 17 23 18 18 15
33 32 30 28 26 26 27 26 27 28 28 25 18 23 27 27 19 20 19 22 26 27 27 27 27 30 29 28 31 30 30 27 23 19 12 12 9 11 10 16 19 20 18 11
30 27 26 28 27 27 27 27 25 27 28 19 21 28 29 28 21 20 23 24 26 24 26 25 29 30 30 30 31 31 30 26 22 19 16 16 14 13 14 15 23 23 16 18
26 26 25 24 25 26 27 27 27 22 22 21 21 29 30 28 26 21 21 24 27 23 25 27 28 28 30 30 31 32 31 27 25 26 23 21 20 19 20 20 19 21 22 20
28 28 27 24 23 26 26 26 22 21 22 23 23 24 24 26 26 24 28 26 25 23 25 26 26 26 29 31 31 31 31 30 29 27 26 25 24 24 24 23 22 23 23 22
26 26 27 27 24 25 25 27 28 28 23 25 24 24 24 27 30 24 27 26 23 20 21 24 26 28 28 30 30 31 30 30 30 29 28 27 27 27 26 24 24 24 24 21
27 27 27 25 27 28 28 28 28 27 27 28 27 27 25 30 29 23 25 23 19 27 25 24 25 27 27 28 29 30 29 30 30 30 29 28 27 27 27 27 27 27 26 25
28 28 28 28 28 28 28 27 26 27 30 29 26 22 25 26 29 30 28 22 24 27 25 28 28 28 28 28 27 28 27 29 30 30 30 29 29 28 28 28 28 27 25 25
27 24 27 27 27 28 27 27 28 29 30 27 28 27 26 27 30 29 27 26 19 21 22 23 19 15 17 16 16 17 19 24 27 29 30 31 29 29 29 29 28 26 25 24

GFSNGP_sfc_dewp_024.txt.gz
Dewpoint
28 29 26 22 22 27 25 24 22 22 24 24 31 34 35 36 36 35 35 34 33 33 33 32 30 26 24 24 25 26 25 31 32 34 35 35 35 35 35 36 36 34 30 27
28 30 29 26 23 24 25 25 27 26 25 29 35 36 36 36 36 35 34 33 33 33 32 30 25 21 21 21 23 25 25 32 34 34 34 33 34 34 35 35 33 35 29 26
16 26 22 17 23 26 26 27 25 24 26 35 35 35 36 36 35 35 33 32 31 32 30 25 21 20 19 20 23 24 26 32 33 33 33 33 33 34 33 34 34 29 25 25
17 18 7 19 27 28 27 27 28 31 32 35 35 35 36 36 35 35 33 32 32 30 23 22 20 19 20 20 22 23 30 31 32 32 32 33 33 33 31 29 29 25 25 25
15 17 16 15 23 28 27 25 33 32 34 35 36 35 35 36 35 35 34 33 29 22 21 21 18 19 20 21 22 29 29 31 31 31 31 30 30 31 31 31 28 26 25 24
20 9 4 16 26 31 29 25 32 35 35 35 35 31 34 35 35 34 32 24 19 19 19 18 19 20 21 22 25 27 29 30 30 30 29 28 28 28 29 26 26 25 23 23
14 12 20 22 31 31 22 23 36 36 36 36 34 35 35 35 34 33 22 18 19 19 19 20 21 22 23 24 25 27 29 29 29 28 27 27 25 25 25 26 24 24 22 23
22 13 18 28 32 27 30 32 37 37 37 36 36 36 36 34 27 19 17 19 20 20 21 22 24 24 24 25 26 27 28 29 28 27 27 26 23 25 25 23 22 21 9 16
26 26 28 30 33 34 33 33 37 37 38 38 37 38 37 26 21 21 17 18 20 20 23 24 26 26 26 27 29 29 28 28 27 28 27 26 23 23 22 22 19 19 21 15
28 28 31 32 33 35 36 36 38 39 39 39 38 39 29 27 25 20 18 20 21 23 24 25 27 28 29 29 29 29 28 28 28 27 26 26 24 23 23 19 20 21 20 18
30 32 33 34 37 35 38 40 40 41 40 39 38 33 29 23 21 20 20 23 23 24 26 26 27 29 28 28 29 28 28 28 28 28 28 26 22 23 24 23 23 21 19 17
28 30 31 31 35 40 40 40 40 40 38 31 31 24 25 24 22 22 23 24 24 26 27 27 29 28 28 29 29 29 29 29 30 30 29 27 24 24 26 26 26 27 27 17
31 34 35 36 39 40 40 40 39 33 27 24 24 26 25 23 24 26 24 24 26 27 27 29 28 28 28 28 28 28 29 30 30 29 29 26 24 24 19 21 26 27 27 27
39 39 37 38 38 41 40 32 27 24 24 26 29 26 24 24 26 25 25 27 28 28 28 29 28 27 27 27 28 29 30 29 30 29 28 28 27 25 21 17 15 15 21 24
40 39 38 39 39 27 25 24 27 30 32 30 27 26 25 25 24 27 28 28 28 28 28 27 26 26 26 27 28 30 31 31 29 27 27 25 22 23 20 16 19 17 14 17
39 39 37 30 26 29 32 34 33 32 29 28 26 26 26 28 28 27 28 29 27 27 27 23 23 26 27 28 29 30 32 31 29 26 24 24 24 20 20 21 22 18 16 14
36 32 31 33 34 34 35 35 33 31 31 28 25 26 27 27 26 27 28 26 22 22 23 23 25 27 27 29 30 31 31 31 28 27 25 24 24 20 19 23 22 23 17 8
35 35 35 34 33 33 32 33 32 28 26 27 26 24 22 22 24 24 22 21 17 21 24 26 26 27 27 29 30 29 29 30 29 27 27 25 26 21 17 18 19 20 19 13
34 34 35 35 34 32 27 24 24 27 26 26 24 25 23 23 24 24 21 20 20 21 26 26 26 25 27 29 28 27 29 29 29 27 26 24 11 14 13 13 15 16 17 17
32 32 31 28 27 27 28 28 27 28 28 26 21 22 25 26 27 22 18 22 26 27 27 26 25 25 26 29 29 28 29 30 29 26 23 21 16 14 13 12 15 17 18 17
27 26 26 27 27 27 26 26 24 26 27 21 21 26 28 29 29 27 24 25 27 24 25 23 24 26 27 27 30 30 31 30 29 24 22 20 19 17 17 17 18 19 21 21
26 26 22 22 24 25 25 26 26 21 20 18 15 18 24 28 27 25 25 25 28 22 26 24 25 23 25 24 29 30 30 29 30 28 23 23 24 23 22 22 22 22 23 22
29 28 26 24 21 26 26 24 20 20 21 22 22 22 21 25 24 24 25 25 24 24 24 22 20 23 27 28 28 29 29 29 28 29 28 27 27 26 26 26 26 26 25 25
26 27 27 27 24 25 26 28 28 28 22 24 23 21 21 24 26 24 28 28 27 28 23 22 21 23 20 27 27 28 28 29 29 29 29 29 28 27 27 27 26 26 26 26
27 28 27 26 27 27 28 28 26 26 27 28 29 26 24 23 25 28 28 28 29 26 24 22 22 22 27 26 25 23 23 25 26 26 28 29 29 28 27 27 27 27 27 26
27 27 27 27 26 26 25 24 24 24 25 25 26 28 27 25 24 26 29 29 28 26 25 24 19 13 12 13 13 13 15 16 18 20 22 25 28 29 28 28 27 27 27 28
25 23 22 22 21 21 20 20 21 21 23 23 24 26 27 28 29 29 30 29 22 18 21 16 11 12 12 11 11 11 12 13 13 12 13 14 15 20 28 29 29 29 29 27

GFSNGP_sfc_dewp_027.txt.gz
Dewpoint
28 28 26 22 24 28 25 25 26 23 23 24 27 34 35 37 38 37 36 35 34 34 34 34 34 30 26 26 27 27 27 26 33 36 36 35 34 35 36 37 37 35 31 29
27 30 28 26 25 24 27 26 26 26 26 28 31 35 36 37 37 36 35 34 33 34 34 33 32 27 25 24 25 26 26 27 34 35 34 34 35 35 35 36 35 34 31 30
22 25 23 23 25 25 25 27 27 25 27 34 34 35 35 37 37 36 35 34 33 34 33 32 27 25 23 22 24 25 25 29 33 33 33 33 33 32 32 35 34 32 29 27
26 23 19 22 28 27 27 27 27 27 29 33 34 36 37 37 37 37 36 34 33 33 31 27 24 22 23 21 23 24 26 31 32 32 32 32 31 30 31 34 32 32 28 26
27 21 18 16 20 27 29 24 29 28 31 35 36 36 37 38 38 38 37 35 33 32 25 24 21 21 21 22 23 28 29 30 30 32 30 30 29 29 30 31 33 29 27 25
24 22 19 22 21 32 30 28 30 33 35 36 36 35 34 38 38 38 36 33 26 22 21 20 21 22 22 23 25 26 28 29 30 30 30 29 30 28 28 30 29 26 24 23
21 27 24 24 27 32 25 27 32 36 36 37 36 38 37 38 37 35 30 21 21 20 20 21 23 24 24 25 25 26 28 29 29 30 29 29 28 26 26 26 27 27 26 25
25 24 24 28 32 32 35 34 34 38 38 38 39 37 37 36 33 25 18 19 21 22 22 24 25 25 24 25 27 28 30 30 29 30 28 26 27 26 26 26 26 26 26 26
28 30 32 31 36 35 35 34 35 38 38 39 38 37 35 30 23 20 20 19 20 21 24 25 26 26 25 27 29 29 28 29 29 29 28 27 26 26 25 24 25 26 24 25
31 30 30 32 33 34 35 36 37 39 39 40 39 39 28 24 23 22 23 20 22 23 23 25 26 28 30 29 28 29 29 29 28 29 28 29 27 24 24 26 25 24 25 24
32 33 33 32 35 37 37 38 39 40 41 40 40 34 27 26 24 22 22 23 23 23 25 25 26 29 29 28 30 29 29 29 30 30 29 29 29 25 25 26 26 26 26 26
33 33 34 34 34 38 39 39 41 41 38 38 33 27 25 26 28 23 24 25 23 26 26 25 28 29 29 29 29 29 28 29 30 31 30 30 29 27 27 27 26 27 27 27
34 35 35 37 37 40 41 41 41 37 32 28 28 33 33 30 26 27 25 25 25 26 27 28 28 28 28 29 28 29 28 29 30 31 30 30 30 29 28 28 26 28 29 28
39 39 39 39 39 39 32 28 29 29 32 34 34 31 28 27 28 26 25 26 27 28 28 28 28 26 27 27 28 29 29 31 31 32 32 31 31 30 29 28 28 28 26 25
40 41 40 31 27 26 29 33 34 33 33 31 30 28 27 25 24 27 30 30 28 28 28 27 26 26 27 29 28 28 29 30 30 33 33 31 31 30 29 28 28 26 26 24
33 29 32 33 34 34 33 32 32 32 32 32 30 27 26 29 30 31 29 29 29 28 27 28 26 27 29 28 28 29 30 31 31 30 31 30 30 29 28 28 27 27 26 26
35 33 34 33 33 34 34 35 34 34 33 32 30 28 30 30 28 28 29 29 29 29 28 27 28 28 28 29 29 29 29 29 29 30 31 30 29 29 28 27 27 26 27 30
35 35 35 35 34 34 34 34 34 33 30 30 29 29 28 28 28 28 28 28 26 26 28 29 29 28 28 28 30 29 30 30 29 29 30 31 29 28 29 28 26 26 26 28
35 35 35 34 34 34 32 28 27 29 30 29 28 29 28 27 27 27 27 25 26 27 28 30 28 29 28 29 29 30 32 32 30 28 30 30 30 28 28 28 27 26 26 26
32 32 31 28 28 29 30 30 30 29 29 28 27 27 28 28 27 29 29 27 28 29 30 29 29 28 29 29 28 30 31 31 30 29 30 30 29 28 28 25 26 26 26 27
26 26 27 27 27 27 26 26 26 28 28 23 26 27 27 28 30 30 29 27 29 30 29 28 28 28 29 29 28 29 28 29 29 32 32 31 29 27 27 28 28 27 26 27
28 28 26 25 26 27 28 28 28 26 26 25 25 22 22 26 28 28 28 28 30 26 28 30 29 28 28 28 27 29 28 30 30 30 31 31 29 29 29 29 28 28 29 29
29 27 27 26 26 27 27 28 27 27 25 26 26 27 28 28 28 27 28 29 28 30 29 31 30 26 28 30 31 30 28 28 29 29 30 30 30 30 30 30 30 31 30 30
28 29 28 28 27 27 26 26 25 26 26 26 27 26 28 28 27 28 30 29 28 29 30 31 30 28 25 30 29 28 27 26 24 25 25 25 28 30 31 31 29 30 30 30
28 27 26 25 24 23 22 20 21 22 22 21 23 25 26 26 28 28 29 29 29 29 31 29 27 23 24 22 21 19 19 19 19 19 20 21 23 25 27 30 31 30 31 31
24 23 22 21 20 19 17 17 17 18 18 19 20 22 23 23 26 26 27 28 29 29 31 27 22 20 19 17 16 16 16 15 14 14 14 14 15 16 16 18 21 28 31 32
20 19 18 17 16 15 14 13 14 14 15 17 16 18 19 20 21 23 24 25 27 28 23 19 17 15 14 14 13 13 12 12 9 9 10 10 10 12 13 15 17 23 29 32

GFSNGP_sfc_dewp_030.txt.gz
Dewpoint
26 26 25 23 24 26 22 22 24 14 17 12 19 22 28 35 38 39 39 39 39 38 37 34 34 34 32 30 29 26 23 24 26 30 33 32 33 32 32 33 33 32 32 33
28 28 26 26 24 23 25 24 24 20 21 22 24 28 31 36 37 38 38 38 38 37 34 33 33 33 30 28 26 24 24 25 26 30 32 32 32 32 31 31 32 32 32 30
24 25 25 32 28 24 23 26 26 24 23 24 27 30 31 34 37 37 38 38 37 35 34 33 32 31 29 25 24 25 25 24 27 31 30 30 29 28 29 30 32 31 31 31
32 28 30 17 24 24 24 24 22 24 22 24 27 32 34 35 36 37 38 38 37 35 33 32 30 26 25 21 22 24 23 24 28 29 28 28 28 29 30 30 30 31 30 30
36 23 19 9 18 21 25 19 23 23 23 27 34 36 35 37 38 39 39 39 38 35 32 28 25 24 21 21 22 22 23 25 26 28 28 27 28 29 30 29 29 30 30 29
31 34 32 22 25 30 30 23 25 29 31 32 35 33 23 36 39 39 39 38 35 31 26 24 22 22 22 21 21 21 24 25 26 28 28 28 30 30 29 28 27 27 28 29
32 36 28 23 23 32 24 24 32 34 34 36 35 31 37 38 39 39 38 34 29 24 22 22 24 24 23 21 22 21 26 28 27 27 27 28 30 29 28 27 28 30 30 28
32 35 31 27 31 30 33 34 34 34 37 39 38 40 38 38 39 37 32 24 21 24 28 28 24 24 19 17 21 26 28 28 25 26 27 26 29 29 28 28 28 29 33 31
31 31 30 32 34 35 37 37 36 37 36 39 39 38 37 37 35 29 22 20 26 28 28 26 24 23 19 21 27 28 26 26 27 28 27 27 28 28 27 26 27 28 26 27
31 27 30 31 32 33 33 35 35 36 36 37 39 39 37 33 28 24 22 27 30 27 24 23 23 23 25 27 27 27 27 27 28 28 28 28 26 26 26 27 28 26 26 25
33 32 30 31 32 34 36 39 39 39 40 40 40 40 34 29 27 28 26 24 24 24 22 21 23 24 26 27 28 26 26 27 28 29 28 27 26 26 28 28 28 27 26 27
35 34 34 34 36 39 39 40 41 41 40 40 40 34 30 30 28 27 26 26 23 24 24 24 26 26 26 27 27 27 28 28 29 29 28 27 26 26 30 28 28 28 28 29
38 40 40 40 40 41 40 38 38 37 34 32 30 31 32 28 29 29 26 25 24 24 27 27 27 28 26 28 29 29 28 28 28 29 29 27 28 28 29 30 29 29 29 29
40 42 40 37 35 34 34 35 37 36 35 34 33 33 33 32 31 30 29 26 26 27 29 30 28 26 27 27 29 29 29 29 29 29 30 31 32 31 31 31 30 31 30 27
35 38 35 34 34 34 34 35 33 34 34 35 34 31 28 27 26 27 28 31 32 31 28 27 25 24 25 30 28 28 28 28 31 33 33 31 32 32 31 31 30 29 30 28
36 36 35 34 33 34 35 35 34 34 35 34 31 29 27 28 28 29 30 29 29 28 28 33 32 29 30 30 28 29 28 29 30 29 30 29 31 31 30 30 30 30 28 27
35 33 34 33 33 34 35 35 34 33 32 30 31 30 28 30 30 30 29 30 35 33 34 34 32 28 30 30 30 29 29 29 29 29 30 28 30 30 30 30 31 31 30 33
35 35 33 34 35 35 35 35 34 33 31 31 33 33 33 33 31 31 33 34 32 33 32 32 33 31 30 30 30 31 32 32 32 33 32 31 30 31 32 31 30 30 31 30
35 34 34 33 33 32 30 27 28 30 32 33 33 33 33 33 31 30 32 31 31 32 29 33 30 30 30 30 30 33 34 33 31 31 32 30 30 31 32 32 32 32 31 29
30 29 28 28 29 30 30 30 34 30 30 31 32 33 33 33 33 32 33 31 32 32 31 31 31 31 32 31 30 31 33 32 30 31 32 33 33 32 33 30 31 32 32 32
28 28 28 28 28 32 33 32 33 31 31 32 31 31 30 31 32 32 31 30 31 35 31 30 31 31 30 30 30 32 32 31 31 30 31 32 32 32 32 32 31 32 32 32
30 29 32 32 30 30 31 29 29 30 28 28 28 29 29 29 28 28 30 30 30 30 30 30 31 30 31 31 32 33 31 30 31 32 31 32 32 31 32 32 32 32 32 32
29 29 30 31 31 30 29 27 27 27 26 26 26 26 26 26 25 26 24 26 28 29 29 30 30 31 31 32 32 32 32 31 31 30 30 30 30 30 31 31 32 32 32 32
30 29 29 28 27 24 22 19 20 21 24 23 24 25 23 25 26 23 25 27 27 28 31 31 31 31 30 31 32 31 29 26 25 25 24 23 24 24 25 27 28 30 32 32
27 26 24 24 21 19 17 16 16 17 17 17 18 18 20 20 22 24 26 27 26 27 29 29 29 28 29 28 27 25 25 23 21 21 20 20 20 20 21 21 21 22 24 29
23 22 21 19 18 16 16 14 15 16 16 17 18 20 21 21 21 21 22 22 23 22 23 24 21 21 22 21 21 20 20 19 17 16 16 17 17 16 17 17 17 19 21 24
18 18 17 17 15 13 14 13 16 15 16 18 17 18 18 19 19 18 17 19 18 18 18 18 17 15 15 15 15 15 15 15 12 11 12 12 12 12 13 13 15 16 19 21

GFSNGP_sfc_dewp_036.txt.gz
Dewpoint
21 22 24 25 22 20 18 23 26 26 16 16 17 22 22 26 30 29 30 37 39 41 45 45 45 44 42 40 39 39 38 34 36 34 33 33 34 34 35 35 33 34 34 34
30 28 26 25 22 22 21 18 18 17 17 18 22 24 24 25 23 26 29 32 39 42 43 44 44 42 41 39 39 37 38 35 33 32 31 33 34 35 35 34 33 33 32 33
33 27 26 29 28 25 23 21 21 22 25 23 20 20 25 28 27 31 31 32 38 40 42 44 43 42 40 37 36 38 34 34 31 30 30 32 31 31 31 32 33 33 33 33
37 32 28 20 20 17 20 18 17 16 19 19 27 28 27 27 31 31 34 34 35 39 42 43 43 40 38 34 37 33 30 30 31 29 29 29 31 31 31 32 33 32 32 32
36 29 23 19 16 18 18 18 21 20 21 20 22 29 30 32 33 32 33 34 36 38 40 41 39 36 34 33 30 30 29 29 26 27 29 30 29 30 32 31 32 32 31 31
36 35 30 29 23 23 23 29 27 27 28 28 26 35 35 36 35 36 34 36 36 39 40 39 35 34 30 28 30 29 29 27 26 29 29 28 31 31 31 31 30 31 30 31
35 37 34 26 25 27 28 33 32 32 32 33 34 38 41 40 37 36 36 38 39 37 34 32 32 33 33 34 34 32 29 29 30 32 29 29 30 30 30 30 31 31 30 31
40 35 31 26 27 27 37 37 35 34 36 39 39 38 38 37 37 37 36 35 32 33 34 34 34 34 32 30 26 29 31 30 28 28 26 24 30 30 31 31 31 31 32 31
36 37 35 30 31 32 36 35 36 38 37 38 39 38 38 38 38 36 29 29 32 34 34 34 32 30 27 26 27 28 30 30 28 28 27 27 29 30 30 29 30 30 31 32
36 27 27 29 30 35 38 39 38 39 40 42 41 41 40 37 32 31 33 33 33 33 32 30 28 26 27 28 29 29 29 29 28 29 29 29 29 29 29 31 31 30 31 30
32 31 32 37 39 41 40 41 41 40 38 37 38 34 31 30 31 32 32 31 31 31 30 28 28 28 26 27 30 29 27 27 29 30 31 30 29 29 29 30 31 30 30 31
41 38 39 40 38 39 38 37 36 35 34 33 32 32 33 33 32 32 33 33 33 32 30 28 26 26 28 29 27 28 28 29 32 33 32 31 29 29 30 30 30 30 30 29
40 40 41 38 38 38 37 37 36 35 35 34 34 34 34 34 34 34 34 33 31 29 26 27 28 28 27 31 31 31 30 31 31 30 31 30 30 30 28 29 31 31 31 31
39 40 38 38 37 37 36 36 36 34 33 33 33 34 34 33 33 32 30 27 27 27 27 28 29 29 31 31 30 30 31 30 30 30 31 32 32 31 30 29 28 29 31 31
37 38 37 36 36 35 34 33 31 32 33 32 32 31 30 28 27 28 28 27 28 28 25 25 27 28 29 33 31 30 30 31 31 32 33 32 31 31 30 29 29 29 29 29
36 36 36 35 34 33 32 33 33 34 33 31 31 30 27 27 26 26 27 32 32 32 31 31 32 33 34 33 32 31 30 30 30 32 33 32 31 31 30 30 29 29 29 29
35 35 34 33 32 32 33 34 33 31 29 30 32 32 31 32 30 31 31 33 33 31 32 32 32 32 34 32 30 30 31 31 31 32 32 32 32 32 32 32 30 30 29 30
36 35 34 34 34 34 32 32 31 32 32 32 31 31 30 30 31 31 31 30 30 30 31 32 30 30 31 31 30 30 30 31 31 31 31 32 31 31 30 30 29 30 28 29
33 33 33 33 32 30 29 31 32 33 31 31 30 30 30 30 27 28 28 27 26 26 28 29 28 26 25 26 27 28 29 30 31 31 31 31 30 29 28 28 29 30 31 31
31 30 29 30 31 32 32 33 33 32 31 28 26 26 26 24 25 26 27 27 26 26 24 24 24 23 24 26 26 26 26 27 28 30 31 31 30 29 29 27 28 31 32 31
28 29 31 31 31 32 31 32 29 27 27 25 25 24 23 25 25 23 23 22 23 22 23 23 22 25 24 22 21 25 26 27 28 29 29 30 31 29 28 28 29 30 30 31
29 32 31 31 31 30 29 27 27 26 26 23 21 20 20 20 21 22 22 22 22 22 20 21 25 18 17 18 23 25 25 26 29 29 29 30 29 27 26 26 25 25 25 26
31 32 32 31 31 28 25 23 26 25 22 21 22 22 21 20 21 20 19 20 21 19 19 21 19 14 14 20 20 21 20 22 20 22 23 24 24 23 23 23 22 21 21 21
32 32 30 29 28 25 23 19 20 22 22 23 22 21 20 21 22 21 21 19 17 18 18 20 18 14 13 16 16 16 16 17 14 16 17 18 19 19 19 18 17 17 17 18
30 29 27 27 23 22 19 16 17 18 18 18 19 18 20 21 21 20 20 20 18 18 18 17 16 13 14 14 14 13 13 14 12 12 12 13 13 14 14 13 13 13 14 14
29 26 22 20 18 17 17 15 17 18 17 20 20 21 22 22 20 19 19 17 18 16 16 16 16 15 13 12 12 11 11 10 10 9 9 9 10 10 10 10 9 10 10 11
22 24 21 21 16 15 16 17 18 17 19 20 17 19 20 20 20 17 15 16 16 15 14 14 14 13 12 11 10 9 9 8 7 8 7 6 7 6 7 7 8 9 9 11

GFSNGP_sfc_dewp_039.txt.gz
Dewpoint
25 27 28 27 27 26 21 27 24 25 25 24 23 22 24 27 30 29 31 38 41 41 44 46 47 47 46 44 41 37 37 35 37 37 36 35 35 34 35 33 31 32 32 33
30 31 28 26 27 26 24 25 24 23 23 22 24 24 24 24 25 28 30 32 40 46 47 46 47 46 44 40 39 37 35 36 38 38 37 33 33 33 33 33 32 32 32 33
28 27 25 21 24 25 27 27 26 22 24 28 27 26 27 27 29 29 31 32 35 39 43 45 46 45 40 38 38 38 36 36 37 35 32 33 31 30 30 30 31 32 32 33
27 26 12 24 23 21 21 22 22 21 21 27 27 30 31 29 30 30 31 32 33 35 40 42 42 38 38 38 38 33 33 34 35 34 31 32 31 31 31 32 31 32 31 31
24 25 26 23 23 25 22 24 27 27 27 28 28 29 36 36 34 34 33 34 35 39 37 35 34 35 32 32 30 30 30 29 30 32 30 31 31 32 31 29 31 31 31 30
29 23 16 28 25 28 26 26 32 32 32 33 34 32 36 37 37 38 33 33 32 32 32 31 31 33 33 33 32 31 31 31 32 32 31 32 34 31 31 30 30 31 30 31
25 23 28 31 28 31 21 27 34 34 34 34 33 37 38 38 38 34 33 33 34 33 33 33 33 32 33 31 30 30 32 32 32 33 33 33 31 30 29 29 29 30 30 30
32 28 24 29 29 27 36 35 35 34 36 37 38 40 40 37 30 32 33 33 33 33 32 32 31 30 29 28 29 30 31 32 32 32 31 29 29 29 29 29 29 30 29 30
33 32 37 32 34 38 39 38 38 39 42 42 41 41 33 33 34 34 34 34 34 32 30 28 26 27 26 30 28 30 31 31 30 30 29 28 28 29 29 28 28 28 29 27
31 33 31 40 40 41 42 41 37 35 37 37 32 32 32 32 31 31 31 30 30 30 29 29 28 28 29 30 30 30 30 30 30 29 29 29 30 30 29 28 26 28 28 28
31 39 40 39 40 40 39 37 34 33 33 33 33 33 33 32 31 30 30 30 31 31 31 29 30 29 28 29 30 29 30 29 28 29 30 30 30 29 29 28 28 27 27 27
33 40 39 38 38 38 36 35 35 34 33 33 33 32 32 31 32 33 34 33 32 31 30 28 28 28 28 29 29 29 28 28 28 28 28 29 29 29 30 30 31 31 31 28
40 39 38 37 37 37 36 36 35 35 34 33 33 33 34 33 33 33 33 32 31 29 28 27 27 28 29 30 30 29 28 28 28 29 28 28 28 28 28 28 30 31 31 32
40 39 37 37 36 36 35 34 34 33 33 33 33 33 32 32 33 32 30 28 28 28 28 28 28 28 30 30 31 29 29 29 29 29 29 29 29 29 29 28 27 27 28 30
37 38 37 36 35 34 33 32 32 32 32 32 32 31 31 29 28 30 31 31 30 30 31 30 30 30 32 33 32 31 31 29 29 29 30 30 31 31 32 32 28 27 27 26
36 36 35 34 33 32 33 33 32 31 31 30 30 30 30 30 30 31 32 31 29 28 29 29 31 31 32 31 29 29 30 28 28 29 30 30 30 33 32 31 30 29 29 26
34 33 33 33 32 33 33 33 31 31 31 30 29 29 30 30 30 29 28 28 27 25 26 30 28 26 27 25 24 25 26 26 26 27 28 29 29 28 31 31 30 30 29 27
36 35 34 33 33 32 31 32 31 30 29 29 29 29 28 25 26 26 25 25 21 22 24 25 23 24 24 25 25 25 25 24 24 24 24 25 27 28 30 29 27 25 26 24
35 35 34 33 31 31 31 31 30 29 28 28 25 24 23 21 26 27 25 20 19 20 22 22 22 23 22 21 18 18 19 21 22 23 24 24 27 29 29 26 22 23 23 26
32 32 32 31 32 31 31 31 29 27 27 24 20 17 19 16 15 15 18 19 21 21 20 19 22 17 15 14 16 20 22 23 22 22 23 26 26 26 27 26 26 25 26 25
31 31 30 30 30 29 27 26 26 25 25 19 17 11 11 15 15 12 17 19 21 17 18 19 17 13 11 13 17 18 17 17 16 16 18 20 22 22 24 24 22 22 20 20
31 30 30 30 28 27 27 26 24 21 20 14 8 8 9 18 15 17 13 17 19 12 15 19 17 9 11 12 14 14 12 14 10 12 13 15 16 17 18 17 17 17 16 15
31 30 30 28 26 24 25 23 20 18 13 12 10 13 15 19 19 15 14 18 18 14 16 16 10 7 6 10 10 10 9 10 7 7 9 10 11 13 12 12 12 13 13 13
31 30 28 27 24 23 20 21 23 19 14 18 13 9 17 12 9 19 19 13 8 6 7 12 11 8 2 1 5 7 6 7 7 5 6 7 8 9 9 9 9 10 11 11
29 28 27 25 22 20 19 19 20 19 19 20 19 19 19 20 10 12 8 8 11 9 5 6 6 6 -1 -4 -3 -1 1 3 4 4 4 4 5 4 5 6 6 8 8 9
26 22 20 20 19 18 18 20 19 18 18 14 14 7 11 14 14 11 7 6 8 7 5 0 -1 -1 1 -3 -4 -4 0 3 1 4 -0 -0 2 1 2 3 4 5 6 8
24 21 19 18 18 18 18 18 14 13 12 5 6 6 14 11 5 8 1 -2 -1 2 -2 -1 -3 -1 1 2 -5 -2 -6 -5 -4 2 -8 -6 -4 -3 -1 0 2 3 3 3

GFSNGP_sfc_dewp_042.txt.gz
Dewpoint
25 27 29 27 26 28 24 25 23 23 24 23 23 23 24 26 28 36 38 41 42 42 42 45 47 48 48 45 43 42 39 38 41 39 37 37 36 35 36 33 32 31 32 33
26 29 27 26 25 25 25 25 26 24 24 26 26 26 27 26 28 30 31 39 43 43 45 46 47 47 48 46 43 41 40 40 40 40 35 35 34 35 35 33 32 31 31 34
26 26 25 23 24 24 25 27 26 22 24 28 29 28 27 29 30 31 32 33 39 45 46 47 47 47 45 40 40 39 38 38 36 35 34 34 33 32 31 30 30 30 32 32
25 23 16 27 26 25 25 25 23 23 26 29 32 34 33 32 32 32 33 36 39 40 40 41 39 39 39 38 36 35 35 35 33 32 32 33 34 33 34 32 31 32 32 33
23 23 25 25 21 21 24 26 29 28 30 29 33 36 35 37 37 36 35 33 33 32 32 33 34 34 31 31 30 31 31 32 33 33 33 35 37 37 34 33 31 31 31 32
28 20 16 25 25 27 29 26 31 33 34 34 33 33 35 37 34 33 32 32 33 33 33 33 32 32 31 31 31 32 34 35 35 37 38 37 34 33 33 31 30 30 29 30
22 21 24 29 27 30 18 22 33 34 34 33 34 37 35 34 34 33 33 32 32 31 29 30 31 31 30 31 32 33 34 36 38 35 34 33 32 31 29 29 28 28 29 29
28 22 19 33 29 25 30 35 36 36 38 40 37 33 33 34 33 32 32 31 31 31 30 30 29 29 29 30 32 34 35 33 32 31 30 29 29 29 28 28 28 28 25 28
30 29 34 36 34 37 38 38 40 41 42 40 34 34 34 33 33 33 32 30 27 26 27 28 28 29 29 31 29 31 31 30 30 30 30 29 28 28 28 28 26 27 27 26
32 37 39 40 41 41 39 36 36 37 36 34 33 33 32 31 31 31 30 29 29 29 29 29 29 29 29 30 30 29 29 29 29 29 28 28 29 29 29 26 26 27 27 27
37 39 39 39 38 35 35 35 34 34 34 33 33 32 31 31 31 31 31 31 31 31 30 29 28 28 28 28 29 28 28 29 28 28 28 28 29 30 29 29 28 27 26 26
32 39 37 37 37 37 35 34 34 33 33 33 32 31 32 33 33 33 33 31 30 29 28 27 28 28 29 29 29 29 28 28 28 28 27 28 28 28 30 30 30 31 31 28
39 39 38 37 36 36 35 35 34 33 33 33 33 33 33 32 31 32 31 28 28 28 28 28 28 28 30 31 31 30 29 29 29 28 28 28 28 28 27 29 31 31 31 31
38 37 36 37 35 35 34 34 34 33 33 33 33 32 31 31 30 29 29 29 29 29 30 30 30 31 31 32 31 29 29 29 28 28 28 29 29 30 30 30 29 29 31 31
38 38 37 35 33 32 33 33 32 32 31 30 30 29 28 29 30 31 31 30 29 28 29 29 28 27 26 27 24 23 25 26 26 26 26 26 27 28 28 29 31 29 30 28
36 35 34 32 31 32 32 31 30 29 29 29 29 30 30 31 29 27 27 26 26 26 28 26 24 22 26 25 24 25 25 24 24 25 23 23 23 23 24 25 28 30 29 27
33 32 33 31 32 32 31 31 31 29 28 28 28 29 28 26 25 25 26 26 23 24 24 21 21 23 25 20 17 17 17 18 19 21 22 23 21 23 24 24 25 27 29 27
35 34 33 33 33 32 31 31 30 29 28 29 27 23 22 23 25 25 24 21 19 20 20 20 22 18 16 15 17 18 19 20 20 21 21 21 20 24 25 26 28 28 27 22
34 34 34 33 32 31 29 29 29 29 28 26 24 23 22 21 22 22 21 17 16 16 17 21 19 14 12 14 17 19 17 16 15 15 16 15 17 20 20 20 23 25 26 24
33 33 32 32 31 29 28 27 28 27 24 20 18 19 20 16 13 16 19 18 15 15 18 18 14 11 10 12 13 14 12 13 10 10 11 11 13 14 15 15 16 17 17 17
31 31 30 30 30 30 27 26 24 23 20 17 17 15 14 17 15 14 16 18 16 17 16 16 14 11 10 9 11 10 7 9 6 6 7 7 8 9 10 10 11 12 13 14
30 29 29 28 27 26 26 24 24 22 19 15 12 11 13 18 15 16 12 16 16 9 15 16 14 4 8 5 10 5 7 7 5 4 4 4 4 6 5 6 6 8 10 11
30 29 28 26 25 24 23 21 20 19 16 14 13 13 17 19 17 12 12 17 18 11 16 10 5 1 -0 -4 -4 -6 -5 -4 0 -1 2 1 2 3 3 3 4 5 6 8
31 29 27 25 24 23 20 19 19 19 17 18 12 8 17 13 8 18 17 9 3 1 0 2 -0 1 -3 -10 -10 -10 -9 -11 -9 -3 -3 -5 -1 -2 -1 0 1 3 4 4
29 28 24 23 20 20 22 21 19 20 20 17 16 16 19 18 9 11 4 4 7 4 -0 -2 -1 -2 -9 -12 -12 -13 -12 -13 -14 -5 -14 -10 -5 -5 -5 -3 -2 1 1 2
26 24 22 20 19 19 20 19 17 19 17 12 11 2 7 13 11 9 2 1 3 2 -2 -8 -11 -10 -11 -6 -11 -13 -12 -9 -12 -6 -16 -14 -11 -9 -8 -6 -5 -3 -2 -0
20 19 19 18 19 19 18 16 14 13 10 3 4 2 11 6 1 3 -7 -9 -9 -8 -10 -9 -11 -9 -9 -9 -4 -7 -13 -14 -15 -12 -21 -21 -17 -15 -10 -7 -6 -4 -3 -3

GFSNGP_sfc_dewp_045.txt.gz
Dewpoint
26 24 27 26 27 29 25 25 24 24 25 25 23 22 23 24 30 39 43 44 44 43 44 46 48 49 48 47 45 43 42 43 42 39 39 38 37 35 36 35 33 33 32 34
29 28 26 25 25 26 26 25 25 25 23 26 26 27 28 29 31 32 36 41 42 44 43 45 48 48 47 44 45 44 43 41 40 39 37 36 36 36 34 33 31 33 36 33
21 26 25 23 25 25 25 26 26 23 24 27 28 28 29 30 31 32 34 37 39 44 45 47 47 46 43 41 41 40 40 39 36 35 34 35 35 35 35 37 38 37 33 33
24 24 17 24 28 26 25 25 24 25 27 29 32 34 35 34 33 36 36 35 34 36 38 39 40 40 38 38 37 36 34 33 34 35 34 35 36 38 38 38 35 31 31 31
24 24 24 25 25 24 23 23 28 27 31 34 35 35 35 34 34 33 33 33 33 33 32 32 32 33 32 33 32 33 33 33 35 36 36 38 39 39 38 34 31 30 30 30
25 21 18 27 27 26 28 24 29 32 32 33 33 31 34 34 33 33 32 32 33 32 31 31 31 31 32 32 33 33 34 34 36 38 40 39 37 34 32 31 31 30 29 29
23 21 25 27 28 28 18 21 33 34 34 34 32 34 35 34 33 32 32 30 30 30 30 30 31 32 32 34 34 35 38 41 40 37 35 33 32 30 29 28 28 28 28 28
25 18 21 30 28 22 27 34 35 35 37 36 34 34 33 33 32 31 30 30 29 29 30 30 31 31 32 33 35 36 34 32 31 30 29 29 29 29 28 27 27 27 25 27
29 28 32 36 31 36 36 36 37 39 38 35 34 34 33 33 32 30 28 26 27 27 29 29 29 29 28 29 30 30 29 29 29 29 29 29 28 27 27 27 26 27 27 27
32 36 39 40 38 38 39 39 40 40 35 34 34 33 32 32 30 30 29 28 29 29 28 29 29 28 29 30 29 29 28 28 29 29 28 28 28 28 27 26 27 27 27 27
35 38 38 38 35 35 35 35 34 34 34 33 32 32 31 30 30 31 30 30 30 30 29 28 28 28 29 30 29 29 28 28 28 28 28 28 27 27 28 28 29 28 28 28
32 38 36 37 36 36 35 34 34 33 33 32 31 31 31 32 32 31 31 29 27 28 27 27 29 31 31 31 30 29 28 28 28 28 27 27 27 27 29 30 30 31 31 30
35 39 38 37 35 35 34 34 33 32 32 32 32 32 32 31 30 30 28 28 27 28 30 29 29 27 28 29 28 26 26 27 26 25 25 25 26 25 24 25 27 30 31 31
37 36 34 35 34 34 34 33 34 33 33 33 32 31 30 28 28 28 28 29 29 29 28 28 26 23 24 25 24 24 25 25 24 24 24 24 23 22 22 22 22 22 25 29
37 37 36 34 33 33 33 33 32 31 31 31 30 29 29 28 28 27 28 27 28 27 24 21 20 22 25 23 20 21 19 19 20 20 21 21 22 22 20 21 22 23 23 24
34 33 33 32 32 32 31 30 29 29 29 29 29 30 29 26 25 26 27 27 26 22 19 16 22 22 21 16 16 16 18 19 18 20 20 20 20 18 19 20 20 23 23 23
32 31 31 31 31 31 30 30 29 29 29 29 29 26 23 24 25 25 24 23 21 20 21 22 18 15 15 13 16 18 18 18 16 17 17 16 16 15 18 20 17 16 18 23
35 34 34 33 31 31 31 30 28 28 28 27 24 22 21 22 24 22 20 20 18 18 20 18 15 12 11 13 14 16 15 15 13 11 13 12 12 14 14 13 14 14 15 16
35 34 34 33 32 31 29 28 28 28 25 24 24 23 22 21 23 20 19 15 13 15 18 15 16 11 8 12 13 12 11 10 7 8 8 7 8 8 10 9 9 10 12 13
34 34 33 31 30 29 28 29 27 26 25 23 21 20 18 16 18 16 16 15 14 15 17 14 11 9 8 8 9 9 8 6 5 4 4 4 3 4 5 5 5 6 7 9
32 31 29 28 27 28 28 26 24 20 20 21 20 18 18 18 17 14 13 16 14 16 16 13 12 11 8 7 8 3 -2 -4 -5 0 -1 -1 -1 1 0 1 1 2 4 5
31 30 29 27 25 25 24 23 21 20 19 16 15 15 15 16 14 14 11 16 16 10 16 15 12 2 5 2 7 -4 2 -0 -2 -5 -5 -4 -4 -2 -4 -3 -2 -0 1 2
31 30 29 28 25 24 24 22 20 18 17 16 15 16 18 19 17 13 14 16 16 9 14 8 2 -2 -4 -9 -10 -13 -12 -13 -13 -8 -13 -13 -10 -5 -6 -6 -4 -3 -2 -1
30 29 28 25 22 20 19 20 18 18 18 18 15 14 18 14 10 17 15 7 2 -2 -1 -2 -4 -4 -9 -14 -14 -16 -15 -18 -19 -14 -14 -14 -16 -13 -10 -10 -7 -7 -4 -4
29 26 24 22 20 20 19 20 19 18 18 17 18 19 18 16 10 11 4 3 6 2 -3 -7 -6 -7 -14 -17 -17 -18 -18 -19 -21 -17 -22 -23 -17 -17 -16 -13 -11 -9 -8 -6
27 24 22 21 21 21 19 19 19 18 15 10 11 5 9 10 9 8 2 -1 1 -2 -5 -13 -15 -16 -16 -12 -13 -14 -16 -13 -19 -18 -22 -23 -21 -19 -18 -15 -12 -11 -10 -8
23 23 21 19 18 17 17 17 16 15 12 7 6 4 7 5 2 2 -9 -12 -12 -13 -13 -15 -16 -13 -13 -17 -15 -11 -14 -19 -21 -19 -26 -27 -23 -24 -21 -18 -15 -13 -12 -10

GFSNGP_sfc_dewp_048.txt.gz
Dewpoint
25 24 27 26 27 28 26 26 24 25 25 25 25 23 23 24 34 36 42 45 46 46 47 48 50 49 48 47 46 46 45 43 44 44 41 39 37 37 38 37 34 34 36 39
28 27 26 25 26 28 27 26 25 24 24 26 27 28 29 31 34 36 39 40 43 44 43 46 48 47 47 45 44 44 43 41 39 39 38 37 35 35 35 34 36 40 39 39
22 25 24 23 25 25 25 27 26 24 26 26 28 28 30 31 33 36 37 37 39 40 42 44 45 43 42 42 41 40 39 37 36 36 35 35 35 35 36 39 40 39 39 37
23 23 16 24 28 27 27 26 25 24 25 27 29 34 34 35 36 34 33 33 34 35 36 38 38 38 37 36 35 35 34 34 35 35 36 37 38 39 40 40 39 38 34 32
23 23 23 24 25 25 23 21 26 26 32 33 35 34 34 34 33 33 33 33 32 32 32 32 32 33 33 33 33 33 33 35 36 37 38 39 39 39 40 39 35 32 30 30
23 20 17 25 27 26 25 21 29 32 34 34 34 25 32 33 33 31 31 32 30 30 31 32 32 32 32 32 32 34 35 36 37 39 41 40 38 37 33 31 31 30 29 29
21 21 26 30 27 27 19 23 31 33 34 34 31 31 33 32 32 31 30 30 30 30 30 31 32 34 35 35 36 39 40 39 37 35 34 32 31 30 29 28 28 28 28 28
24 20 24 29 27 23 28 33 33 34 34 35 34 33 32 31 30 30 29 29 29 29 30 32 32 33 33 34 34 33 32 31 30 30 29 29 28 28 28 27 27 27 25 27
30 30 32 32 29 31 33 34 34 36 36 35 34 33 32 30 28 27 27 27 28 28 29 29 29 29 29 30 30 29 28 28 28 29 28 28 27 27 27 27 26 26 27 27
31 33 36 39 38 38 38 37 39 37 36 35 33 33 31 29 28 27 27 28 28 28 28 28 29 29 30 30 29 29 28 28 28 28 28 28 28 27 27 25 26 27 27 27
32 37 37 38 36 36 36 37 35 35 35 34 33 32 30 29 29 29 29 29 28 28 28 29 30 30 30 29 28 27 27 27 27 26 26 25 26 26 26 26 27 26 26 27
31 35 34 35 36 36 36 35 34 33 33 32 32 30 30 30 30 29 28 27 27 28 30 28 26 26 27 26 25 24 25 26 25 25 24 23 23 22 23 24 25 25 26 25
34 38 37 36 35 35 34 34 34 32 32 31 31 31 31 29 28 29 27 27 29 29 28 25 22 23 25 25 25 24 23 22 22 21 21 22 21 21 19 20 21 21 22 24
37 36 34 34 34 34 33 33 33 32 32 32 31 30 28 27 27 27 28 29 29 27 25 21 23 24 22 20 21 20 19 20 19 19 19 19 18 21 19 18 18 18 19 21
36 36 36 34 33 33 32 32 31 31 30 30 29 28 27 27 26 27 28 28 24 20 20 22 21 20 18 17 15 17 17 18 19 18 19 19 18 16 16 17 18 17 16 16
34 34 34 33 32 32 31 31 30 30 29 28 28 28 25 25 25 26 27 26 20 19 20 18 17 14 14 14 15 16 15 18 15 15 15 14 14 13 14 14 13 13 13 13
33 31 32 32 31 31 30 30 30 30 30 29 28 24 25 25 25 23 21 20 20 21 19 17 14 11 12 13 14 14 14 14 12 11 12 11 10 11 10 11 9 9 10 11
34 34 33 32 31 29 30 30 30 30 29 27 24 25 24 23 23 22 19 19 19 19 17 14 12 10 9 11 11 10 11 9 9 9 8 7 7 7 7 6 6 5 5 8
34 33 33 32 31 30 29 29 29 28 25 24 23 23 23 22 21 20 17 16 15 17 16 13 15 10 7 12 9 9 9 5 4 5 3 2 0 1 3 2 2 2 2 4
34 33 33 31 30 29 28 28 26 25 24 22 21 21 21 20 19 17 16 15 14 16 16 12 10 8 7 8 7 7 4 -2 3 -2 -4 -1 -9 -10 -6 -4 -1 -2 -2 -0
32 31 30 29 28 28 28 26 25 23 21 22 21 20 20 19 18 16 16 15 14 17 15 13 10 9 7 7 7 -1 -7 -10 -9 -7 -9 -14 -16 -12 -13 -14 -8 -6 -5 -3
30 28 28 28 27 26 25 23 22 22 21 20 19 19 18 18 15 15 14 16 15 13 15 14 11 4 5 2 4 -6 -0 -5 -9 -11 -14 -17 -19 -18 -16 -17 -12 -9 -7 -6
28 28 28 27 26 23 21 20 21 20 18 18 18 18 18 17 17 15 14 16 15 11 13 9 5 -2 -5 -9 -11 -14 -14 -16 -17 -16 -20 -24 -24 -24 -20 -15 -13 -12 -11 -9
30 29 27 25 23 20 17 17 17 18 19 19 18 17 18 14 12 16 15 9 5 3 0 -2 -4 -2 -8 -14 -16 -18 -19 -21 -22 -23 -18 -20 -27 -27 -22 -21 -17 -14 -13 -12
28 27 26 25 24 22 19 18 18 18 19 18 18 18 18 16 11 12 8 8 7 3 -1 -4 -6 -8 -15 -18 -20 -19 -20 -22 -23 -24 -26 -28 -26 -25 -24 -22 -21 -18 -15 -14
27 25 25 25 23 21 20 19 19 18 15 14 14 12 11 11 10 8 4 3 2 0 -2 -11 -14 -16 -19 -17 -18 -19 -14 -13 -21 -22 -26 -27 -29 -24 -25 -22 -22 -19 -17 -15
22 22 20 19 19 19 19 19 18 16 15 13 12 11 9 7 4 3 -5 -8 -10 -12 -13 -14 -16 -15 -17 -20 -19 -17 -15 -18 -23 -21 -29 -31 -31 -31 -27 -26 -23 -21 -18 -17

GFSNGP_sfc_dewp_051.txt.gz
Dewpoint
25 22 27 28 28 30 27 29 29 28 25 27 28 28 27 28 36 38 42 44 46 47 49 51 53 53 52 51 50 50 48 46 46 45 43 41 40 40 41 40 39 37 37 39
27 27 26 26 27 28 28 27 27 26 26 28 27 28 30 34 39 39 41 42 44 45 46 49 50 49 48 47 46 46 45 43 41 39 38 37 37 36 36 39 38 41 41 40
25 26 26 28 28 28 29 29 29 28 30 28 28 29 32 35 37 38 39 40 41 42 43 44 45 45 44 43 42 41 39 38 36 36 35 36 37 39 40 41 42 41 41 41
29 27 25 27 28 28 29 28 28 27 26 27 29 33 34 36 36 35 36 36 37 38 39 39 40 39 39 37 37 37 36 35 36 38 38 40 40 41 41 41 41 41 40 39
30 26 26 24 26 28 27 23 28 27 27 31 33 34 33 33 34 34 34 34 34 34 35 36 36 36 36 35 35 35 37 38 38 39 40 40 40 40 41 39 39 37 34 33
27 27 25 30 27 28 26 24 29 29 32 34 34 32 33 33 33 33 32 32 33 34 34 34 34 34 34 35 36 37 38 39 41 40 38 37 37 35 34 33 31 30 30 31
27 31 29 30 28 30 26 28 32 32 34 36 33 33 35 33 32 31 31 32 33 33 33 34 35 36 36 37 39 38 35 33 32 31 30 31 31 31 30 29 30 31 31 31
29 31 27 32 27 28 35 32 34 35 37 38 35 34 33 32 31 30 30 31 32 33 34 35 36 34 31 30 30 30 29 29 29 30 29 28 30 30 29 29 30 29 33 30
32 34 37 33 35 33 34 35 36 37 37 36 34 33 31 30 30 29 29 30 30 30 30 30 30 29 28 29 28 30 30 29 28 26 24 23 22 22 21 21 23 24 23 25
35 35 34 36 37 39 37 36 36 37 36 36 34 32 30 29 28 28 28 28 28 28 28 29 30 30 30 30 29 27 26 24 22 20 19 19 18 18 19 21 22 21 21 22
34 35 38 38 39 38 37 39 37 36 36 35 34 31 29 28 28 28 28 27 27 28 29 29 27 24 24 23 24 22 22 19 18 19 18 17 17 19 20 21 23 21 21 21
34 36 38 36 39 38 38 37 36 35 34 34 32 30 29 29 29 28 28 28 29 28 26 24 23 23 22 21 19 18 16 16 19 19 19 18 16 15 20 20 20 21 21 22
36 40 37 36 36 37 36 36 35 35 33 32 31 30 30 30 28 28 27 29 27 24 22 23 21 18 18 19 18 16 15 15 16 17 17 18 17 16 15 17 18 19 19 18
37 37 35 35 35 35 34 34 34 32 32 32 31 31 30 28 28 28 28 27 24 21 22 22 17 14 14 14 15 16 16 18 16 17 18 17 16 16 16 16 16 16 15 15
37 36 37 35 34 33 33 32 32 31 31 30 30 29 28 27 27 28 28 24 21 21 21 17 13 12 13 16 14 14 14 14 16 17 16 15 15 14 14 14 14 12 12 12
35 35 34 34 33 32 32 32 31 31 30 29 28 28 27 27 28 26 22 21 21 20 16 18 13 12 14 13 13 12 12 15 12 13 13 12 12 12 11 12 10 11 10 10
34 33 33 32 32 32 32 32 31 30 29 28 27 26 26 26 25 23 20 21 21 19 17 16 12 10 12 12 10 10 12 10 10 10 10 9 9 9 9 9 9 8 9 9
35 34 34 33 32 32 31 32 31 30 28 26 26 27 26 25 22 20 20 20 19 18 14 12 10 9 10 9 8 9 10 8 9 9 8 8 5 6 7 6 5 6 6 6
34 34 33 32 32 32 31 31 30 28 27 27 27 26 25 24 20 19 19 20 19 16 13 12 13 9 9 10 8 8 8 7 6 5 5 3 4 3 4 5 4 4 4 4
34 33 33 32 32 31 30 29 29 28 28 27 25 24 23 22 21 19 19 17 16 17 13 11 9 7 7 7 7 5 6 6 4 4 4 2 2 1 2 -0 -0 1 2 3
31 30 30 29 29 29 29 29 27 26 26 26 24 22 22 20 19 18 16 13 15 17 13 12 10 8 7 7 6 8 6 5 4 4 2 1 0 -1 -1 -0 -0 -0 0 1
31 29 29 28 28 28 28 27 25 25 23 22 22 21 20 18 18 19 19 16 15 17 14 13 10 8 7 7 7 8 5 3 3 3 2 0 -1 -2 -3 -3 -3 -2 -2 -1
29 29 28 27 26 25 25 24 24 23 22 21 21 21 20 18 17 16 14 15 15 15 14 14 9 6 4 9 9 7 5 2 2 1 1 -1 -2 -4 -5 -5 -6 -4 -4 -4
28 27 26 25 25 23 21 22 22 21 21 21 20 21 19 18 17 17 17 14 13 14 13 11 10 6 3 7 6 5 4 3 1 1 0 -8 -3 -5 -6 -8 -8 -6 -6 -6
27 27 27 26 23 22 21 20 19 18 19 18 18 18 17 16 18 16 15 14 12 11 11 6 4 0 6 6 5 4 3 3 2 0 -1 -3 -4 -6 -7 -8 -9 -9 -9 -8
23 22 23 24 23 22 22 21 19 18 17 17 17 17 16 16 14 13 12 11 10 8 10 7 5 4 4 3 3 1 1 2 1 -1 -3 -4 -6 -7 -9 -11 -11 -11 -10 -9
20 20 19 18 19 19 20 20 18 17 17 18 16 15 14 13 12 10 8 9 8 7 6 5 5 3 4 3 2 2 1 1 -2 -2 -3 -5 -7 -8 -11 -12 -12 -12 -11 -11

GFSNGP_sfc_dewp_054.txt.gz
Dewpoint
21 18 17 17 17 22 23 25 23 23 21 24 24 26 27 29 30 32 35 42 47 49 51 53 55 55 55 55 53 52 50 49 48 47 46 45 45 45 44 43 41 42 41 41
25 22 21 19 19 19 22 21 25 25 24 27 29 28 29 30 35 38 41 43 45 47 50 51 52 51 51 51 51 49 47 44 43 42 41 42 42 42 40 39 39 39 39 41
24 26 25 29 28 23 23 28 27 24 26 27 28 29 30 34 38 40 42 43 44 46 47 48 48 48 47 47 46 45 42 40 40 39 38 39 39 39 39 40 41 41 41 41
29 32 30 24 28 26 26 26 27 26 26 26 27 30 34 37 39 40 40 41 42 43 44 45 44 44 44 42 42 40 38 37 37 39 39 41 42 42 43 42 42 42 41 40
36 28 24 24 26 28 28 26 26 27 26 26 31 34 35 36 38 39 39 39 40 41 42 42 41 41 40 39 39 38 38 38 39 40 40 40 41 41 41 39 38 36 34 33
31 29 32 26 26 29 28 27 26 26 28 28 33 32 30 36 37 37 37 38 38 39 40 40 40 39 39 38 39 39 39 39 39 39 38 37 36 35 34 33 30 29 28 29
33 34 30 29 28 29 26 29 30 29 30 34 34 32 37 36 36 35 36 37 38 37 37 38 38 39 38 39 39 38 36 35 33 31 31 31 30 30 30 30 31 33 32 32
35 37 33 31 28 27 32 36 34 35 35 38 37 38 36 35 34 34 34 35 36 37 37 38 38 38 36 35 34 33 32 30 29 29 26 27 29 28 26 25 25 24 32 25
33 32 36 35 32 33 37 34 36 36 36 38 38 36 35 34 34 34 34 34 35 35 35 34 33 33 31 30 30 30 29 28 27 25 22 19 19 19 17 19 21 22 21 24
35 32 34 36 33 35 34 35 34 35 37 39 37 35 35 34 33 33 32 32 32 32 31 31 30 29 29 29 27 27 25 23 21 16 16 15 14 14 15 20 20 19 20 21
36 36 36 37 37 36 37 38 37 36 38 37 36 35 34 33 32 31 31 31 31 31 30 28 27 26 26 25 25 20 18 15 16 17 15 14 13 16 18 20 21 21 21 20
36 36 39 35 37 39 38 38 37 37 37 37 35 34 33 32 32 30 30 30 30 29 26 24 23 22 20 19 17 15 13 14 19 19 19 15 12 14 20 19 18 19 19 20
36 39 39 39 37 39 39 38 38 38 37 36 34 33 32 32 31 30 30 30 28 26 24 22 20 18 16 17 15 15 13 14 16 17 17 16 16 16 16 19 16 16 15 16
40 38 37 36 36 38 38 38 38 37 36 35 33 32 32 31 30 30 30 28 25 24 21 18 15 13 14 14 15 16 15 17 16 17 16 18 17 17 17 18 19 18 14 13
39 38 38 37 36 36 36 35 35 34 34 33 33 32 32 30 29 30 28 24 23 22 19 14 10 11 13 16 12 12 13 14 17 20 19 17 18 18 17 17 17 15 15 13
39 37 36 36 35 35 35 34 34 34 34 33 32 31 30 30 29 28 24 23 23 20 15 19 14 13 15 12 10 11 13 14 14 16 16 16 16 16 14 15 14 14 14 14
37 37 37 36 35 35 35 35 35 34 33 32 32 31 30 29 26 23 23 23 23 21 19 17 12 11 13 10 7 10 12 11 12 13 14 13 14 14 13 14 13 12 14 14
38 37 37 37 36 36 35 35 33 32 32 32 30 31 28 27 24 24 22 21 21 18 13 11 10 10 8 8 7 10 12 12 13 14 13 15 11 11 12 12 11 10 12 10
36 36 36 35 35 35 34 33 33 31 30 29 29 28 26 26 26 23 22 21 19 15 12 12 14 10 8 10 8 12 12 14 12 10 12 8 13 10 11 11 10 10 9 9
34 34 34 34 34 34 31 30 29 30 30 27 26 25 24 24 24 23 22 21 17 15 13 12 8 8 7 8 7 8 11 14 10 12 13 10 12 11 10 6 6 9 10 10
32 32 31 30 30 30 30 30 28 27 29 29 27 25 23 23 23 22 20 17 16 15 12 13 10 9 7 7 7 14 14 14 13 12 11 11 10 9 8 8 8 8 9 8
30 29 29 29 28 28 29 29 28 28 27 26 25 24 23 22 22 21 21 17 17 16 14 13 11 10 9 7 10 14 12 10 10 10 10 9 8 7 7 7 6 6 7 7
30 29 29 28 27 27 27 27 27 26 25 24 24 24 23 22 20 18 16 16 17 16 15 16 12 10 8 15 15 14 12 9 9 8 8 8 7 6 5 4 4 4 5 5
28 28 28 29 28 26 23 24 24 23 24 24 23 22 20 20 20 19 18 17 16 16 17 15 13 10 6 14 12 11 9 10 9 9 7 2 6 5 4 3 1 2 2 2
28 28 27 26 24 23 23 23 22 22 21 20 20 19 19 20 22 20 20 17 15 15 16 11 9 4 12 12 10 9 8 8 8 8 6 6 4 3 3 2 0 0 -1 -1
24 23 23 24 24 23 23 23 21 22 22 21 21 22 22 21 19 19 18 16 15 12 15 14 13 11 11 9 8 7 7 7 6 6 4 4 3 2 1 -0 -1 -2 -1 -1
20 21 20 19 20 19 20 21 20 20 21 22 20 20 19 19 18 17 15 16 15 14 13 13 12 9 9 8 7 7 6 6 4 3 3 3 2 1 0 -1 -2 -3 -3 -4

GFSNGP_sfc_dewp_057.txt.gz
Dewpoint
21 20 18 18 20 21 21 22 24 23 21 21 22 23 23 26 28 28 29 36 39 41 46 51 53 55 56 55 54 53 52 50 50 49 48 48 47 46 46 45 43 42 43 42
23 21 19 17 15 15 16 18 18 19 19 21 21 23 27 28 28 30 30 34 42 45 50 53 54 54 54 52 51 50 49 46 46 46 46 47 46 45 44 43 42 42 41 41
27 22 21 27 21 18 18 19 20 21 22 23 23 23 27 27 31 33 38 40 43 47 51 52 51 52 52 50 49 47 45 45 44 44 43 43 42 41 41 41 42 42 41 41
32 33 30 25 23 22 22 21 20 20 21 23 21 22 28 31 33 39 41 43 46 48 48 48 48 47 47 46 45 44 42 41 41 41 41 41 41 42 43 43 43 43 42 41
34 29 25 21 25 25 23 21 22 22 23 23 23 32 34 35 38 41 42 43 44 45 45 45 44 44 43 42 41 41 40 41 41 42 41 41 41 41 41 41 40 37 34 33
35 29 27 27 25 26 26 28 25 24 25 24 29 32 27 36 40 41 41 41 41 42 42 42 42 42 41 40 40 40 40 40 40 40 40 40 39 38 35 33 30 28 27 28
36 32 28 25 25 26 28 30 27 25 26 27 29 30 37 38 39 38 38 39 41 41 40 40 41 41 40 40 39 40 39 39 37 36 35 35 33 31 29 28 30 33 30 30
37 36 33 32 29 28 33 35 31 31 30 33 35 39 38 38 37 37 37 38 38 39 39 40 40 40 39 38 37 36 35 33 32 30 26 27 29 27 24 23 25 25 27 26
33 33 35 36 35 34 33 32 35 35 33 35 39 38 37 36 36 36 36 36 37 38 39 39 39 38 36 34 34 34 32 30 27 24 21 19 19 20 17 19 22 23 21 24
34 34 34 34 36 36 35 35 35 35 34 37 40 38 36 36 36 36 36 36 37 38 37 36 35 33 33 32 31 29 27 25 21 19 17 15 13 13 16 22 21 20 21 21
32 30 32 33 37 38 37 36 36 35 35 37 39 37 36 35 35 35 35 35 35 35 34 32 31 31 30 28 27 23 21 17 18 17 15 15 14 16 19 22 21 21 22 20
33 29 39 37 37 39 38 37 38 36 36 38 37 36 36 35 35 34 34 34 33 33 32 30 29 27 26 25 21 18 16 17 22 22 20 14 12 18 20 20 19 19 19 19
33 36 37 39 39 37 37 38 38 37 36 37 37 36 35 35 35 34 33 33 33 31 28 26 24 21 18 18 18 18 18 18 19 20 18 17 17 17 17 21 19 20 17 15
36 38 39 38 35 38 39 39 39 37 37 37 37 36 35 34 33 32 32 32 30 27 25 22 19 17 17 16 17 18 17 22 17 17 17 18 18 19 19 19 21 21 19 14
39 39 40 39 37 37 38 39 38 37 37 37 36 35 34 33 32 32 32 29 26 24 21 16 14 12 14 19 15 16 15 16 19 22 21 19 19 19 19 18 18 17 16 17
39 39 39 39 37 37 37 37 37 39 38 36 35 35 34 32 32 30 28 27 25 22 15 21 17 16 17 12 12 13 13 17 18 17 17 17 17 17 16 17 16 17 16 16
40 40 40 39 38 37 36 37 36 37 36 35 36 35 32 32 30 27 25 23 24 24 22 20 15 14 15 11 9 12 14 12 15 14 15 14 15 16 15 16 16 15 16 17
40 39 39 40 40 39 37 38 37 36 36 36 36 34 32 30 26 24 24 23 23 22 19 18 16 12 10 9 9 12 13 13 14 16 14 16 14 13 14 14 14 13 14 13
38 38 38 37 38 38 37 36 36 34 32 31 30 28 27 25 24 23 23 23 21 19 19 19 17 11 10 12 10 13 14 14 13 12 14 11 15 14 14 15 13 13 12 12
34 35 34 33 34 33 31 31 31 30 30 28 26 26 24 24 24 23 25 23 23 21 19 14 10 10 9 10 7 11 14 16 12 14 16 12 14 14 14 10 10 12 13 13
30 30 30 29 29 30 30 29 28 28 28 27 25 24 23 25 25 24 22 19 20 18 15 13 11 10 8 8 8 16 16 16 14 13 13 14 13 13 12 12 12 12 12 12
30 30 30 29 29 29 30 30 28 27 26 25 25 24 24 23 23 24 25 20 18 16 14 14 12 12 10 8 11 16 13 12 12 13 13 13 12 11 11 11 10 10 10 10
30 29 28 28 27 27 28 28 27 27 26 25 25 25 24 23 23 21 19 19 18 18 16 17 13 12 10 16 16 15 14 12 12 11 12 12 11 10 10 9 8 7 7 7
29 29 28 29 28 26 24 25 25 25 25 25 25 25 23 22 23 22 22 21 17 18 19 16 14 11 8 16 15 14 12 12 12 12 11 9 10 10 9 7 6 7 5 4
28 28 27 27 25 25 24 24 23 23 22 22 23 23 23 25 23 21 21 19 16 18 18 12 11 7 14 15 14 12 11 11 12 11 9 10 9 8 7 7 5 5 3 2
24 23 23 25 25 25 25 23 23 24 23 22 23 23 23 22 21 20 20 18 17 14 18 16 16 14 14 13 12 10 10 9 10 10 9 7 7 6 6 4 4 3 3 2
21 21 20 19 21 20 21 21 20 19 22 23 20 21 20 20 19 18 18 18 17 15 15 15 14 12 10 10 10 10 10 10 9 7 6 5 5 5 4 3 3 2 0 -0

GFSNGP_sfc_dewp_060.txt.gz
Dewpoint
25 21 22 22 21 20 19 30 33 30 22 23 24 26 28 31 31 31 30 35 38 44 49 51 53 57 56 55 54 54 53 51 50 49 50 48 47 47 46 45 44 43 43 43
27 23 21 23 23 19 19 19 20 21 22 23 23 24 23 29 29 29 28 30 37 42 48 51 56 55 54 52 51 50 50 49 49 49 48 48 46 45 44 43 43 43 42 41
28 26 23 24 23 20 19 21 21 21 24 23 22 23 27 27 30 30 32 35 39 44 50 54 54 53 52 50 50 48 47 47 47 48 46 46 45 44 43 43 43 42 41 41
32 33 25 26 26 22 22 21 19 18 19 20 21 24 29 30 32 35 39 41 43 51 53 53 53 51 50 49 48 47 46 45 44 44 43 43 42 42 43 43 43 43 42 42
33 29 28 25 25 25 24 23 23 22 21 20 22 32 35 35 39 41 43 45 48 50 50 50 49 49 47 46 44 43 42 42 42 42 42 42 42 43 43 42 42 41 41 37
37 29 27 31 29 26 28 26 26 25 28 27 29 34 32 37 40 43 44 44 46 47 46 46 46 44 43 42 42 41 42 42 42 42 42 41 41 41 41 39 34 31 31 34
35 34 33 29 29 29 27 30 34 30 30 31 33 35 40 39 42 42 42 43 44 44 43 43 43 42 41 41 41 41 41 41 41 40 40 39 37 35 33 32 35 33 31 29
36 35 32 34 30 27 34 38 39 35 36 43 42 41 39 40 41 40 39 40 41 42 42 42 41 41 40 40 40 40 40 38 36 36 32 31 32 31 29 30 29 29 27 28
36 35 40 41 37 39 41 41 40 39 37 40 42 40 39 39 39 38 38 39 40 40 41 41 41 40 39 39 37 36 35 33 30 28 28 27 27 25 24 26 26 27 26 28
35 35 37 41 40 40 41 41 37 38 37 40 42 40 39 39 38 38 38 38 38 39 40 40 40 39 37 36 35 34 31 29 26 23 20 20 16 19 25 26 26 26 27 25
36 36 36 35 35 39 42 41 40 38 40 38 42 39 38 37 37 37 37 37 38 39 40 39 38 35 34 34 33 29 27 23 21 21 21 19 19 21 24 22 24 25 24 23
35 35 37 37 34 36 38 35 39 39 39 38 41 39 38 37 37 37 37 38 38 38 37 34 33 32 32 31 28 25 21 21 27 26 23 19 18 17 24 21 21 21 20 21
27 30 37 39 39 41 40 41 40 41 40 38 40 39 38 37 37 36 37 37 36 35 33 32 30 29 28 27 25 24 23 23 25 25 24 22 23 24 21 21 20 21 19 17
29 32 36 40 40 41 41 40 41 40 41 40 40 39 38 37 37 36 35 35 35 32 29 26 23 20 21 21 23 23 22 26 23 23 23 25 23 23 23 24 23 22 20 18
31 38 41 43 40 39 39 39 40 40 40 40 41 39 38 36 35 35 35 32 29 27 24 20 18 16 18 23 17 18 20 22 25 25 23 23 23 23 23 22 22 21 22 21
41 42 39 42 40 39 39 39 38 40 40 40 39 39 37 36 34 32 29 29 26 24 21 22 20 20 23 18 16 17 18 22 23 22 20 22 22 21 21 21 21 21 20 20
40 40 40 41 41 41 39 39 38 39 39 39 39 37 34 33 29 25 22 21 22 21 21 21 18 16 20 20 19 20 17 20 19 18 19 19 20 20 19 20 20 19 18 15
39 39 40 39 40 41 39 40 39 39 38 35 33 31 29 25 23 22 21 21 21 21 21 19 17 18 18 19 19 19 21 20 19 19 18 19 17 16 18 18 17 17 17 16
35 36 36 36 37 36 34 33 32 32 30 29 27 25 24 23 23 22 22 21 21 19 21 23 22 21 20 21 21 21 20 17 16 15 16 13 17 17 17 17 17 15 14 14
30 31 31 31 31 31 29 29 28 27 26 25 24 23 22 23 23 23 23 21 22 21 22 22 20 18 17 16 16 17 18 18 15 17 18 14 16 17 16 14 14 14 14 14
29 29 28 28 28 28 28 28 26 25 26 25 23 23 23 23 23 22 20 17 20 22 21 21 19 16 11 10 14 19 18 18 17 16 16 16 16 15 15 14 14 14 13 13
29 28 28 27 27 26 27 27 26 25 25 24 24 24 23 23 22 21 21 19 20 21 20 19 16 15 12 14 14 18 15 14 15 15 15 15 14 13 12 12 12 11 12 9
28 27 26 25 25 25 25 26 25 25 24 24 24 23 23 23 22 19 17 21 22 23 20 16 14 13 12 18 18 17 16 15 14 14 14 14 13 13 11 11 10 9 8 8
27 27 26 26 26 24 23 25 25 25 25 25 25 25 24 21 22 23 23 22 22 20 17 16 14 12 10 17 17 16 15 15 14 14 14 12 13 12 12 10 8 8 6 5
26 27 27 26 25 24 25 25 24 24 24 23 23 23 23 25 23 22 21 19 20 19 15 12 11 9 15 16 15 13 13 12 12 10 9 7 8 8 8 8 7 6 3 -1
23 22 22 23 24 24 23 23 23 24 22 21 22 23 23 23 22 21 20 18 17 17 17 16 15 14 14 14 12 11 12 12 11 10 9 8 7 6 6 7 6 5 3 2
19 20 19 19 19 19 19 20 18 18 21 21 19 20 21 21 19 19 19 17 17 16 16 15 16 12 11 10 9 10 9 9 9 9 7 6 6 5 5 5 4 3 0 -1

GFSNGP_sfc_dewp_063.txt.gz
Dewpoint
27 25 27 27 26 24 24 29 32 32 32 32 32 28 27 29 30 30 33 40 44 46 47 55 55 53 54 54 54 54 53 51 50 49 49 48 47 46 46 45 44 44 44 44
25 27 26 25 26 27 25 23 32 33 33 30 29 25 26 28 29 28 29 35 42 47 52 55 54 52 52 51 51 51 50 49 48 48 47 46 45 45 44 43 43 43 43 42
25 27 27 25 26 25 26 27 25 29 30 27 25 24 26 27 30 30 28 29 40 48 54 55 53 51 50 49 49 49 49 49 48 47 46 45 44 43 43 43 42 41 39 40
29 30 23 27 27 27 27 25 23 21 22 22 22 23 27 28 31 31 34 37 51 51 55 53 52 50 50 48 48 48 47 48 47 46 44 44 43 42 42 41 40 39 39 40
29 27 27 27 26 28 27 26 24 22 22 22 22 32 32 35 35 39 40 45 52 53 53 51 50 49 48 47 47 46 45 45 44 43 41 42 41 42 43 42 41 41 41 35
32 27 24 30 31 33 30 25 28 31 28 29 29 29 30 36 43 44 45 49 50 50 50 50 49 48 47 46 44 43 43 42 42 42 42 42 42 41 41 41 40 34 32 30
33 32 33 35 32 34 28 28 32 32 32 32 30 33 35 42 43 44 44 46 47 47 47 47 46 45 43 42 41 42 42 42 42 42 41 41 40 37 35 33 30 28 29 29
34 30 29 38 35 29 33 36 35 34 34 36 38 39 40 42 42 43 43 44 44 44 44 43 43 42 41 41 42 42 42 41 40 40 38 35 32 31 31 29 27 26 27 27
32 33 39 42 39 40 41 39 40 39 37 41 42 39 41 41 41 41 41 42 42 42 42 42 42 41 40 40 41 40 39 37 35 33 31 29 26 26 26 27 25 26 25 25
35 36 36 37 43 44 43 43 41 38 40 41 43 41 40 40 40 39 39 40 40 41 41 41 41 40 40 39 37 36 34 30 28 25 24 22 23 25 25 25 23 25 25 23
36 36 38 37 37 42 40 42 41 40 37 39 42 41 40 40 39 38 39 39 40 40 40 40 40 38 37 36 35 30 28 25 22 22 21 21 24 23 22 23 25 23 23 23
35 39 37 35 35 41 43 41 40 41 40 38 41 40 39 38 38 38 39 38 39 40 40 36 35 34 34 33 30 27 22 21 25 24 22 19 21 19 21 23 24 23 23 22
27 29 29 33 38 41 41 41 41 41 41 41 41 42 39 38 38 37 38 39 39 38 33 32 31 30 30 29 27 26 25 25 25 24 23 22 20 19 19 22 22 21 20 19
35 37 32 32 38 40 40 40 41 41 41 40 39 40 39 38 38 38 38 36 32 29 24 21 20 21 23 24 24 23 23 26 24 23 23 24 23 24 22 21 21 22 21 19
41 42 42 40 40 39 38 38 38 39 40 40 40 39 38 37 36 34 31 28 24 21 19 18 18 18 21 23 22 23 24 24 24 23 24 24 24 23 23 23 23 22 22 21
40 41 40 41 41 40 37 38 37 38 39 39 38 35 31 30 28 27 26 25 22 21 20 22 21 20 20 19 19 21 22 25 24 24 24 24 24 24 23 22 21 21 20 19
38 38 39 39 40 40 39 39 39 38 35 34 30 26 25 23 21 20 19 20 19 18 18 19 20 22 24 24 22 22 22 23 24 25 23 22 22 21 20 20 20 19 17 14
36 35 35 35 36 35 34 34 32 31 29 27 25 25 23 21 20 20 21 21 20 19 20 22 23 24 24 25 25 24 23 23 23 22 22 21 19 17 19 18 18 17 16 14
32 32 32 32 32 31 30 28 27 26 26 24 23 21 21 21 21 22 22 22 20 18 19 21 22 21 22 23 23 22 21 21 20 19 18 16 17 17 17 16 15 14 14 14
28 28 28 27 27 27 26 25 25 25 25 23 23 22 22 23 22 20 19 18 19 19 21 20 20 19 19 21 21 21 20 19 18 18 17 14 14 14 14 14 14 12 11 11
26 26 26 25 25 25 25 25 24 23 24 23 21 20 20 21 20 19 17 15 19 21 21 20 19 18 18 19 20 19 18 17 16 16 15 14 13 13 12 11 10 10 8 9
25 24 24 24 23 23 24 24 23 23 23 22 22 21 19 18 18 18 19 17 20 21 19 17 16 16 16 18 19 18 17 16 15 15 13 11 9 7 6 6 6 6 5 2
25 25 24 23 22 23 23 23 23 22 21 21 21 21 20 20 20 17 16 21 19 17 16 15 14 14 15 18 16 15 14 12 12 12 10 8 8 7 5 3 3 1 -3 -3
25 25 24 24 23 21 21 23 23 23 22 23 23 22 21 18 19 20 19 17 17 15 14 13 11 10 11 14 13 10 7 4 4 5 6 3 1 3 7 3 1 0 -1 -4
21 21 23 22 22 22 23 22 21 21 20 20 20 20 20 20 17 18 18 18 15 12 10 8 8 8 12 11 10 5 3 4 5 -1 2 2 2 -3 -7 -1 2 0 -5 -7
19 18 18 18 19 19 18 19 19 19 18 17 18 18 19 19 18 17 16 15 15 14 13 7 7 5 3 2 -1 1 1 4 5 5 1 -0 -6 -9 -6 0 -2 -3 -6 -10
16 17 16 15 16 14 15 15 14 14 16 14 13 15 14 14 15 14 12 12 10 10 9 10 9 8 7 6 3 -3 -5 -8 -8 -3 -5 -11 -13 -15 -8 -5 -6 -10 -15 -18

GFSNGP_sfc_dewp_066.txt.gz
Dewpoint
24 23 24 26 26 23 24 27 28 29 32 32 33 31 33 33 27 32 33 40 42 45 54 54 54 55 55 57 57 55 55 56 53 53 53 52 51 50 49 48 48 47 45 45
27 26 23 22 24 27 26 26 27 29 29 31 30 32 32 29 29 27 32 37 43 47 54 53 53 54 54 56 55 54 53 51 50 50 49 49 49 47 46 45 45 44 44 44
29 27 24 26 27 27 27 28 30 31 33 32 30 32 31 28 29 28 30 34 44 49 54 53 52 52 52 53 52 52 51 50 49 48 47 47 46 46 44 44 44 43 43 42
31 27 24 27 28 27 27 26 25 27 31 32 31 31 30 28 28 29 30 31 43 49 54 53 51 50 50 51 51 50 49 48 48 47 46 45 44 43 43 42 42 41 40 39
31 26 28 29 27 26 26 26 27 25 23 23 24 29 30 33 32 33 33 39 45 51 53 51 50 49 49 49 49 49 48 47 47 45 44 43 43 42 41 40 39 39 38 35
32 29 23 28 29 32 33 27 29 29 29 28 30 28 29 34 39 42 46 52 52 52 50 50 49 48 48 47 47 47 47 47 45 44 43 42 42 41 40 40 40 39 33 30
32 31 32 36 37 35 28 27 35 34 33 31 30 32 31 39 43 46 49 51 51 51 50 49 48 47 46 45 45 45 44 43 42 42 42 41 41 41 39 35 34 31 28 28
32 30 26 38 37 33 35 37 39 39 38 36 34 37 39 42 43 46 47 48 49 49 48 48 47 45 43 43 42 42 42 42 42 42 41 41 38 35 31 29 29 27 27 26
34 31 37 40 41 44 44 42 42 41 40 41 39 38 41 42 43 45 46 46 46 45 44 44 43 43 42 42 42 42 42 40 39 37 36 33 33 31 29 27 27 27 26 24
34 33 35 37 40 40 43 40 40 43 41 40 40 39 40 42 42 42 43 43 43 43 42 41 42 41 41 41 41 40 36 34 32 31 26 26 27 28 27 26 26 26 25 24
34 35 37 38 38 38 38 40 41 41 41 40 40 42 40 42 41 41 42 41 42 42 41 40 40 40 40 39 37 33 29 27 26 25 25 23 21 23 24 26 26 25 24 24
32 36 37 37 33 37 39 36 36 41 42 40 40 41 41 41 40 40 40 40 41 41 40 39 38 36 36 34 31 27 23 24 24 24 24 19 17 19 26 26 26 26 25 24
36 38 40 36 35 37 39 41 41 41 42 40 40 41 40 41 39 38 39 40 40 36 35 33 31 30 30 29 27 26 24 23 24 23 22 21 20 20 20 23 23 22 22 23
40 41 38 37 33 39 39 39 40 40 40 40 40 41 40 39 39 39 38 34 28 25 24 25 25 25 27 26 26 26 24 25 24 24 24 24 24 24 23 22 22 22 22 22
37 40 40 41 40 38 38 38 38 38 39 38 38 38 38 35 31 28 25 22 21 20 20 21 22 23 25 25 24 23 22 24 25 25 25 25 25 25 25 24 24 24 24 23
37 37 39 39 40 39 38 38 38 36 33 30 28 27 26 25 24 23 23 24 23 21 20 21 20 23 25 26 26 26 25 26 26 25 25 24 24 24 24 24 23 22 21 19
36 35 35 36 37 35 34 33 33 30 28 26 25 24 22 20 19 19 19 21 23 23 24 24 25 26 26 27 26 25 25 25 24 24 24 23 23 22 22 21 21 20 18 17
33 33 34 34 33 32 30 29 27 26 25 24 23 23 22 20 19 19 21 22 21 21 22 24 24 24 25 25 24 24 24 23 23 22 22 20 20 20 20 19 19 17 16 15
30 30 30 29 29 27 26 25 24 24 23 22 22 21 22 22 22 21 21 19 18 17 18 21 23 22 22 23 22 22 21 20 20 19 19 18 18 18 17 17 15 15 15 15
25 25 24 24 25 25 24 25 24 24 24 22 20 19 18 18 19 18 17 16 17 18 19 19 20 20 20 20 21 20 19 18 18 17 16 15 15 14 14 15 15 14 12 12
24 24 23 23 23 23 23 24 22 21 21 21 19 18 18 19 19 18 16 14 18 19 19 18 18 18 19 19 18 17 17 16 15 15 14 13 13 12 11 10 10 9 8 7
23 22 22 22 22 21 23 23 22 22 21 20 19 18 17 17 17 18 18 15 17 17 16 15 16 17 18 18 17 16 15 14 13 13 11 11 9 8 7 7 5 5 3 1
23 23 22 22 21 21 22 22 22 21 20 20 19 19 18 19 19 15 12 16 15 15 14 13 15 16 15 14 13 11 11 10 9 8 6 4 3 3 4 4 2 -1 -3 -5
24 24 23 24 22 20 18 20 20 20 20 20 19 19 18 15 16 16 16 14 13 12 12 13 13 11 10 9 8 7 6 5 4 0 0 -5 -11 -12 -11 -12 -9 -8 -5 -4
18 18 19 19 18 19 20 20 18 18 18 18 18 19 18 17 15 15 14 13 13 11 10 8 7 6 5 4 3 3 0 -1 -4 -6 -8 -12 -15 -18 -18 -15 -12 -8 -8 -9
17 16 15 16 16 16 17 16 14 15 14 12 12 13 15 16 15 13 12 11 11 9 9 7 5 3 2 1 -3 -7 -9 -6 -6 -7 -16 -18 -19 -18 -18 -16 -17 -16 -16 -18
14 15 12 11 12 13 13 12 10 9 9 7 6 8 9 10 9 8 6 5 3 2 -0 -3 -5 -5 -6 -12 -12 -12 -13 -14 -13 -15 -21 -23 -21 -21 -21 -22 -23 -25 -26 -22

GFSNGP_sfc_dewp_069.txt.gz
Dewpoint
35 32 28 24 24 24 23 25 24 24 26 27 29 30 31 31 33 29 30 35 40 41 44 47 50 51 52 52 54 54 53 54 54 55 56 58 57 55 52 52 51 50 48 47
33 31 27 24 23 25 25 25 25 26 28 33 33 32 32 33 32 29 30 33 40 43 52 52 52 51 51 53 54 55 55 55 56 55 55 55 53 51 50 49 48 47 46 45
30 33 32 28 27 23 23 28 27 26 29 31 31 31 32 32 33 32 29 31 39 44 52 53 53 53 53 55 55 55 55 53 53 53 51 50 50 49 48 47 46 45 45 44
32 31 27 32 30 27 26 25 28 29 30 31 32 32 32 33 32 31 30 30 35 44 52 52 51 54 54 54 54 53 52 51 50 50 49 48 48 46 45 45 44 43 43 43
28 28 30 26 30 29 27 26 28 27 27 26 26 28 26 30 31 32 32 31 33 43 52 50 52 52 52 52 52 51 50 50 49 48 47 46 45 44 44 44 44 42 42 41
31 27 23 21 31 29 32 27 30 28 30 29 29 26 28 29 34 33 34 43 49 51 50 50 49 51 51 51 51 50 49 48 48 47 45 44 44 43 42 42 41 39 35 35
31 30 29 34 33 37 32 29 36 36 34 30 29 31 31 34 38 41 46 50 50 50 50 49 49 49 49 50 49 49 49 47 46 45 44 44 42 41 41 40 35 32 28 29
32 29 22 38 39 38 37 40 41 40 39 40 39 38 38 38 39 46 49 50 50 49 48 48 48 48 47 47 45 46 45 44 43 43 43 42 40 38 37 35 30 29 27 27
30 30 35 35 39 41 44 43 42 42 41 40 39 38 39 41 43 45 47 49 50 48 47 47 48 47 45 42 43 43 43 42 42 42 41 39 36 33 32 31 30 28 26 25
34 32 34 33 37 41 43 42 42 42 41 40 39 40 40 40 43 43 45 45 45 46 45 43 43 43 43 42 42 42 41 39 37 34 32 33 32 30 29 29 28 26 25 23
29 30 34 37 37 37 38 40 40 41 40 39 39 39 41 41 43 43 44 44 44 44 43 41 41 42 42 42 40 37 35 32 30 29 26 25 25 26 26 27 28 26 25 23
30 38 39 34 37 37 38 38 38 40 40 40 39 39 40 40 41 42 42 43 42 41 41 40 40 39 39 39 35 32 28 28 28 26 25 23 23 23 28 28 28 27 26 25
38 39 39 42 37 37 37 38 40 41 40 40 40 39 39 40 41 39 41 41 40 38 37 35 33 32 32 32 31 30 26 26 25 23 22 21 21 21 20 23 25 25 25 24
37 40 40 40 40 40 39 39 40 40 40 37 39 40 40 40 37 34 31 30 28 28 27 26 26 26 28 27 26 26 25 26 24 23 23 23 23 23 23 22 21 22 24 23
35 38 39 41 38 37 39 40 38 34 32 30 29 31 30 26 24 24 23 23 23 24 24 25 25 25 26 26 25 25 25 25 26 26 26 26 26 25 25 24 23 23 24 24
34 37 36 38 37 35 34 33 31 29 27 25 24 23 22 22 22 23 23 23 25 24 25 26 26 27 27 26 27 27 27 27 27 26 26 25 25 25 24 24 24 23 23 21
32 33 33 34 34 32 30 29 28 26 25 24 23 22 21 22 22 22 23 24 24 24 25 25 25 26 26 27 26 25 25 25 25 24 23 23 22 22 22 21 21 20 18 19
30 30 30 30 30 28 26 26 25 24 23 22 22 22 21 21 20 20 21 20 20 20 21 23 23 24 24 24 24 23 22 22 21 20 19 19 19 19 19 18 18 17 16 16
26 25 26 25 26 25 25 24 24 24 23 21 20 19 19 19 19 19 19 17 17 16 18 21 23 21 21 22 21 21 20 19 19 18 17 17 17 17 16 16 15 15 15 15
22 23 23 22 23 22 21 22 23 22 22 21 19 18 16 17 17 16 16 14 16 17 19 19 20 19 19 19 19 18 17 17 16 15 15 15 14 13 14 13 13 12 12 11
21 22 22 21 21 22 21 21 19 18 19 19 17 16 16 17 17 16 13 11 15 17 18 18 18 18 18 18 17 16 15 14 13 12 12 11 11 10 9 9 8 6 5 5
22 21 20 20 19 19 21 21 20 19 19 18 18 17 15 14 14 13 14 13 15 16 16 16 15 15 14 14 13 12 11 10 9 8 7 6 4 2 -0 -1 -1 2 -1 -4
22 21 21 19 18 19 19 19 19 18 17 17 16 15 15 15 15 11 9 14 14 14 13 12 11 10 10 10 9 8 6 5 4 2 1 -1 -2 -4 -4 -4 -6 -8 -12 -8
20 21 20 21 19 17 16 18 18 18 17 17 16 17 14 12 12 13 13 12 10 9 8 7 7 7 6 5 4 3 2 -0 -3 -4 -5 -8 -11 -12 -12 -17 -17 -20 -17 -13
17 17 18 17 17 16 17 17 15 14 13 14 15 15 14 14 11 12 11 10 10 6 5 3 3 2 -0 -1 -4 -5 -6 -7 -9 -10 -15 -21 -23 -24 -24 -22 -22 -21 -21 -21
15 13 13 14 14 14 13 12 10 10 10 8 9 10 10 10 9 8 6 5 4 1 0 -2 -3 -4 -6 -8 -10 -12 -11 -10 -15 -19 -23 -24 -24 -23 -25 -24 -26 -26 -28 -29
12 12 11 10 10 10 9 7 6 5 4 3 2 6 6 4 2 1 -2 -4 -6 -8 -10 -13 -13 -12 -13 -17 -16 -19 -20 -20 -22 -22 -28 -27 -27 -29 -29 -29 -30 -32 -32 -29

GFSNGP_sfc_dewp_072.txt.gz
Dewpoint
36 36 34 33 31 28 23 24 23 24 24 26 27 27 27 30 32 32 31 30 37 44 46 50 50 50 50 50 50 51 50 50 50 50 50 50 53 55 55 56 56 56 54 52
33 35 33 31 32 28 26 25 24 25 25 27 28 28 29 30 30 32 31 31 32 39 43 48 50 51 50 51 51 51 51 51 51 51 52 53 54 55 56 56 55 52 50 49
27 34 31 26 30 28 27 26 26 25 27 29 30 32 33 32 33 33 33 32 32 36 41 44 47 50 51 51 53 52 51 51 52 52 53 54 55 54 52 52 50 48 46 46
28 30 23 25 34 27 30 30 28 26 28 29 29 31 32 33 32 33 33 33 32 35 41 48 51 51 51 52 53 53 53 53 54 54 54 51 50 50 49 48 48 47 45 45
24 27 26 24 22 30 27 26 26 30 29 28 28 28 26 30 34 34 34 34 34 34 40 49 52 52 53 53 53 53 54 53 53 53 50 49 48 46 46 46 45 44 43 43
31 25 21 21 27 32 32 22 33 36 34 30 28 28 29 30 30 32 33 33 33 39 49 50 51 53 53 53 53 53 52 51 50 49 48 47 46 44 45 44 42 41 40 40
30 28 28 31 37 38 29 24 40 40 39 38 30 31 32 37 37 37 42 44 47 49 49 50 52 52 52 51 51 51 50 49 48 48 47 46 44 43 42 39 36 34 33 33
31 29 25 34 39 35 38 38 39 41 41 39 39 39 39 39 40 42 46 49 50 48 48 50 50 51 51 50 49 49 48 47 47 46 44 42 41 40 37 35 33 32 30 29
29 28 33 35 34 39 41 36 38 41 42 42 39 38 39 39 41 44 47 47 49 48 47 48 49 49 48 46 47 45 44 44 43 42 41 40 38 36 35 33 31 30 28 26
31 26 31 30 35 38 41 41 39 40 43 43 40 39 39 40 41 43 45 47 47 46 46 45 46 45 44 44 44 44 42 41 39 38 36 36 36 35 34 32 30 28 27 24
28 29 35 32 33 38 39 40 43 44 42 40 39 38 39 41 42 43 44 45 45 44 44 43 43 43 43 43 43 40 37 35 34 32 30 28 28 30 31 31 31 28 27 25
28 37 36 37 39 41 41 39 39 41 41 40 40 39 39 37 41 42 43 44 44 42 41 41 41 41 41 40 38 35 32 31 31 30 29 28 27 27 30 29 29 28 27 25
36 37 37 38 40 39 40 41 40 38 35 35 37 40 41 39 39 37 36 35 34 34 33 33 32 31 33 34 34 32 31 29 28 27 26 25 25 25 23 27 29 29 29 28
37 37 37 38 39 37 36 38 35 31 30 28 28 28 27 26 26 26 26 28 28 27 27 26 26 26 28 28 28 28 28 28 28 27 26 26 25 25 25 23 22 23 26 26
33 35 38 37 36 33 32 32 30 29 28 25 26 24 24 24 24 25 26 26 26 27 27 27 26 26 28 28 28 27 27 26 26 27 27 26 26 25 25 23 23 22 24 25
31 33 34 35 34 30 29 28 27 25 25 23 24 23 23 23 23 24 24 25 25 25 25 26 26 28 28 28 27 27 27 27 27 26 26 25 25 25 25 24 24 23 22 21
30 31 31 31 31 28 27 26 25 24 22 22 22 22 21 21 20 20 21 21 21 22 23 23 24 26 26 26 25 25 24 23 23 22 22 22 21 21 21 20 19 18 17 18
28 27 27 27 27 26 24 24 23 23 22 21 21 20 19 19 18 19 19 19 18 18 20 21 22 22 22 23 22 21 20 20 19 19 19 18 18 18 17 17 16 15 16 16
25 25 25 25 24 23 22 21 21 21 21 20 17 17 17 16 17 17 17 16 16 15 17 19 21 19 19 21 20 19 18 17 17 17 16 15 15 15 14 14 13 13 13 13
22 23 22 21 21 20 20 21 21 20 20 18 17 15 14 14 15 14 14 13 15 17 18 18 18 17 17 17 17 16 16 15 14 13 13 12 11 10 11 10 10 9 8 8
21 20 20 19 19 19 19 19 17 16 17 16 13 12 12 13 14 14 12 10 15 16 16 15 15 14 14 14 13 13 12 11 10 9 8 7 5 4 3 2 2 1 -3 -5
19 19 18 18 17 17 18 18 18 17 17 15 15 14 12 12 12 12 13 12 14 14 12 12 11 10 10 10 9 9 8 6 5 4 2 1 -1 -4 -7 -8 -9 -8 -11 -10
20 19 19 18 17 17 17 17 16 16 14 13 12 12 12 12 12 9 7 11 10 9 8 8 7 7 6 5 4 3 2 1 -1 -3 -5 -9 -11 -15 -15 -15 -17 -18 -17 -14
19 19 18 19 18 15 13 15 16 16 15 15 14 14 12 9 10 10 8 6 5 5 5 4 3 3 1 1 0 -2 -4 -7 -9 -12 -12 -17 -23 -22 -20 -24 -22 -25 -24 -22
16 16 16 16 14 14 14 14 13 12 12 11 11 11 11 10 7 8 6 4 5 2 0 -2 -2 -5 -6 -8 -8 -10 -12 -15 -20 -21 -25 -26 -28 -28 -29 -28 -29 -28 -28 -28
14 12 12 12 12 12 11 10 7 8 7 6 5 5 4 5 3 2 -0 -2 -3 -6 -8 -12 -14 -15 -14 -14 -18 -20 -20 -17 -21 -22 -27 -27 -28 -27 -29 -28 -31 -31 -33 -31
11 12 10 8 7 5 5 4 3 2 1 -0 0 2 -1 -4 -6 -5 -11 -12 -14 -15 -19 -19 -19 -16 -18 -22 -21 -24 -23 -25 -26 -26 -31 -31 -31 -33 -33 -33 -35 -36 -35 -35

GFSNGP_sfc_dewp_075.txt.gz
Dewpoint
31 27 29 30 32 31 30 29 26 25 23 25 28 29 31 32 32 31 33 34 34 40 46 50 51 51 51 52 53 53 52 52 52 53 53 53 53 53 53 54 54 54 55 55
32 30 27 30 31 26 30 30 27 26 25 27 28 29 30 30 30 30 32 33 34 35 41 47 51 51 51 51 52 53 52 52 52 52 52 52 52 53 53 54 54 55 56 55
27 32 32 26 25 29 26 28 29 27 28 29 28 30 33 32 33 33 33 34 35 35 38 44 48 52 51 51 52 52 52 52 52 52 51 52 52 52 54 55 56 55 55 54
29 31 23 23 30 31 29 30 29 28 28 30 29 31 31 34 34 36 35 36 37 37 40 41 45 50 52 52 52 52 51 51 51 52 52 52 53 54 55 56 55 53 50 50
29 27 26 22 21 24 28 25 37 34 37 37 37 33 31 31 34 36 37 37 37 38 38 40 45 48 51 52 52 52 52 52 52 52 53 53 54 53 51 50 49 47 46 45
30 26 22 23 28 36 31 27 37 39 40 40 37 35 34 38 39 37 36 36 37 37 36 40 48 51 50 51 52 53 53 53 54 54 51 50 48 48 47 47 45 43 42 42
29 27 28 32 32 39 26 27 36 37 38 40 38 38 39 41 41 42 43 48 49 47 46 48 52 53 52 53 53 53 53 52 51 51 50 49 47 45 44 41 38 36 35 36
29 27 24 32 36 31 33 39 38 35 36 41 42 41 40 40 41 42 45 49 50 49 49 51 52 53 52 52 51 51 50 50 49 48 47 46 44 41 38 36 34 32 31 30
31 29 33 36 35 35 39 38 38 37 36 37 41 41 41 40 41 41 44 48 48 48 47 48 50 51 49 49 49 48 47 46 44 43 42 41 39 37 35 34 33 31 30 29
31 30 32 31 33 39 41 41 41 41 40 39 42 43 42 41 42 41 43 46 48 47 46 47 48 48 48 47 46 45 43 42 41 39 37 37 36 36 34 33 32 30 28 26
30 30 35 32 39 40 40 41 40 40 41 42 43 41 40 40 41 43 44 46 46 46 45 44 44 45 45 45 44 41 39 37 35 34 32 31 31 32 32 32 32 30 28 26
27 35 35 36 39 39 37 39 37 34 33 34 34 37 39 37 37 39 41 43 42 42 40 39 39 40 41 41 40 37 35 34 33 32 31 30 29 28 30 30 30 29 28 27
35 37 37 38 39 36 35 34 34 31 29 29 29 29 29 28 28 30 31 31 32 34 32 31 30 30 32 35 35 35 33 31 30 30 29 28 27 26 25 28 30 30 29 29
35 35 37 37 37 34 32 32 32 28 27 27 27 27 27 28 28 28 28 28 29 29 30 30 30 30 32 31 30 29 28 29 28 27 26 26 25 26 25 24 23 25 28 27
29 32 35 36 35 31 30 29 27 25 25 25 25 26 26 25 25 25 26 26 26 26 27 27 28 29 31 32 31 29 28 28 27 27 27 27 26 26 25 25 25 24 25 26
28 30 33 33 32 29 28 27 26 24 24 24 23 23 22 21 21 21 21 21 21 21 23 24 24 27 28 27 26 26 26 27 27 26 26 26 26 26 26 25 24 24 23 21
25 26 26 28 29 27 26 27 26 23 22 22 22 21 19 18 18 18 19 19 19 20 21 21 22 24 24 25 24 23 23 23 23 23 24 23 23 23 22 21 20 19 20 20
25 26 26 26 25 25 24 24 23 21 19 19 19 19 18 17 16 17 18 18 17 17 19 20 21 21 21 22 22 22 21 21 21 20 20 20 19 19 19 18 17 17 17 16
23 23 23 24 24 22 22 21 20 19 19 18 16 15 16 16 16 17 17 16 15 14 16 19 20 19 20 21 20 20 20 19 17 17 17 16 16 16 15 15 14 14 14 13
20 21 20 19 19 19 18 19 19 17 18 16 16 15 14 15 16 15 14 12 14 15 17 17 17 17 17 17 17 16 16 16 14 13 14 12 12 12 11 10 10 10 11 10
19 19 18 17 18 18 18 17 16 14 15 15 13 12 12 13 14 14 12 10 13 14 14 13 14 13 13 13 12 13 12 11 10 9 8 8 8 7 7 7 7 7 7 7
19 18 17 17 16 16 17 17 16 15 15 14 14 14 13 12 11 10 10 9 11 11 10 9 8 8 7 8 7 9 7 6 6 6 5 4 4 3 2 2 2 3 3 3
19 18 17 17 16 16 16 16 15 14 13 12 11 10 9 9 10 7 5 8 7 7 6 6 5 5 5 7 6 5 4 3 2 1 1 1 1 1 0 -0 -1 -1 -1 -1
18 18 17 17 16 14 13 14 14 14 13 13 12 12 10 8 8 7 6 5 3 4 5 4 3 2 2 3 2 1 1 0 0 -0 -2 -4 -2 -2 -3 -4 -4 -3 -4 -6
15 15 16 15 13 13 13 13 12 11 9 8 8 7 8 7 6 5 5 3 2 1 1 -2 -2 -2 1 0 -1 -2 -2 -2 -2 -2 -3 -4 -4 -5 -4 -6 -7 -7 -8 -8
13 11 10 11 11 11 10 8 8 8 6 5 4 4 3 3 1 0 -2 -3 -3 -4 -3 -2 -3 -2 -2 -3 -3 -3 -3 -3 -3 -4 -5 -5 -6 -7 -9 -10 -10 -11 -11 -11
11 11 9 7 5 5 5 5 5 4 3 3 1 1 -0 -0 -2 -3 -5 -3 -4 -4 -4 -4 -3 -4 -3 -2 -3 -4 -4 -4 -8 -6 -7 -7 -9 -10 -11 -12 -12 -12 -12 -13

GFSNGP_sfc_dewp_078.txt.gz
Dewpoint
30 30 27 28 27 28 27 29 29 26 25 24 25 26 27 28 29 29 28 29 32 36 45 48 51 51 52 53 54 54 53 53 54 54 54 54 54 54 54 54 52 52 54 54
22 24 21 21 22 24 25 24 26 29 27 28 29 28 28 28 29 29 28 29 31 32 34 43 48 51 52 52 53 54 54 54 54 54 53 53 54 54 54 55 53 54 54 54
22 24 22 24 25 23 22 28 29 26 22 28 27 25 28 29 29 30 32 32 33 33 34 37 42 49 51 52 53 54 54 53 53 54 54 54 53 53 53 53 54 54 55 54
27 32 22 21 24 25 27 24 27 25 26 34 34 34 34 30 31 32 33 34 35 35 37 38 40 44 50 50 51 53 53 52 53 53 53 53 53 53 54 54 54 55 55 54
27 22 19 18 20 23 25 21 34 33 34 36 37 36 34 38 40 40 40 39 36 36 37 38 38 40 45 48 50 51 51 52 52 52 52 52 52 53 54 54 55 55 56 55
30 21 20 24 29 33 29 21 31 34 32 32 35 36 36 38 40 40 41 43 44 47 45 42 39 40 43 46 49 50 51 51 51 52 52 52 53 53 54 55 54 48 44 45
27 27 25 26 25 34 24 27 31 31 30 30 32 34 39 39 39 39 39 43 49 50 48 48 48 48 46 46 47 49 51 52 52 53 54 54 54 52 49 44 41 38 36 37
28 26 24 32 30 27 31 33 34 35 36 39 39 38 37 40 40 40 39 43 47 49 49 50 51 51 49 48 51 53 54 54 54 54 52 50 47 45 42 40 36 34 33 32
25 25 32 37 33 36 40 40 40 41 40 40 41 38 38 41 42 40 40 43 47 49 49 49 50 51 51 51 52 53 52 50 48 47 45 45 43 41 38 38 36 33 32 30
29 27 26 31 35 39 39 39 40 39 38 41 41 42 41 41 40 41 42 45 47 48 48 46 47 47 49 48 49 46 44 42 41 40 39 38 37 37 36 35 33 31 30 27
25 26 30 29 37 39 39 39 39 37 36 36 36 38 38 40 38 38 41 43 45 47 45 44 43 42 43 44 44 41 39 39 37 35 33 31 31 33 33 33 33 31 29 27
25 36 36 35 37 39 38 37 37 35 33 33 32 33 33 33 34 34 35 35 35 35 36 36 35 35 36 38 39 37 35 34 33 33 32 30 29 29 31 31 31 30 29 27
34 36 36 37 38 37 36 35 34 33 31 30 31 31 31 31 30 32 32 32 31 31 31 32 33 34 34 33 34 34 33 32 31 31 29 28 28 27 26 29 30 29 29 29
31 33 35 36 35 35 34 32 31 30 29 29 29 29 29 28 28 28 27 27 28 28 28 29 29 29 32 34 33 32 31 30 30 29 28 27 27 27 26 24 24 25 28 28
28 29 31 35 34 31 30 29 28 26 26 27 27 26 25 24 23 23 24 23 23 23 24 24 25 27 30 29 30 30 30 29 29 28 28 27 27 26 26 25 25 25 25 26
26 27 30 30 29 28 27 26 26 26 26 27 25 22 21 21 19 19 19 20 19 20 21 22 23 24 26 26 26 26 26 27 27 27 27 27 27 27 27 26 26 25 24 24
24 25 25 27 27 27 26 26 25 24 23 23 23 22 19 18 18 18 18 18 19 19 21 21 22 24 25 25 26 25 25 25 26 26 26 26 25 26 25 24 23 21 21 23
23 23 24 24 24 24 23 23 22 21 20 20 20 19 18 18 16 17 18 19 18 17 18 20 22 22 23 25 26 25 24 23 22 22 22 22 22 22 22 22 21 19 18 17
20 21 22 22 23 22 20 20 19 19 19 19 18 17 17 17 17 17 18 17 17 16 17 20 20 20 21 22 24 23 21 20 20 19 19 19 19 19 19 18 18 17 16 15
18 19 19 19 20 18 18 19 18 18 19 18 18 17 16 16 17 16 15 14 14 15 17 18 18 17 17 18 18 18 18 18 16 16 16 16 16 15 14 12 14 15 15 13
19 19 18 18 18 18 18 19 16 16 16 16 14 13 12 13 15 16 14 11 13 15 15 13 13 12 11 12 12 14 15 14 13 12 12 13 13 11 11 11 11 11 11 11
20 18 18 18 17 16 17 18 17 16 15 15 15 15 13 13 12 11 11 11 10 8 8 8 8 8 8 9 9 11 9 9 10 10 9 9 9 8 9 8 8 8 8 8
19 19 18 17 16 16 16 16 15 15 13 12 11 11 11 11 11 9 6 8 7 7 6 7 6 6 6 10 10 9 7 7 6 6 7 7 7 6 6 5 5 5 5 4
19 18 18 18 18 15 13 15 15 14 13 13 13 12 10 10 10 8 7 5 4 5 6 6 5 4 5 8 7 7 7 7 6 6 4 2 5 4 3 2 2 3 2 0
18 18 18 17 15 14 14 15 13 12 10 9 9 7 7 7 8 7 6 5 4 4 5 2 2 2 6 6 5 4 4 4 4 4 3 3 2 2 2 1 -0 -0 -0 -0
16 14 13 14 15 14 13 11 10 9 8 8 7 9 8 7 5 4 4 2 2 2 4 4 4 5 5 3 3 3 3 2 2 1 1 1 0 -0 -1 -3 -2 -2 -2 -2
15 15 13 10 8 8 9 9 9 8 9 9 6 7 6 6 4 2 2 4 4 3 4 4 3 1 2 3 2 2 2 2 -3 -1 0 0 -1 -1 -3 -3 -3 -3 -3 -4

GFSNGP_sfc_dewp_081.txt.gz
Dewpoint
30 30 27 27 27 27 26 27 27 27 26 26 26 26 26 27 28 28 28 29 29 30 36 45 48 49 50 52 55 55 53 52 54 57 56 55 56 56 57 57 56 56 56 56
24 24 24 22 22 24 24 25 25 24 24 26 28 28 28 28 27 28 29 29 29 31 31 34 45 48 50 51 53 55 55 55 54 55 55 56 56 56 56 56 56 56 55 55
23 23 25 26 24 22 21 22 23 23 26 25 25 27 29 30 29 28 29 31 32 34 35 34 34 45 49 50 52 53 54 54 54 55 55 56 55 55 55 56 56 55 55 54
26 26 21 22 21 22 23 22 25 27 25 27 28 30 31 36 38 38 37 38 38 37 37 37 38 38 44 48 51 52 52 53 54 55 55 55 55 54 55 56 56 56 56 56
25 20 18 15 18 18 20 21 29 28 28 30 31 33 34 38 38 39 39 39 40 41 43 44 42 39 39 43 47 50 52 52 52 54 54 55 55 56 56 56 56 56 56 56
27 22 18 18 22 25 25 21 30 30 30 29 29 29 32 36 37 39 39 39 41 44 46 46 47 47 41 39 42 47 51 52 52 53 54 54 55 56 56 56 56 55 54 51
27 25 21 29 25 29 24 27 32 31 32 34 34 34 36 35 35 38 39 39 41 45 47 49 50 50 49 46 44 44 47 51 52 52 53 54 55 56 56 53 47 43 39 37
28 28 23 24 25 28 35 35 35 35 36 37 38 38 36 34 35 38 38 38 41 45 48 50 50 50 50 49 52 54 53 50 51 52 52 53 55 54 49 45 39 35 33 33
24 24 31 36 36 37 38 37 38 38 36 37 38 39 40 39 39 39 39 41 44 45 48 47 47 47 49 49 52 53 53 50 48 46 46 46 46 44 41 40 37 34 32 30
35 31 32 37 37 38 37 38 37 37 37 37 37 38 37 39 39 38 38 40 42 42 41 40 40 40 41 44 45 44 43 42 41 40 38 38 38 39 39 37 35 32 30 28
25 29 27 31 36 38 36 37 36 37 37 36 36 35 35 36 36 36 36 36 37 36 35 35 36 36 36 40 41 39 38 36 35 33 32 31 31 33 33 33 33 31 29 28
30 36 36 34 35 38 36 36 36 36 35 35 34 33 34 34 33 33 34 33 33 32 31 31 31 32 33 36 36 35 33 33 32 31 31 30 29 28 31 31 31 30 29 27
33 33 35 36 37 36 35 35 34 33 33 33 33 32 32 31 30 30 29 29 29 29 29 29 29 29 31 34 35 33 32 31 30 30 30 28 27 26 25 28 30 30 30 30
31 32 33 33 34 33 32 32 32 29 29 28 28 28 29 28 26 25 25 24 24 24 25 25 25 27 29 31 31 33 32 32 30 29 28 27 27 26 26 24 24 25 29 29
27 28 30 32 32 31 30 29 29 27 27 27 26 25 25 24 21 21 21 22 21 21 21 22 23 25 27 28 28 28 29 28 29 28 28 27 27 26 26 25 24 24 26 26
25 27 27 28 28 28 28 28 27 27 26 24 22 22 21 21 21 20 19 20 19 19 20 22 22 26 27 27 27 27 27 28 28 28 29 28 28 27 26 26 25 24 24 24
23 24 25 25 25 27 25 25 25 24 23 22 22 22 20 20 20 19 19 19 19 20 20 21 22 25 26 27 26 26 27 27 27 27 27 27 27 25 24 23 22 21 22 24
22 23 23 23 23 24 23 23 21 21 20 21 21 20 20 20 19 20 21 22 21 20 21 22 23 24 25 26 25 25 24 24 25 24 24 24 24 23 23 22 21 19 20 21
20 21 22 23 24 23 22 20 20 20 20 20 19 17 18 17 17 18 19 18 17 16 19 21 22 22 23 24 23 23 22 21 20 20 20 20 20 21 20 20 19 19 18 16
19 20 20 20 21 21 20 22 21 21 21 20 19 17 16 18 18 17 16 14 15 16 17 19 19 19 19 19 19 19 20 20 17 17 18 17 17 17 16 14 14 14 14 13
19 19 19 19 19 19 20 20 19 17 18 17 15 14 13 13 14 18 16 12 13 12 12 11 12 11 10 11 12 16 16 15 15 14 14 13 13 12 12 12 12 13 12 12
20 19 18 18 17 17 18 18 18 17 16 16 17 18 17 16 14 11 11 9 9 8 8 8 8 9 9 11 10 13 11 11 12 12 12 12 12 11 11 10 10 11 10 10
20 19 19 18 17 17 17 16 16 15 14 14 14 13 12 11 9 8 5 7 7 7 7 8 7 8 9 13 12 12 10 10 10 10 10 10 10 9 8 7 8 8 7 6
20 20 19 19 19 16 14 16 16 15 14 14 12 13 11 11 9 7 7 5 5 5 6 6 7 6 7 11 10 10 10 10 9 9 8 6 8 7 6 5 5 6 5 3
20 20 20 19 17 16 16 16 15 13 10 9 9 7 6 6 9 7 8 7 6 7 8 5 4 5 9 9 9 8 7 6 7 7 7 6 6 5 5 4 3 2 3 3
19 16 16 17 17 16 16 14 11 10 8 9 9 10 10 9 7 7 6 5 5 5 7 7 6 8 7 6 6 6 6 5 5 4 4 4 3 3 2 1 2 2 2 1
17 18 15 13 11 11 11 11 12 10 11 11 9 9 8 8 7 5 6 8 7 7 7 7 6 4 5 6 5 5 5 5 -0 2 3 3 3 3 1 0 1 0 0 -1

GFSNGP_sfc_dewp_084.txt.gz
Dewpoint
24 34 34 34 34 35 26 30 30 30 30 34 35 31 29 30 29 29 28 29 31 32 36 46 48 50 52 53 56 55 52 52 54 56 56 56 57 57 56 57 57 56 55 55
22 25 23 23 30 26 34 34 29 28 26 35 35 27 28 29 29 29 32 35 37 37 37 38 41 48 50 52 54 55 54 53 52 54 55 56 56 56 56 56 56 56 55 55
21 22 25 26 26 23 21 22 23 23 26 28 26 26 29 32 37 37 38 38 39 39 40 41 41 44 50 51 53 55 55 55 54 53 54 56 55 55 55 56 56 55 55 54
25 24 23 25 25 23 25 23 22 23 35 29 29 29 35 38 38 39 39 40 41 43 45 46 46 46 46 44 52 53 53 54 55 55 53 54 55 55 55 55 55 55 55 55
25 22 20 17 17 17 18 18 30 32 34 32 30 31 40 38 39 38 41 41 41 44 46 49 49 49 49 48 42 50 52 53 54 55 54 54 54 55 55 55 55 55 55 54
28 21 18 17 16 25 22 20 32 32 33 31 31 33 36 35 34 34 37 40 40 45 48 49 50 50 50 49 49 47 49 52 53 54 54 55 55 55 55 55 55 55 54 50
28 25 22 20 26 28 23 30 35 35 35 35 35 36 38 38 35 35 38 39 44 46 48 47 47 48 50 51 50 52 54 54 53 53 54 54 55 55 56 55 51 44 38 37
28 25 23 26 25 28 36 38 36 36 35 36 35 36 38 39 39 41 40 41 44 47 45 42 41 42 44 44 46 48 50 49 48 49 51 53 54 49 48 45 40 36 34 33
25 25 28 37 38 38 37 37 36 36 35 36 37 36 36 38 38 37 37 37 38 39 40 39 38 37 38 39 43 43 41 40 40 41 41 42 46 45 42 40 37 34 33 31
32 36 39 42 39 36 36 36 36 36 36 36 36 36 35 36 36 36 35 34 35 36 35 34 34 34 34 36 40 38 36 35 34 33 33 34 35 36 36 36 34 33 32 29
32 36 40 40 39 38 35 35 34 35 35 35 35 34 34 34 33 32 32 32 32 32 31 31 31 32 33 35 36 35 34 33 32 31 30 28 28 30 31 32 34 32 30 28
36 34 37 37 36 36 35 34 34 33 33 34 33 33 33 32 30 29 28 28 28 28 28 28 28 29 30 34 34 33 32 31 31 30 30 28 27 26 30 30 30 30 29 28
30 31 35 34 34 33 33 33 33 31 30 30 29 29 29 28 26 27 25 24 24 25 25 25 26 26 28 30 32 32 31 31 30 29 29 28 27 26 24 28 30 30 30 30
28 30 31 32 32 32 30 30 32 30 29 28 27 26 26 23 22 21 22 22 22 22 23 23 24 26 28 29 29 29 28 28 28 28 27 26 25 25 25 24 23 25 28 28
26 28 30 29 29 28 29 29 29 28 27 25 24 23 21 19 18 18 19 20 20 21 22 23 24 26 28 28 28 28 28 28 28 27 27 26 26 26 25 24 23 23 24 26
24 26 25 26 26 26 26 26 26 25 24 24 23 21 19 19 18 18 18 19 17 18 21 22 24 26 28 27 26 26 26 28 28 28 28 27 26 24 24 23 23 23 23 23
22 23 23 23 24 25 25 24 24 23 23 22 22 22 20 19 19 18 19 20 20 20 21 21 22 25 26 26 25 25 25 25 26 25 24 23 22 21 20 19 19 19 19 21
21 22 23 23 24 26 23 22 21 20 20 21 21 20 18 18 17 18 18 19 18 17 19 21 22 23 24 25 25 24 23 22 21 21 22 21 21 21 20 19 18 17 18 18
20 21 22 23 25 23 21 21 20 20 20 19 18 17 16 16 15 15 15 14 13 11 14 20 21 21 21 23 22 21 21 21 20 19 19 18 19 18 18 17 16 16 15 14
18 19 18 18 20 19 19 20 18 18 19 18 16 14 12 15 17 15 13 11 13 14 15 15 17 16 17 17 18 18 19 18 16 16 16 16 16 15 15 14 14 13 13 13
18 18 17 17 18 19 19 18 17 16 17 16 14 13 12 12 12 14 12 9 11 12 11 11 12 11 11 12 13 16 15 15 14 14 14 13 12 12 12 12 12 12 11 11
18 17 17 17 16 16 17 17 16 15 15 14 14 15 15 14 12 9 9 9 9 9 9 10 10 12 12 12 12 13 12 12 12 12 11 11 11 10 9 9 9 9 9 8
19 17 17 16 15 15 15 15 15 15 14 14 14 13 11 10 9 6 3 6 6 7 7 9 9 10 11 13 13 12 10 9 9 10 9 9 9 8 7 7 7 6 3 6
19 18 18 18 18 15 14 15 15 14 14 12 10 10 12 10 9 8 7 7 7 7 8 8 8 9 10 10 9 8 9 10 9 9 8 6 8 7 5 4 4 4 3 2
20 20 19 18 16 15 15 16 15 14 11 9 8 7 7 7 8 8 10 8 8 7 8 6 8 7 9 8 8 8 7 5 5 7 6 5 5 4 3 3 -1 -1 1 2
18 16 17 18 18 17 16 15 12 10 9 9 9 11 10 10 9 9 8 7 8 7 8 7 6 8 9 7 7 7 5 3 5 5 5 4 4 3 0 -0 1 1 -0 -1
19 18 16 14 12 12 12 12 12 11 12 11 9 10 9 10 9 8 8 10 9 9 9 9 8 4 6 6 6 6 7 5 -1 2 4 3 3 2 -1 -1 -1 -1 -2 -2

GFSNGP_sfc_dewp_087.txt.gz
Dewpoint
26 26 35 35 36 36 36 35 35 33 34 37 40 41 39 35 34 37 37 37 38 38 38 40 48 51 53 54 53 52 52 55 55 55 55 55 54 55 56 56 55 53 51 50
24 23 24 32 32 33 34 38 37 37 36 42 37 37 35 38 37 37 38 39 41 43 44 43 45 46 51 54 54 54 52 51 54 56 56 55 55 55 55 56 57 55 54 53
24 25 23 27 28 32 33 34 33 34 36 33 35 38 37 38 38 38 39 40 42 43 48 49 49 50 50 51 53 55 53 52 52 54 55 56 56 56 55 55 55 57 56 56
24 23 21 28 28 27 26 31 31 36 35 36 39 37 36 37 36 38 39 40 42 48 48 48 48 49 50 50 51 53 55 54 53 52 54 55 55 55 55 56 55 55 55 56
24 24 23 19 21 22 22 31 37 36 37 36 36 36 36 38 36 35 38 41 48 48 47 46 46 46 50 49 49 51 53 53 54 55 54 54 54 55 55 55 55 55 55 55
26 23 18 23 25 28 31 31 36 37 38 37 37 36 37 40 41 42 44 47 46 44 42 41 42 44 45 45 46 47 50 50 50 48 55 55 55 54 55 55 54 54 55 55
25 26 27 27 28 31 26 32 37 36 36 35 35 38 38 39 38 37 38 38 42 40 39 38 38 40 41 41 41 44 45 44 43 43 45 48 53 55 55 55 55 51 43 37
27 24 21 33 32 32 38 38 36 36 37 38 38 37 37 37 36 35 35 35 36 37 36 35 35 35 37 37 38 41 40 38 37 37 37 40 42 45 46 48 44 37 35 33
27 26 39 41 39 41 38 36 37 36 36 37 36 35 36 34 34 33 32 33 33 33 33 32 32 32 33 35 37 37 36 35 33 32 31 33 35 36 38 40 40 38 37 33
31 38 39 39 40 36 37 35 35 35 35 35 35 34 34 32 31 30 29 29 30 30 30 29 30 30 31 34 36 35 34 32 31 30 29 29 30 31 30 32 35 34 31 29
37 38 38 39 39 39 35 35 34 34 34 33 33 33 32 30 29 28 27 27 27 27 27 26 27 28 29 31 34 33 32 32 30 29 28 28 28 29 29 30 32 30 28 28
31 36 37 36 35 35 34 33 32 31 31 30 29 29 29 27 27 25 24 24 24 24 24 24 25 26 28 30 31 32 30 30 30 28 28 27 26 27 30 30 31 31 30 29
33 37 35 33 32 31 31 32 30 29 28 27 26 26 24 23 23 24 22 22 22 22 23 24 25 25 28 30 29 28 28 28 27 26 26 26 26 25 23 27 30 30 31 31
28 34 30 30 29 30 29 30 29 27 26 24 23 22 20 19 19 19 21 21 21 21 22 23 24 25 28 29 29 28 27 27 26 26 26 25 25 25 24 23 22 23 28 30
28 27 27 27 26 27 26 27 26 25 25 23 21 20 19 17 17 18 19 19 19 19 21 22 23 24 27 28 27 28 28 27 27 26 26 25 25 24 24 23 23 22 22 21
23 23 24 24 25 26 25 24 24 24 24 23 21 20 19 19 18 18 19 19 17 17 19 19 21 24 25 25 25 25 25 25 24 23 23 22 21 20 19 19 19 19 18 18
22 21 22 22 25 24 23 22 22 21 20 20 21 22 22 18 16 16 16 16 16 17 18 19 20 23 22 23 22 22 22 22 22 22 21 20 19 19 18 18 17 16 16 17
22 23 23 25 23 21 19 19 18 17 17 17 16 14 13 12 12 13 13 14 14 13 14 17 20 20 22 21 21 21 20 20 19 19 19 18 17 17 16 15 15 14 14 15
19 18 19 21 21 20 19 19 18 17 17 16 14 13 12 12 12 12 12 10 10 9 12 16 19 19 19 21 21 19 18 18 18 17 17 17 16 16 15 14 13 12 11 10
17 17 17 17 17 16 16 16 16 15 16 14 12 10 9 12 12 10 10 8 10 12 14 15 17 16 17 18 19 17 17 16 15 14 13 12 12 12 12 10 10 8 7 8
16 15 14 14 14 14 14 14 13 13 14 13 10 9 8 8 8 11 8 6 9 10 11 12 13 12 11 12 12 14 13 12 12 12 11 10 9 9 8 7 6 6 6 6
12 12 10 9 11 12 12 13 13 13 13 12 11 11 11 9 7 6 7 7 8 8 9 10 11 11 12 11 10 10 10 9 8 8 7 6 5 4 3 2 -1 2 3 -6
15 14 14 11 10 11 12 12 11 10 9 9 11 10 8 8 7 4 3 6 7 8 8 8 10 9 8 8 8 8 8 6 5 5 3 0 0 -1 1 2 -5 -7 -6 -7
13 13 12 14 14 14 11 11 12 11 9 9 8 9 10 8 8 10 9 7 7 7 7 9 7 7 7 7 4 2 2 5 2 -2 -1 -3 1 -3 -7 -11 -8 -7 -7 -4
16 16 15 15 14 13 14 14 14 13 11 10 10 8 7 8 7 9 9 8 10 5 5 4 7 5 3 2 1 1 -1 -6 -4 -4 -6 -8 -11 -11 -12 -12 -15 -8 -7 -13
18 17 18 19 19 19 19 17 13 12 11 9 9 6 6 9 10 9 5 5 6 6 4 0 0 1 3 1 1 0 -4 -5 -8 -5 -9 -10 -4 -11 -15 -10 -10 -12 -16 -17
18 18 17 15 14 14 14 14 12 10 10 5 5 8 7 5 5 6 3 -0 -2 0 1 -1 -8 -7 -7 -8 -7 -6 -3 -7 -9 -10 -13 -14 -12 -12 -18 -18 -18 -18 -15 -17

GFSNGP_sfc_dewp_090.txt.gz
Dewpoint
28 26 34 34 33 34 36 36 35 35 35 37 41 44 47 46 40 39 40 43 45 46 47 48 51 53 55 54 55 54 54 54 53 54 54 54 56 55 55 54 52 51 50 49
25 25 26 22 33 34 35 38 38 38 37 40 43 46 45 46 41 39 41 45 47 48 48 48 49 50 51 54 55 55 54 54 54 54 54 54 54 56 55 55 55 53 51 51
23 24 20 23 29 34 30 37 34 33 36 40 41 42 43 42 38 38 41 46 47 47 47 47 47 50 50 51 53 56 54 55 55 55 55 55 55 55 55 56 56 55 54 52
24 23 14 23 25 28 35 36 34 35 39 39 39 40 41 43 44 44 47 46 45 44 43 43 45 46 47 48 48 50 52 53 53 55 56 56 55 55 55 55 55 55 55 55
22 22 22 19 20 26 31 34 38 38 38 39 42 40 39 40 41 44 44 42 41 40 40 40 40 43 44 43 44 45 46 46 47 48 51 54 56 56 56 55 55 55 55 56
24 22 17 24 27 30 34 33 38 37 39 38 38 37 38 37 37 37 38 39 37 37 36 36 36 39 40 40 40 41 42 42 42 43 46 47 48 53 56 56 56 56 56 56
23 23 26 31 36 35 26 32 37 37 37 38 37 39 37 36 34 34 34 35 36 35 34 33 33 36 37 37 37 39 39 38 37 37 39 40 43 44 45 49 56 55 53 40
25 25 21 38 37 35 37 37 37 37 37 37 37 36 35 33 31 31 31 31 32 33 31 31 31 32 33 34 35 37 35 34 33 32 33 35 37 38 39 41 41 39 36 34
27 26 38 38 37 38 37 37 37 37 37 35 35 33 32 30 29 28 28 29 30 30 29 29 29 30 31 31 34 35 33 31 30 29 30 30 31 32 35 37 36 33 32 30
34 38 37 40 38 37 38 37 35 33 33 34 33 32 30 29 28 26 26 26 27 27 26 26 27 28 29 31 33 33 32 30 28 28 28 29 29 29 30 32 32 32 32 30
36 38 38 38 38 38 35 33 32 31 29 28 30 29 28 26 25 24 24 24 24 24 24 24 26 27 29 29 31 31 30 30 28 28 27 27 28 29 29 30 30 28 28 28
29 34 36 35 35 36 34 32 29 28 27 25 25 25 24 23 23 22 22 22 22 22 23 24 25 26 28 29 29 29 28 28 28 27 26 25 25 26 30 30 31 31 30 28
33 35 35 35 32 30 30 29 27 25 24 23 22 22 21 20 20 21 20 20 21 22 23 24 24 25 27 29 28 28 27 27 26 26 26 25 24 24 23 25 27 30 30 31
32 35 28 28 27 28 29 27 27 24 23 22 20 19 19 18 18 18 19 19 20 20 21 22 23 24 27 27 28 28 27 27 26 26 25 24 24 23 20 19 18 18 24 25
26 29 28 27 26 25 26 26 25 24 22 21 19 18 17 16 16 17 18 17 16 17 18 20 21 22 24 25 25 24 24 24 24 24 24 23 22 21 20 18 17 17 18 18
22 22 23 25 24 23 22 22 22 22 22 20 18 17 17 16 14 14 14 14 14 14 17 17 19 21 23 22 22 22 22 22 21 21 20 19 19 19 17 15 14 14 13 14
20 19 20 23 22 20 19 20 20 20 19 17 21 17 15 14 13 12 13 14 13 13 15 17 17 20 21 20 19 19 19 19 19 19 19 18 17 16 16 14 13 12 13 14
19 20 22 22 21 19 17 17 16 16 16 16 14 13 11 11 10 11 11 12 11 11 12 15 17 17 19 19 19 19 19 18 18 17 17 16 16 15 14 13 13 11 11 10
17 17 19 19 18 17 16 16 15 15 14 13 11 10 10 9 10 9 10 8 8 7 10 14 18 16 16 19 18 18 17 16 16 15 15 15 14 13 12 11 10 8 8 6
15 15 15 15 17 15 15 15 14 13 13 10 8 8 7 8 8 7 7 6 8 9 12 13 14 14 14 15 16 15 15 14 13 12 12 11 10 9 9 9 8 6 6 5
13 13 12 12 11 11 10 10 10 10 10 9 7 5 5 6 7 8 6 4 8 10 11 12 12 11 10 10 11 11 11 10 9 8 8 7 6 5 4 3 3 3 1 3
7 8 5 5 8 10 10 10 10 9 9 7 7 6 6 4 4 5 7 7 8 9 10 10 9 8 9 10 9 9 8 7 6 6 4 3 3 0 -1 -0 -1 -2 -5 -7
9 9 8 4 4 4 5 6 4 6 5 6 6 5 6 7 6 4 2 7 9 9 8 8 8 7 6 6 6 6 4 4 3 2 -1 -3 -6 -8 -8 -9 -10 -9 -12 -11
6 8 6 7 7 10 7 6 9 8 7 8 8 8 8 6 7 9 8 6 4 5 6 8 7 7 5 4 2 1 -0 -1 -3 -4 -4 -8 -12 -16 -16 -17 -11 -14 -16 -16
9 9 9 8 10 8 10 13 13 12 10 10 9 8 7 9 5 8 7 6 6 3 2 2 4 3 -1 -2 -2 -3 -3 -4 -6 -7 -9 -13 -14 -17 -18 -13 -15 -19 -22 -22
15 16 15 16 15 15 15 15 13 11 9 6 6 1 2 6 7 7 6 6 5 2 -1 -6 -6 -4 -4 -4 -8 -10 -9 -8 -9 -9 -12 -12 -16 -17 -18 -18 -19 -18 -22 -24
15 17 16 15 15 14 13 12 9 8 5 -0 2 3 3 1 3 4 -2 -6 -4 -1 -1 -6 -9 -9 -11 -14 -14 -12 -12 -15 -15 -16 -21 -19 -18 -22 -23 -23 -24 -24 -24 -24

GFSNGP_sfc_dewp_093.txt.gz
Dewpoint
28 30 29 32 32 33 33 35 33 34 33 38 41 44 45 46 46 46 46 46 46 48 49 50 51 53 54 55 55 55 55 54 55 55 55 55 54 53 52 52 50 49 49 49
23 26 28 27 22 21 31 34 35 37 37 38 45 46 45 45 47 45 46 45 45 46 46 47 49 48 49 51 53 55 55 55 55 55 55 54 55 54 54 53 52 51 50 49
22 23 21 18 24 25 33 33 35 35 36 39 43 44 43 46 45 47 44 43 42 42 42 43 45 46 46 47 49 52 54 55 55 55 55 55 55 55 56 55 54 53 52 51
23 21 13 18 19 36 34 37 37 36 40 41 41 41 42 46 45 43 41 40 40 39 39 39 42 43 44 44 45 45 45 46 46 48 50 54 55 55 55 55 56 55 55 54
20 19 17 18 25 29 28 30 39 41 41 40 41 41 39 40 40 39 39 38 37 36 36 36 38 40 40 40 40 41 41 41 41 42 45 46 49 51 55 55 55 56 56 56
23 19 13 23 33 35 37 32 39 42 42 41 39 36 36 38 38 36 35 35 34 34 33 33 33 37 38 37 38 38 37 37 36 37 39 40 42 44 46 49 54 56 55 55
23 22 23 27 37 38 27 29 38 40 42 42 38 39 36 34 33 32 32 32 33 32 30 30 31 34 34 35 36 36 35 33 32 32 34 34 36 38 40 43 44 40 37 34
25 24 19 37 36 33 36 37 38 37 38 37 36 34 32 30 29 29 29 30 30 30 29 29 30 31 32 32 35 34 32 30 30 30 31 31 32 33 35 37 36 35 33 31
26 24 37 38 37 38 37 34 34 35 35 34 32 30 30 28 27 27 27 27 28 27 27 27 28 29 30 30 33 33 31 29 28 28 30 30 30 30 31 32 33 32 32 31
33 37 37 38 37 36 37 35 32 31 30 32 30 29 27 26 25 25 25 25 25 25 25 25 27 28 29 29 32 31 30 28 28 28 28 29 29 29 28 29 29 29 28 28
34 35 36 36 38 37 35 32 31 30 28 27 27 26 25 24 23 23 22 23 23 24 24 24 26 27 28 28 30 29 29 28 28 27 27 27 28 29 29 29 29 27 26 26
28 32 34 34 36 36 33 31 26 26 24 23 23 22 22 22 21 21 21 21 22 22 23 23 24 26 27 28 28 28 27 27 27 26 26 26 25 24 28 29 30 31 31 29
32 34 33 34 33 31 29 26 24 23 22 21 19 19 19 19 20 21 19 19 20 21 22 23 23 23 26 28 27 26 26 26 26 26 26 25 24 22 20 21 24 26 27 27
31 34 30 30 28 27 27 26 25 22 20 19 19 18 18 17 17 17 17 17 17 18 19 19 20 21 23 25 24 26 25 25 25 24 24 23 22 20 18 16 15 15 20 24
28 26 27 26 24 23 23 24 23 22 20 18 17 17 16 14 14 14 14 14 14 15 16 17 18 19 21 22 21 21 21 21 21 21 21 20 18 17 16 14 13 13 14 15
22 22 23 24 21 20 20 20 20 19 20 17 17 15 14 13 13 13 13 13 12 12 15 14 16 19 20 20 19 19 19 19 19 19 18 18 17 15 14 13 12 12 11 11
19 18 19 21 19 18 18 18 18 18 17 16 16 15 13 12 11 11 11 13 13 12 13 15 14 18 19 17 17 16 17 17 17 17 16 15 15 14 13 12 11 9 8 10
19 20 21 21 19 17 16 16 15 15 14 13 12 10 8 8 8 9 9 10 9 9 10 13 16 15 17 16 15 15 15 15 15 15 15 14 14 13 12 11 10 8 7 6
17 18 18 17 18 16 15 13 13 13 12 12 9 7 7 7 7 7 8 5 5 5 8 12 17 13 13 16 15 15 14 13 12 13 13 12 11 11 10 9 7 6 5 3
14 14 14 13 15 14 13 14 13 11 11 9 7 5 5 5 6 5 6 5 6 8 11 11 12 11 12 12 13 12 11 10 10 9 8 8 6 6 7 6 6 4 1 -1
11 11 10 10 9 8 7 4 4 3 2 1 1 1 3 3 4 4 4 4 7 8 10 9 9 10 10 9 9 8 8 7 6 5 4 3 2 2 2 2 1 -0 -1 -2
5 6 1 2 5 5 4 3 4 1 -0 -1 -3 -4 -4 -2 -1 2 4 6 8 7 8 8 8 5 6 8 7 6 6 4 3 3 1 0 -2 -4 -5 -4 -5 -7 -8 -11
3 4 4 1 2 2 4 3 0 1 0 -0 -3 -2 1 4 3 -0 1 7 8 7 7 7 5 4 4 4 3 3 2 1 -0 -2 -4 -6 -7 -8 -8 -10 -12 -12 -15 -15
3 4 3 3 5 9 7 8 8 7 2 6 5 3 7 3 4 9 8 4 2 3 4 5 4 3 1 0 -0 -2 -4 -5 -6 -7 -7 -10 -15 -13 -12 -14 -13 -17 -18 -18
6 4 6 6 8 8 10 11 12 11 9 9 8 7 8 9 1 5 4 4 4 1 -1 -1 -0 -3 -5 -6 -7 -8 -9 -11 -12 -12 -14 -16 -17 -17 -19 -17 -19 -19 -21 -21
13 13 12 13 14 13 13 13 12 10 7 3 3 -4 -2 2 5 4 3 2 2 -1 -3 -9 -10 -9 -9 -8 -11 -13 -12 -9 -13 -15 -18 -20 -21 -21 -22 -21 -22 -22 -25 -27
14 15 15 14 14 13 13 12 10 9 5 -5 -5 -7 -3 -6 -5 -2 -10 -12 -12 -11 -9 -13 -15 -13 -14 -18 -16 -17 -18 -19 -20 -20 -25 -24 -25 -26 -26 -27 -28 -27 -25 -23

GFSNGP_sfc_dewp_096.txt.gz
Dewpoint
27 27 30 30 30 31 31 33 31 30 33 35 39 43 44 45 47 45 43 43 44 46 47 48 50 52 56 56 55 55 55 55 54 54 54 53 52 52 51 50 49 49 49 50
24 24 28 27 25 22 22 24 27 34 34 37 40 45 45 46 46 43 41 41 41 41 42 44 45 46 48 48 50 55 55 54 55 55 55 55 54 53 52 51 50 49 48 49
21 23 22 16 20 32 32 34 35 33 35 37 40 43 44 46 44 42 41 39 39 39 38 40 42 43 43 44 46 47 48 48 50 53 55 55 55 54 53 52 52 51 50 50
23 22 12 13 19 33 31 36 37 35 35 41 41 40 41 42 41 39 39 38 37 36 36 36 38 40 40 41 41 41 41 41 42 44 46 47 51 54 55 55 54 53 53 52
20 20 18 19 28 31 32 31 40 41 41 41 41 40 38 39 39 38 37 37 35 35 34 34 34 38 38 38 37 37 37 36 36 39 40 41 42 43 45 46 53 55 56 55
23 19 11 17 34 36 36 29 38 42 42 42 41 36 35 36 36 35 35 35 33 32 32 31 32 35 36 36 36 34 33 33 33 34 35 35 37 38 40 43 44 44 39 35
23 23 24 30 35 37 26 30 37 40 42 41 35 36 35 33 32 31 31 31 31 30 29 29 30 33 33 34 34 32 31 31 31 32 32 33 34 35 36 37 37 34 32 32
24 23 19 36 35 30 35 34 36 37 37 36 35 33 34 33 29 28 28 28 28 28 28 28 29 30 31 31 33 32 30 29 29 30 30 31 31 32 32 34 33 32 31 30
27 25 37 37 37 35 33 32 32 35 35 34 33 32 31 26 26 25 25 25 26 26 26 26 27 29 28 30 32 31 29 28 28 29 29 29 29 29 30 30 30 29 29 28
32 35 36 36 35 36 35 34 33 34 32 29 28 27 24 24 23 23 23 23 24 25 24 25 26 27 28 29 31 30 28 27 27 27 27 28 29 28 27 27 27 26 25 25
32 33 35 34 35 35 34 33 29 28 28 29 28 26 25 22 21 21 21 22 23 23 23 24 25 26 27 28 29 28 28 27 27 27 25 24 25 26 27 29 29 27 27 28
26 31 32 31 34 34 30 29 28 26 21 21 21 21 21 20 20 20 19 20 20 21 21 22 22 22 25 27 27 27 26 26 27 26 26 24 22 21 25 27 28 28 28 26
28 33 32 32 32 32 28 26 22 20 19 19 19 19 19 19 19 18 17 17 18 19 19 19 20 20 22 24 26 25 25 26 25 25 24 22 21 19 16 19 22 24 25 26
30 32 30 27 25 26 26 24 23 19 18 18 17 17 16 15 15 14 15 16 16 16 16 17 18 19 21 22 22 21 21 22 22 21 21 19 17 16 15 13 12 13 18 21
25 25 28 24 21 20 21 21 20 19 17 16 15 14 13 12 12 13 13 14 13 13 14 15 16 17 20 21 20 19 20 19 19 19 18 17 16 15 14 13 12 12 13 13
21 20 23 21 19 18 17 17 17 17 19 16 14 14 13 12 12 12 12 12 10 10 13 13 14 17 19 18 18 18 18 18 17 17 16 15 14 13 11 10 8 7 7 8
17 17 18 19 18 16 16 16 16 16 14 14 14 13 12 11 10 10 10 11 11 11 12 13 13 15 17 16 16 16 16 16 16 16 15 14 14 12 10 8 6 4 4 7
19 18 18 18 17 16 14 14 13 12 12 12 10 8 7 7 7 7 7 9 9 9 10 11 14 13 14 15 14 14 14 14 14 13 13 12 11 10 8 6 5 4 3 4
17 16 16 16 15 14 13 12 12 11 10 8 5 3 3 2 4 2 3 3 4 5 7 9 15 11 11 15 14 13 13 12 12 11 11 10 9 8 6 4 2 1 1 0
14 13 13 12 13 12 12 12 10 8 7 3 -2 -3 -3 -4 -4 -5 -3 2 4 3 5 7 9 9 9 10 10 10 8 8 8 7 6 5 3 2 3 2 0 -3 -5 -4
10 10 9 9 7 6 3 -1 1 0 -4 -4 -2 -5 -6 -3 -2 -2 0 2 4 5 8 8 7 7 8 7 7 6 4 4 3 3 2 0 -1 -1 -2 -4 -4 -6 -6 -6
3 3 -1 0 3 3 1 -2 -1 -5 -4 -6 -10 -11 -9 -6 -6 -3 -2 3 7 3 5 6 6 3 4 5 5 4 4 2 1 1 -0 -2 -4 -6 -7 -7 -8 -10 -11 -13
0 2 2 -1 -0 -1 -1 -2 -6 -5 -6 -10 -10 -8 -3 -0 -1 -4 -3 4 7 5 6 4 2 2 2 2 1 -1 -1 -2 -3 -4 -6 -7 -8 -10 -10 -11 -13 -12 -15 -13
1 3 0 1 3 7 3 -0 3 0 -4 1 -3 -7 3 -4 -3 8 6 2 -0 1 1 2 1 0 -2 -3 -4 -6 -7 -9 -10 -10 -9 -12 -17 -15 -15 -17 -16 -18 -18 -17
4 2 3 2 5 3 5 6 7 7 8 8 6 7 7 7 -4 -0 -3 -2 3 -1 -3 -4 -3 -6 -9 -9 -10 -11 -12 -14 -15 -14 -16 -17 -19 -20 -20 -18 -20 -21 -23 -23
8 8 8 9 11 11 11 12 10 9 6 0 -1 -11 -9 -6 -1 -2 -4 -4 -4 -5 -9 -14 -15 -13 -13 -12 -14 -14 -14 -12 -17 -17 -20 -21 -22 -21 -23 -23 -25 -25 -26 -27
12 12 13 13 13 13 12 12 10 7 5 -6 -7 -10 -6 -11 -12 -7 -15 -18 -18 -15 -17 -19 -19 -17 -17 -21 -19 -20 -21 -22 -23 -22 -27 -27 -28 -28 -29 -29 -29 -29 -28 -29

GFSNGP_sfc_dewp_099.txt.gz
Dewpoint
25 26 29 27 27 26 24 27 28 25 26 26 33 38 44 46 43 42 42 41 40 40 43 44 46 48 50 54 56 56 55 55 55 55 55 54 54 54 53 52 52 53 53 53
22 23 26 23 22 19 21 25 26 25 25 30 36 39 45 45 42 40 39 38 38 38 38 41 43 44 44 46 52 55 56 55 55 55 55 55 54 55 54 53 52 52 51 52
14 23 22 14 18 18 29 32 32 30 33 35 38 40 42 41 40 39 39 37 37 37 36 36 40 42 41 41 42 43 44 44 46 49 50 52 55 54 54 54 54 53 52 52
21 21 9 13 20 25 25 28 35 37 38 40 39 37 37 37 37 37 37 36 35 35 35 35 38 39 40 39 39 38 38 38 40 42 42 44 45 46 47 50 54 54 53 53
20 18 17 19 31 29 29 23 37 40 40 39 40 39 34 35 35 35 36 35 34 34 34 34 35 37 37 37 34 34 34 34 35 37 37 39 40 41 42 45 44 40 39 41
23 17 13 22 31 35 35 25 36 39 41 37 39 34 33 33 34 33 33 32 31 31 31 31 33 35 35 34 32 32 32 32 33 34 35 36 37 38 40 40 37 36 34 33
25 21 22 33 34 35 15 26 37 37 38 38 34 33 32 33 32 33 30 29 30 29 28 29 30 33 32 33 31 31 31 31 32 32 33 33 34 35 36 36 34 33 31 30
24 22 19 35 33 30 33 34 35 35 34 33 33 32 31 31 30 29 29 26 27 27 27 27 28 30 30 31 31 30 30 30 30 30 30 31 32 33 33 33 32 31 30 29
28 30 36 36 35 35 34 33 34 35 35 34 31 30 29 27 24 23 23 24 25 25 25 26 27 28 28 30 31 29 29 28 28 28 29 29 30 30 30 30 30 30 29 29
30 33 32 35 35 35 34 30 30 31 31 31 28 28 26 25 22 21 22 22 23 23 23 24 24 26 28 29 29 29 28 27 26 26 26 26 27 28 29 29 28 28 28 28
31 31 34 32 33 32 31 31 28 27 27 28 26 25 24 22 22 20 20 20 21 21 21 21 22 23 25 27 28 27 27 27 26 25 24 23 25 27 27 29 28 27 28 27
25 30 30 30 32 31 28 26 26 23 21 21 21 20 20 19 19 18 18 18 19 19 19 19 20 21 23 24 26 27 26 26 27 26 25 23 22 22 25 26 26 26 26 27
28 33 30 30 31 30 27 23 20 19 19 18 18 18 17 16 16 17 16 16 17 17 18 18 19 19 21 23 24 24 25 26 25 24 23 22 22 21 20 20 22 24 25 25
30 32 28 26 24 24 24 21 20 17 17 16 15 14 14 13 13 13 14 14 15 15 15 16 17 19 21 22 22 22 23 22 23 23 22 21 21 20 20 20 19 18 19 22
27 28 26 25 19 18 19 19 18 17 16 15 14 13 12 12 12 12 13 12 12 13 14 15 16 18 21 21 21 22 22 22 22 22 21 20 20 19 18 18 17 16 17 16
20 23 21 18 17 16 16 16 15 16 15 14 13 13 12 12 11 12 12 12 11 12 13 14 14 17 19 19 19 19 20 19 19 20 19 19 18 17 15 14 13 13 12 13
19 17 18 18 17 15 14 15 14 14 13 12 13 13 12 10 10 10 11 12 12 12 12 13 14 15 17 17 19 19 19 18 17 18 17 17 16 15 14 12 11 10 9 10
18 17 17 17 16 14 13 13 12 12 12 11 10 8 8 8 8 8 8 10 9 9 10 11 14 13 14 16 17 18 18 17 17 16 16 15 14 13 12 11 10 9 9 6
16 16 16 15 14 13 12 12 11 11 10 8 6 5 5 5 6 6 7 6 7 7 8 10 13 12 12 15 15 16 16 16 15 14 13 12 13 11 10 8 7 6 6 5
13 13 13 12 13 12 11 11 10 8 8 6 3 3 3 3 3 4 5 6 6 8 9 9 10 11 11 10 11 11 13 13 11 11 11 9 10 9 7 4 5 5 6 5
11 11 10 10 8 6 4 5 5 4 1 1 3 1 1 2 2 3 5 5 7 8 8 8 7 8 7 7 8 11 11 10 9 8 8 8 7 6 6 5 4 4 4 3
9 7 5 6 6 6 4 6 5 3 3 1 -2 -2 1 3 3 4 4 6 7 6 6 6 6 4 4 6 7 8 7 7 7 7 7 7 6 5 4 4 3 2 2 1
8 8 7 6 7 7 6 6 3 4 3 2 3 5 6 6 6 4 3 7 7 7 5 5 4 3 4 6 6 6 5 4 4 4 4 4 4 4 3 2 2 1 1 -0
8 9 7 7 7 9 8 8 8 7 5 6 5 3 7 7 7 6 6 4 3 5 6 5 3 2 3 5 5 4 3 3 3 3 2 -1 2 1 2 1 1 1 -1 -2
10 9 8 8 10 10 9 9 9 8 8 7 7 8 8 8 8 6 6 5 4 4 5 -0 -1 -1 3 4 3 2 3 3 2 2 1 1 1 0 1 0 -1 -1 -1 -1
11 11 11 11 13 13 12 11 10 10 8 7 7 7 8 8 8 8 7 3 3 1 4 4 3 3 3 3 2 2 2 1 2 1 -0 -0 -1 -1 -2 -2 -2 -2 -1 -1
14 13 14 13 13 13 12 12 13 12 10 9 7 7 7 7 6 5 -0 5 4 4 4 4 4 2 3 3 2 2 1 2 -3 1 0 0 -1 -0 -2 -3 -2 -3 -4 -5

GFSNGP_sfc_dewp_102.txt.gz
Dewpoint
22 24 24 24 23 22 20 22 24 21 23 26 31 36 39 44 41 40 41 38 37 39 40 42 44 45 47 54 55 56 56 56 55 55 55 54 54 54 55 55 54 54 54 55
17 21 21 19 17 13 15 22 26 27 27 34 39 40 40 40 39 38 37 37 36 37 37 40 41 42 43 44 46 48 49 50 55 56 55 55 55 54 54 54 54 54 53 54
15 16 15 12 15 18 20 23 28 28 34 38 33 32 32 35 36 35 35 35 34 35 35 38 40 41 40 40 41 42 42 43 44 47 49 50 54 55 55 55 55 53 53 53
17 18 4 16 24 23 21 29 35 37 37 34 33 33 32 34 33 33 34 34 34 33 34 36 38 37 38 38 39 37 37 38 39 40 41 43 44 45 47 49 47 50 48 53
18 13 17 26 28 28 27 27 34 37 39 37 37 36 33 34 33 33 34 34 34 34 33 35 36 37 35 35 35 34 34 35 36 37 38 39 40 41 43 42 39 37 37 38
21 14 12 26 29 31 31 26 34 35 37 39 37 37 31 33 32 32 34 33 31 31 31 33 35 35 34 33 33 33 34 34 34 36 37 37 38 39 38 37 35 34 32 33
24 21 23 31 30 32 23 28 35 34 32 31 29 32 32 32 31 32 33 31 31 29 28 29 31 34 33 32 31 32 32 33 33 33 34 35 36 36 35 34 33 32 31 31
25 22 20 35 30 29 34 34 35 34 33 32 32 32 31 30 30 30 30 26 26 26 26 27 28 30 30 31 32 31 30 30 30 31 32 32 34 34 34 33 32 31 31 30
28 28 33 34 32 32 32 31 33 34 34 32 32 30 30 28 27 26 26 25 24 24 25 25 26 27 28 30 30 30 30 29 29 29 29 30 31 32 32 33 33 32 32 32
33 31 31 33 33 32 30 30 30 30 30 29 28 28 27 25 24 22 22 21 22 23 23 23 24 25 27 29 29 29 28 27 27 26 27 28 28 28 30 31 30 30 30 30
32 32 30 29 31 31 30 29 28 27 27 27 26 24 23 22 20 19 19 20 21 21 22 21 22 23 25 26 28 27 28 27 26 25 25 25 25 27 27 29 29 29 29 30
28 31 30 30 31 30 27 26 26 24 21 21 21 20 20 19 18 18 18 18 19 19 20 20 20 22 23 25 26 28 27 27 28 27 27 25 23 22 25 26 26 26 27 27
30 32 31 31 32 30 27 25 20 19 19 18 18 18 17 17 17 18 17 17 17 18 19 19 20 21 22 24 25 25 26 26 26 25 25 25 25 25 22 23 22 24 25 25
32 32 29 26 25 25 22 20 19 17 17 17 16 16 16 15 15 15 15 15 16 16 17 18 19 21 23 24 24 25 26 26 27 27 26 26 25 25 25 24 23 22 20 21
28 28 27 25 21 18 19 19 18 17 16 16 15 15 14 14 14 14 14 14 14 14 16 17 18 20 22 24 24 24 25 25 25 25 25 25 25 24 24 23 22 22 22 20
25 24 23 21 17 16 16 16 16 16 16 15 14 14 13 13 14 14 14 14 14 14 15 16 17 18 20 21 22 23 23 22 23 23 23 23 23 23 22 21 20 19 18 18
19 18 19 18 17 15 15 15 16 15 14 14 14 14 13 12 12 13 13 14 14 15 15 16 17 17 19 20 22 22 23 23 21 22 22 22 22 21 20 19 19 17 15 15
18 17 17 17 16 15 14 14 13 13 13 13 12 12 11 11 12 11 12 12 12 12 13 14 15 17 17 19 21 22 22 21 21 21 21 21 20 19 19 18 17 16 15 12
16 16 16 15 15 14 13 13 13 12 12 11 10 10 10 10 10 10 11 10 10 11 11 13 14 15 16 16 18 20 20 20 19 18 18 17 18 17 16 16 14 13 12 11
14 14 14 14 13 13 13 13 13 12 11 10 9 9 8 7 8 8 10 9 10 11 12 12 13 14 13 13 14 16 18 18 16 17 17 16 16 14 12 9 11 12 13 12
16 15 14 13 12 11 11 11 10 9 8 7 6 5 6 7 8 8 10 11 10 10 10 9 8 9 8 9 10 16 16 16 16 15 14 15 14 12 13 12 12 12 11 10
14 12 11 11 11 11 11 12 10 9 8 6 4 4 6 7 7 8 8 9 9 7 7 8 7 7 7 8 10 14 12 12 13 13 13 13 13 12 11 11 10 10 9 9
14 14 13 12 13 13 12 11 10 9 8 8 8 8 9 10 10 9 8 8 7 7 7 8 5 6 7 12 12 11 10 9 10 10 10 11 11 11 10 9 8 8 8 7
15 15 14 14 13 13 13 13 12 11 10 10 9 8 9 12 12 8 8 7 5 7 8 7 6 5 5 10 9 9 9 9 8 8 7 4 9 8 8 7 7 7 6 5
15 14 14 13 14 15 14 14 12 12 10 10 9 8 7 8 11 10 11 10 5 7 9 4 4 4 8 8 8 7 8 8 7 8 7 7 7 7 8 7 5 6 6 5
16 15 15 15 16 14 14 13 12 12 10 12 12 14 14 12 11 10 10 7 7 6 8 10 8 8 8 7 7 6 7 6 7 6 4 6 5 5 5 3 3 4 5 4
17 16 15 14 13 13 13 12 13 13 14 15 12 13 11 12 12 8 6 10 10 9 9 10 9 7 6 6 7 7 7 7 4 5 5 6 5 6 4 3 4 4 3 1

GFSNGP_sfc_dewp_105.txt.gz
Dewpoint
28 27 27 27 27 26 27 24 22 23 27 36 37 38 37 37 36 36 37 36 37 36 36 35 40 41 44 47 55 56 56 57 57 58 58 57 55 55 56 56 55 55 55 56
20 21 22 22 18 14 13 17 22 22 33 35 35 34 33 34 34 33 34 35 34 36 35 34 38 38 40 41 43 46 46 47 54 56 55 56 55 55 55 55 54 55 55 56
17 14 13 14 17 17 18 31 32 34 37 36 33 32 31 32 33 32 32 33 34 33 35 35 37 38 38 38 39 40 40 41 44 47 48 49 54 54 54 55 55 55 55 55
16 17 10 21 23 22 29 31 32 35 37 36 32 32 32 34 32 32 33 33 34 32 33 35 36 37 37 37 37 37 37 38 40 41 42 44 45 46 46 45 44 44 44 43
17 13 18 25 25 26 26 32 31 33 36 38 35 35 33 33 34 33 33 35 34 34 32 34 35 36 36 36 35 35 35 36 38 39 38 39 39 39 40 38 36 36 36 36
21 12 18 30 29 29 28 30 34 33 33 34 34 36 32 34 33 33 34 35 34 34 31 33 33 35 34 34 34 34 33 35 36 37 38 37 37 36 36 35 34 33 32 32
23 20 27 32 32 32 28 28 34 33 32 33 30 32 33 33 32 33 34 28 29 27 27 28 32 34 33 33 32 34 34 34 34 35 36 36 37 36 35 33 33 32 31 31
24 22 24 32 30 30 33 34 35 33 33 32 31 32 31 31 31 31 32 31 26 26 26 26 27 29 31 31 32 33 33 32 32 33 33 35 35 36 35 35 34 33 32 32
28 27 32 32 31 33 32 32 32 33 33 33 32 31 31 29 27 24 23 24 25 25 25 25 26 26 27 29 31 31 30 29 30 31 30 29 31 33 33 33 33 33 32 32
30 30 30 31 30 31 31 31 30 31 30 29 28 28 27 25 23 21 21 21 22 23 23 23 24 25 26 28 29 29 28 28 27 26 26 28 28 28 28 31 31 31 31 30
31 30 30 28 29 31 30 29 28 26 26 26 26 24 24 22 21 20 20 20 21 21 22 22 22 23 24 26 28 28 29 28 28 27 24 23 24 26 27 28 28 29 28 29
29 33 31 29 29 29 28 27 25 23 22 21 21 20 21 20 20 19 19 19 19 20 21 21 21 22 23 25 25 27 27 27 28 28 28 25 23 22 25 26 26 27 27 27
31 31 32 32 30 29 26 24 20 20 19 19 18 19 19 18 18 19 17 18 18 19 20 20 20 21 23 25 26 25 26 26 27 26 27 26 26 25 23 23 23 23 24 24
31 31 29 29 26 26 24 21 20 18 18 18 17 17 18 17 17 16 16 16 16 17 18 19 20 21 24 26 24 28 28 27 28 28 28 28 27 27 27 25 23 22 22 22
28 28 28 27 24 21 19 19 19 17 18 18 17 17 16 16 15 15 15 15 16 16 17 17 18 20 22 25 28 25 25 27 27 27 27 27 26 26 26 24 24 24 25 23
25 25 24 21 18 17 17 17 17 17 17 17 16 15 15 15 15 15 15 15 15 15 16 18 17 19 20 21 25 24 24 25 26 26 27 26 26 25 24 23 22 20 19 20
22 21 20 19 18 17 17 17 17 16 15 15 15 15 15 14 14 14 15 15 15 14 15 15 17 18 19 21 26 25 25 24 24 24 24 24 24 23 23 22 20 18 17 17
20 20 19 19 18 17 15 15 15 15 15 15 14 14 13 14 14 13 14 14 15 14 13 14 16 17 18 18 23 24 24 23 23 23 22 23 22 22 22 21 20 18 16 14
18 18 18 17 17 16 15 15 15 14 14 13 13 12 12 12 12 12 12 12 12 13 13 13 15 16 17 16 19 21 22 22 21 20 21 21 21 20 20 19 17 16 14 14
16 16 15 15 15 15 15 15 15 14 13 13 11 10 10 9 9 10 13 12 11 12 13 13 13 14 13 13 14 16 19 20 18 18 18 18 19 17 15 11 14 15 15 14
18 18 17 16 15 14 14 14 13 11 9 9 9 8 8 9 9 10 13 14 13 11 12 10 9 8 8 10 11 17 17 17 17 16 17 17 16 15 15 15 14 14 14 13
18 16 14 14 14 13 14 14 12 11 10 8 7 8 9 13 11 12 10 10 12 8 9 9 6 7 8 11 11 15 13 13 14 15 15 15 14 14 13 13 12 12 12 11
17 16 15 14 15 15 14 13 12 11 10 10 9 11 12 11 11 11 12 9 8 8 9 10 5 6 9 13 14 13 12 11 12 12 12 12 12 12 12 11 11 10 10 9
18 17 17 17 16 15 16 15 15 13 11 13 11 9 11 13 17 10 9 9 5 9 9 7 6 6 9 13 12 11 11 11 11 11 10 7 11 10 10 9 8 9 8 6
17 17 17 16 16 18 15 16 14 14 13 11 11 9 9 9 12 11 11 12 5 8 12 6 5 7 11 11 10 9 10 10 8 10 9 9 9 8 9 8 6 7 7 6
19 17 17 17 17 15 14 13 12 12 11 13 14 17 16 14 12 11 12 9 8 7 10 11 10 9 11 9 8 8 8 8 9 8 6 7 7 6 6 5 5 6 6 6
18 15 15 14 13 12 12 12 13 14 17 17 14 16 12 13 13 9 9 12 11 11 11 12 11 9 8 8 8 8 8 8 7 6 6 7 6 7 6 5 5 5 4 4

GFSNGP_sfc_dewp_108.txt.gz
Dewpoint
35 31 26 30 27 26 26 22 23 30 33 33 34 33 33 33 33 33 33 33 33 34 35 36 36 37 38 39 41 45 51 56 57 59 59 59 58 57 57 56 56 56 56 56
32 32 31 32 18 15 28 31 33 38 35 33 32 31 32 32 32 32 33 33 33 33 33 35 36 35 37 37 38 40 41 42 46 53 56 57 57 56 57 56 55 55 55 56
17 17 19 20 22 29 28 30 32 32 35 34 31 30 30 31 31 32 33 33 33 33 33 34 36 37 36 36 37 37 37 39 40 43 45 48 54 54 53 53 55 54 54 45
18 19 22 27 30 30 30 30 31 34 36 34 31 32 32 33 32 31 33 33 33 32 32 34 35 37 36 36 35 35 36 36 38 39 40 40 42 42 42 42 42 42 41 40
21 17 24 28 30 30 31 30 32 32 32 37 35 35 31 33 33 32 33 35 34 34 33 34 34 35 35 34 34 34 34 35 36 37 37 36 36 36 36 35 34 34 34 34
25 16 21 28 28 31 31 27 33 31 32 32 34 32 28 32 32 32 34 31 30 29 29 32 34 34 34 33 32 32 33 33 35 36 35 35 34 34 35 34 33 32 31 32
26 24 27 28 30 31 26 26 34 32 32 31 29 30 32 33 32 33 34 33 27 27 26 27 30 33 32 33 32 32 34 33 34 34 35 35 34 34 35 34 33 32 32 31
28 25 22 30 28 26 31 35 35 33 32 31 31 31 31 32 32 28 28 25 25 25 25 26 26 27 30 32 33 33 32 32 32 32 32 33 33 35 35 34 33 32 32 31
26 26 31 31 31 33 32 32 32 31 31 32 31 30 31 28 24 22 21 22 23 23 23 24 25 25 26 28 31 32 32 29 29 28 29 31 29 29 31 32 32 30 30 29
30 30 30 30 30 29 30 30 29 28 27 27 26 26 25 23 22 21 20 21 21 22 22 22 23 24 26 27 29 30 30 30 29 26 25 26 27 27 27 28 28 27 29 26
29 30 29 28 29 29 28 27 25 25 23 23 23 22 22 21 20 19 19 20 21 21 22 21 22 23 25 26 27 28 28 29 30 26 24 23 24 25 25 27 27 26 25 26
27 33 30 29 28 28 27 25 23 21 21 20 20 19 20 19 19 18 18 19 19 20 20 20 20 21 25 25 26 27 28 29 30 30 28 24 22 22 24 25 26 26 27 26
30 32 32 31 29 27 24 21 20 19 19 18 18 19 19 18 17 19 17 17 17 18 19 19 19 21 23 27 26 27 26 28 28 28 28 29 28 23 20 22 24 25 26 26
32 30 28 28 26 25 23 21 20 19 18 18 18 17 18 17 17 16 16 17 17 17 17 17 17 20 23 26 25 26 28 27 28 28 28 28 27 27 26 23 21 21 23 23
28 28 28 26 25 21 19 19 18 18 18 17 17 17 16 16 16 16 15 14 15 15 15 16 16 19 21 23 28 25 25 27 28 28 28 27 27 26 26 24 23 22 24 25
25 25 23 20 17 17 18 19 18 17 17 17 16 16 16 16 15 15 14 15 12 14 14 16 16 20 19 20 24 26 25 25 26 26 26 26 25 25 24 22 19 18 18 18
23 22 21 20 18 17 17 17 17 16 16 15 14 14 14 15 14 13 14 14 16 14 14 14 16 18 18 18 20 26 26 26 25 25 25 25 24 24 23 20 17 16 16 17
21 21 21 21 19 17 16 16 16 15 14 14 14 14 13 13 13 13 13 15 16 15 14 13 14 16 16 16 18 24 25 25 23 23 23 23 23 23 22 21 20 17 16 15
19 18 19 18 18 17 16 15 15 14 14 14 14 12 11 10 11 12 14 11 10 11 12 13 15 16 15 16 16 20 21 22 21 21 23 20 19 18 20 20 17 17 15 15
17 17 16 16 16 16 16 16 15 13 13 13 10 10 10 7 8 9 12 12 10 11 14 14 12 12 13 14 15 17 19 19 18 19 18 18 20 18 15 11 15 16 14 13
19 18 17 16 14 14 14 14 12 10 9 7 8 7 7 10 9 8 11 16 12 10 14 12 8 7 9 10 12 17 17 17 17 17 17 17 17 16 15 15 14 14 14 13
18 16 14 14 14 14 15 15 13 10 10 7 5 5 8 13 15 12 9 10 12 7 11 10 5 5 7 9 14 15 13 14 14 15 15 15 15 14 13 13 12 12 11 10
17 16 16 15 15 16 15 14 11 12 10 10 9 10 12 14 13 11 11 9 7 8 9 8 3 4 6 15 14 13 13 12 12 12 11 13 12 12 12 9 11 11 10 9
19 18 17 19 17 15 14 14 15 15 12 14 11 9 12 13 16 14 12 8 4 5 10 7 6 5 6 14 12 12 12 12 11 12 11 7 11 11 10 9 8 10 8 6
19 18 18 17 17 17 17 18 15 16 14 13 13 12 12 10 14 13 13 13 9 8 13 5 3 4 13 13 11 10 11 11 8 9 9 9 9 9 9 9 5 5 2 5
18 17 18 19 19 15 14 13 13 14 14 16 17 19 16 16 13 12 15 11 11 7 12 13 14 11 12 10 9 11 10 10 11 10 7 9 9 7 7 4 3 5 6 6
20 18 16 15 13 12 13 12 13 15 17 19 17 18 14 15 15 11 10 14 15 14 14 15 14 13 10 10 9 10 10 10 10 9 6 6 8 8 8 5 5 5 3 1

GFSNGP_sfc_dewp_114.txt.gz
Dewpoint
34 35 35 33 35 35 34 33 27 28 26 27 28 28 30 29 30 30 31 31 31 31 32 34 34 35 35 36 37 37 37 38 40 41 43 46 57 57 58 57 57 57 57 57
31 33 32 30 32 33 34 33 31 28 26 30 30 28 27 29 29 30 31 30 30 30 31 33 34 34 35 34 35 36 36 36 38 39 40 40 43 53 57 57 57 57 57 56
26 32 30 23 29 30 30 31 32 28 30 30 25 25 26 27 29 30 32 29 30 30 31 32 33 34 33 33 34 34 35 35 36 37 38 38 38 39 40 44 49 48 47 46
27 28 17 29 34 29 28 31 31 31 29 28 26 28 28 28 28 29 32 29 29 30 30 31 32 33 34 33 32 32 32 33 34 35 36 37 37 35 35 35 36 37 36 37
27 25 27 24 27 27 27 27 34 30 32 30 30 29 26 30 31 31 32 29 27 27 29 29 30 32 31 31 30 30 30 31 32 33 34 34 34 34 34 33 33 32 32 33
28 21 18 24 27 28 29 22 34 31 29 27 31 22 24 29 31 28 29 27 25 25 25 27 28 30 31 31 29 29 29 29 31 32 32 33 33 33 33 33 33 32 31 32
26 23 24 27 28 30 21 23 34 31 28 27 24 26 29 31 27 27 26 24 24 23 22 23 25 28 28 30 31 30 29 29 29 29 30 31 32 32 32 32 33 32 31 31
24 19 16 30 26 26 30 33 32 32 30 28 29 29 26 25 24 23 23 22 21 21 21 22 24 25 26 28 32 31 28 27 27 27 28 29 29 30 30 31 29 29 30 30
25 23 31 32 32 33 32 30 27 27 30 30 27 24 24 22 21 21 20 21 20 20 20 21 22 23 24 27 28 30 26 24 24 25 25 26 26 27 27 27 28 27 27 27
26 30 30 31 31 29 27 28 25 23 24 24 22 21 21 20 19 19 19 19 19 19 18 18 20 21 22 26 27 27 28 24 23 23 23 24 25 25 26 25 25 26 26 27
28 29 30 31 31 28 25 24 21 21 22 22 21 19 19 18 18 18 18 18 18 17 17 17 18 19 20 23 25 25 26 27 26 22 21 21 24 25 26 28 28 26 27 28
25 31 29 30 29 27 23 21 21 20 19 19 19 18 17 17 18 18 17 16 16 16 15 15 16 17 18 21 24 25 24 25 26 27 23 21 20 21 26 27 28 29 30 28
30 32 31 31 28 24 21 20 19 18 18 18 18 18 17 16 15 16 16 15 14 13 14 14 15 16 17 20 22 24 24 25 24 25 25 24 21 20 18 21 26 27 27 28
31 30 28 29 25 24 20 19 20 18 18 18 17 17 16 15 15 12 12 12 12 11 12 13 14 15 18 19 21 22 21 23 23 22 21 21 19 18 17 17 16 17 23 25
29 29 27 22 20 20 19 18 17 16 16 16 17 17 15 14 14 14 12 11 9 8 11 12 13 13 15 17 18 22 21 22 20 20 21 21 18 17 16 15 15 15 17 18
27 25 21 19 18 18 17 17 16 15 15 14 14 15 14 13 12 13 14 12 10 10 10 8 11 12 13 14 15 20 20 17 17 18 17 20 15 13 14 14 14 15 14 15
24 22 19 18 18 17 17 17 16 15 14 13 12 13 13 11 11 11 11 14 10 7 11 9 6 8 10 10 11 13 18 15 12 14 15 18 16 8 9 12 13 13 13 14
23 22 20 19 18 17 16 15 14 13 13 13 10 5 2 2 5 4 5 3 3 3 4 2 3 3 5 8 10 12 12 11 13 15 11 10 14 15 10 7 12 13 11 11
20 20 20 18 17 16 15 14 13 13 9 7 2 -1 -4 -6 -2 -4 -3 -6 -7 -6 1 -2 10 2 4 8 11 12 12 12 13 12 12 6 6 13 11 10 8 4 5 6
18 18 17 17 17 16 15 14 12 9 4 1 -8 -9 -7 -8 -11 -11 -8 -3 -5 -1 -4 -4 0 3 6 8 8 11 8 8 12 12 12 9 4 1 6 9 6 -0 -1 -0
15 14 13 12 9 7 4 2 0 -4 -8 -11 -7 -8 -8 -8 -11 -10 -4 -0 -3 -2 2 3 3 4 8 6 9 5 2 2 4 5 6 7 6 5 -4 -6 2 4 3 5
9 7 5 5 5 0 -3 -2 -1 -7 -7 -9 -13 -14 -10 -4 -8 -4 -6 0 4 0 5 4 4 -2 3 2 6 2 5 2 -1 -3 -2 -4 0 2 2 1 0 -2 -4 -5
8 8 7 5 5 5 -1 -1 -5 -4 -5 -7 -6 -7 -5 1 3 2 1 5 6 1 6 1 -4 -5 -5 -5 -8 -8 -6 -8 -8 -6 -9 -8 -8 -12 -10 -7 -8 -7 -7 -4
8 9 7 7 6 9 6 2 4 6 -1 -0 -0 -3 3 1 -0 9 8 2 -2 -6 -5 -2 -6 -3 -7 -8 -11 -13 -11 -13 -13 -15 -7 -8 -12 -11 -11 -13 -11 -14 -15 -14
11 9 9 8 10 10 10 9 9 9 12 12 12 13 8 10 4 4 0 2 3 1 -2 -4 -2 -2 -11 -11 -14 -13 -13 -11 -8 -15 -16 -16 -11 -12 -12 -12 -16 -17 -18 -13
14 14 15 13 13 14 15 16 14 14 15 13 14 11 11 9 9 5 1 -0 1 3 -2 -6 -8 -4 -7 -10 -12 -14 -9 -6 -7 -3 -11 -14 -15 -9 -8 -10 -15 -16 -15 -15
15 15 16 16 16 17 15 13 10 7 4 -2 3 8 11 9 2 2 -4 -7 -6 -7 -8 -8 -9 -7 -6 -8 -5 -9 -10 -10 -9 -9 -14 -16 -17 -12 -9 -11 -13 -14 -17 -19

GFSNGP_sfc_dewp_117.txt.gz
Dewpoint
31 33 31 33 35 35 31 31 25 25 23 26 27 28 29 30 32 30 29 29 29 30 30 32 33 33 33 34 34 34 35 36 37 38 40 40 42 44 55 58 58 58 58 59
29 29 26 27 30 32 30 28 27 23 23 28 28 29 28 29 30 29 27 27 28 28 29 30 32 31 32 32 32 32 32 33 35 36 37 38 38 39 38 41 52 57 57 57
27 30 29 20 27 28 28 31 31 23 25 28 25 25 26 28 29 28 25 25 27 28 29 30 31 32 31 30 31 31 31 31 32 34 35 36 36 36 36 35 37 38 42 44
27 29 16 27 31 31 28 29 31 27 27 27 25 27 28 29 28 29 26 25 25 27 28 29 30 31 32 29 29 29 29 29 31 32 33 34 35 34 35 36 34 34 35 36
26 22 26 26 26 27 26 26 31 29 29 28 28 30 26 28 28 29 26 25 25 25 26 27 27 29 30 29 28 28 28 28 29 31 31 31 32 33 34 34 34 33 33 33
28 20 17 24 27 32 29 21 31 28 27 25 30 21 23 26 26 26 26 23 22 22 23 24 26 27 28 29 27 26 27 27 28 28 29 29 31 31 33 33 32 33 32 32
25 22 23 26 30 35 22 22 33 28 26 24 22 25 27 25 23 23 23 21 21 21 21 21 23 25 25 27 29 26 26 26 26 27 28 28 29 30 30 31 31 32 31 31
23 18 16 29 27 24 29 31 33 31 28 28 26 24 23 22 21 21 21 19 18 19 19 20 21 22 22 25 28 30 25 23 23 24 26 27 27 28 29 29 28 28 29 29
24 22 29 31 30 32 30 25 24 28 28 25 24 22 22 21 20 19 18 18 18 17 18 18 19 20 20 23 26 27 28 23 23 23 24 25 25 26 26 27 27 27 27 28
25 29 29 30 28 25 25 24 24 25 23 21 20 20 19 19 18 17 17 17 16 16 16 16 17 18 20 21 24 25 25 26 23 22 22 24 24 25 26 26 25 26 27 27
26 29 29 30 26 25 23 22 21 22 22 21 19 19 18 18 17 16 15 15 15 15 14 15 16 17 18 20 23 23 23 24 26 22 21 21 22 25 26 27 29 25 26 27
23 28 28 29 26 24 22 21 21 20 19 19 18 17 16 16 16 16 15 13 13 12 13 14 15 16 17 19 22 23 22 23 23 24 22 21 20 19 23 25 26 28 29 26
31 32 31 30 25 23 21 19 19 19 19 17 17 16 15 14 13 14 12 11 10 11 12 13 13 13 15 18 21 22 22 23 22 22 22 21 19 18 16 19 21 23 25 26
30 29 27 27 23 21 20 19 20 18 18 17 16 15 14 14 13 11 10 8 8 10 11 12 11 11 14 17 19 20 18 18 18 19 17 15 13 11 11 11 11 15 20 21
29 28 25 22 20 19 18 18 16 16 16 16 16 14 14 13 13 13 11 9 8 8 8 9 9 9 12 15 17 19 19 17 16 14 17 13 11 10 10 10 10 12 15 15
23 21 21 19 19 18 17 16 16 15 15 15 15 14 12 11 11 12 14 11 9 8 9 5 7 7 11 12 13 16 17 15 12 13 15 12 9 8 10 11 11 11 12 12
20 19 19 18 18 17 17 17 16 14 13 13 13 13 12 11 11 10 8 9 8 4 7 4 2 4 7 8 7 10 9 9 10 10 9 14 9 5 5 7 9 9 9 11
23 20 20 19 18 17 16 15 14 14 13 11 8 4 1 1 3 2 0 1 1 2 1 -2 -2 1 3 3 5 8 11 10 10 10 7 5 10 12 8 4 5 5 5 8
21 19 19 18 18 16 15 14 14 13 8 5 0 -4 -7 -9 -4 -7 -9 -9 -9 -7 -4 -4 8 1 2 5 8 7 6 6 9 11 9 4 4 7 5 1 -0 -3 1 1
19 19 18 17 16 15 14 12 11 8 4 0 -8 -8 -6 -10 -14 -14 -12 -6 -6 -3 -8 -4 -1 3 5 7 7 7 3 2 7 9 8 8 2 -2 0 4 3 -4 -8 -7
17 16 15 14 10 7 5 3 2 -1 -9 -12 -8 -9 -9 -12 -15 -15 -7 -2 -3 -4 0 2 2 3 7 4 6 0 -3 -5 -5 -2 -2 1 0 -1 -5 -2 0 -1 -3 -2
10 9 5 4 5 -2 -6 -6 -4 -8 -10 -12 -16 -17 -15 -7 -11 -9 -8 -0 3 -1 4 3 3 -3 2 -2 4 -5 1 -3 -6 -8 -9 -10 -5 -3 -2 -4 -8 -8 -10 -10
7 7 5 3 4 3 -1 -3 -8 -7 -9 -10 -9 -9 -5 -1 -0 -1 -1 4 5 2 4 2 -4 -5 -6 -11 -11 -13 -13 -13 -13 -11 -11 -14 -13 -13 -11 -8 -8 -12 -11 -7
6 7 5 6 7 8 5 -1 0 2 -6 -3 -2 -5 2 1 -1 8 8 2 -1 -5 -6 -3 -7 -3 -8 -13 -15 -15 -15 -16 -16 -18 -14 -15 -17 -14 -13 -13 -10 -14 -14 -14
9 8 8 6 8 7 8 6 7 7 9 10 10 12 7 8 5 4 1 1 2 2 -1 -4 -5 -5 -12 -15 -15 -17 -17 -17 -16 -17 -17 -19 -18 -14 -15 -18 -19 -19 -21 -19
12 12 12 11 11 11 12 13 11 12 12 8 8 5 7 10 10 5 1 -0 2 3 1 -4 -12 -13 -11 -9 -13 -15 -15 -9 -12 -12 -15 -17 -19 -17 -15 -10 -17 -18 -19 -20
14 14 15 14 15 15 14 13 11 9 5 -1 3 1 3 1 2 0 -2 -6 -4 -4 -8 -7 -12 -10 -8 -9 -7 -4 -11 -10 -12 -9 -13 -17 -20 -19 -15 -13 -13 -15 -17 -20

GFSNGP_sfc_dewp_120.txt.gz
Dewpoint
30 30 30 29 31 31 29 29 23 23 21 24 26 27 28 30 29 26 25 27 28 28 28 30 31 30 30 31 31 32 32 33 34 35 37 37 39 39 40 40 42 44 58 59
27 33 28 25 27 29 29 28 26 24 21 27 28 28 27 28 27 24 23 24 25 26 27 28 29 31 28 29 30 30 30 31 33 33 34 35 36 37 37 38 38 38 40 45
23 28 23 19 26 26 27 27 27 20 24 27 25 24 25 26 27 24 23 23 24 25 26 27 29 30 30 27 28 28 29 29 30 31 32 33 34 34 35 36 36 36 36 36
27 28 15 26 32 31 26 28 27 25 26 26 25 26 27 27 26 24 23 22 23 24 25 27 27 29 30 27 26 27 27 27 28 29 30 31 32 32 33 34 34 34 34 35
23 21 25 26 26 27 27 25 28 28 27 26 28 27 23 25 25 25 23 23 23 24 24 24 25 27 28 29 24 24 25 25 27 28 28 29 29 31 32 32 32 32 32 32
26 20 17 23 25 28 31 21 28 27 25 25 28 19 20 23 23 22 21 20 20 21 21 21 22 24 26 27 28 23 23 24 25 27 27 28 29 29 31 31 31 30 30 30
24 21 22 25 30 32 22 21 28 26 24 23 22 22 23 21 19 20 21 19 19 19 19 19 20 22 23 25 26 28 24 23 24 25 26 27 28 29 29 30 30 30 30 30
25 18 17 29 28 24 28 31 29 27 27 23 23 22 21 19 18 19 18 17 17 17 17 18 19 20 21 22 25 26 26 23 23 24 25 26 26 27 27 28 28 27 28 28
23 21 28 28 29 28 26 25 27 27 25 23 22 21 21 20 18 17 16 16 16 15 16 17 18 19 19 21 23 23 24 25 22 23 23 25 24 25 26 25 25 25 26 26
25 27 27 26 25 24 24 25 27 24 22 21 19 19 19 18 16 15 14 14 14 14 14 15 16 17 19 20 22 22 22 23 23 21 21 22 23 24 24 25 24 24 24 24
26 29 28 25 24 24 23 23 22 22 21 20 19 18 18 17 16 14 12 13 12 13 13 13 14 15 17 19 21 20 20 21 22 22 20 20 21 23 23 25 26 24 24 24
18 27 26 26 25 24 22 22 21 19 18 18 17 16 16 15 15 13 11 10 11 11 11 12 11 13 15 18 19 19 19 20 21 21 21 20 18 18 21 23 23 24 25 24
29 31 29 27 24 22 21 20 19 19 18 16 16 15 14 12 12 12 8 8 9 10 9 10 10 12 13 16 19 19 19 20 19 19 19 17 16 15 12 15 19 21 21 22
30 27 25 22 21 20 20 20 20 18 17 16 15 14 14 13 12 10 8 7 7 8 6 7 7 10 12 15 17 18 15 15 14 15 12 9 6 7 7 10 8 10 15 18
29 28 27 22 19 19 18 17 16 16 17 16 15 13 12 12 12 11 10 8 7 7 6 3 6 7 10 14 15 14 16 15 12 10 9 7 7 7 7 9 9 10 11 12
23 22 21 19 18 18 17 16 16 16 16 15 14 12 11 10 10 10 12 10 8 5 6 1 4 6 9 10 11 13 11 12 9 9 9 9 6 6 6 6 6 6 7 7
20 19 19 19 18 17 17 17 16 15 15 14 14 13 11 11 10 7 5 7 5 2 5 1 -2 4 6 5 4 7 7 8 7 8 7 8 5 4 3 3 3 3 1 -1
23 21 20 19 19 18 16 16 15 14 12 11 9 4 0 2 3 1 -3 -0 0 -0 -2 -6 -5 0 2 2 3 5 4 6 7 5 6 4 9 10 6 -1 -0 0 -2 3
21 20 20 19 18 17 16 14 14 12 7 3 -1 -5 -7 -9 -5 -8 -12 -11 -11 -8 -5 -7 8 0 -0 4 6 4 3 2 5 7 7 3 1 5 2 -3 -4 -7 -2 -1
20 19 19 18 17 15 14 13 11 8 3 -1 -7 -10 -7 -10 -15 -15 -15 -7 -7 -4 -10 -6 -2 2 3 5 5 5 0 -3 3 1 1 4 -2 -5 -4 0 -0 -7 -12 -10
18 17 16 14 10 7 5 4 3 -0 -10 -13 -8 -9 -9 -13 -17 -17 -8 -2 -4 -6 -1 1 1 2 5 3 4 -2 -6 -7 -7 -5 -8 -9 -4 -1 -9 -12 -9 -10 -7 -4
12 11 7 5 6 -1 -7 -6 -3 -6 -11 -14 -18 -18 -13 -7 -12 -11 -8 -0 2 -2 2 3 2 -3 1 -2 2 -7 -1 -4 -7 -8 -9 -12 -15 -15 -9 -9 -11 -12 -12 -9
8 8 6 4 5 2 -5 -6 -11 -9 -11 -13 -11 -12 -8 -1 -1 -1 0 3 4 1 3 1 -2 -6 -7 -12 -13 -15 -15 -14 -15 -15 -17 -19 -16 -13 -11 -5 -11 -18 -17 -13
5 6 3 3 5 6 3 -2 -1 0 -8 -5 -5 -6 0 -1 0 7 8 3 -3 -4 -7 -5 -7 -4 -8 -14 -15 -17 -18 -18 -18 -20 -13 -17 -22 -20 -12 -10 -8 -16 -19 -19
7 5 5 4 7 6 6 5 5 5 7 9 9 10 6 8 6 6 2 1 0 -0 -2 -3 -5 -7 -14 -16 -17 -17 -16 -19 -15 -20 -17 -20 -18 -20 -19 -15 -8 -15 -19 -22
10 9 9 9 9 9 10 11 8 9 10 6 6 2 2 4 9 8 7 1 -1 1 -1 -2 -10 -13 -15 -13 -13 -12 -11 -8 -12 -13 -10 -7 -8 -13 -18 -13 -10 -15 -17 -18
11 11 12 12 13 13 12 11 8 8 7 -0 2 0 1 -4 1 6 1 -6 -7 -7 -5 -6 -13 -11 -6 -4 -6 -6 -6 -9 -11 -7 -8 -9 -10 -10 -15 -12 -9 -7 -9 -9

GFSNGP_sfc_dewp_123.txt.gz
Dewpoint
31 30 28 27 29 30 27 29 24 22 20 23 25 26 27 29 27 22 22 24 24 25 26 28 30 29 27 29 31 31 31 32 33 34 35 36 36 37 37 38 39 41 40 41
28 32 28 25 27 28 27 25 25 23 20 27 27 27 26 26 25 23 21 22 22 23 24 26 28 29 26 26 29 29 29 30 31 32 32 34 35 35 35 35 35 36 37 38
25 30 27 19 25 26 26 26 27 21 24 27 24 23 24 24 24 22 22 22 23 24 24 25 26 29 28 25 26 27 27 27 28 30 31 32 32 33 34 34 33 33 32 34
26 30 17 27 32 30 26 28 26 25 25 25 23 24 25 24 22 22 21 22 23 23 23 25 25 27 29 28 25 25 26 26 27 28 29 30 31 31 32 33 32 32 32 31
25 21 25 27 26 27 27 24 27 28 27 26 26 26 21 23 23 22 22 22 22 23 23 23 24 25 26 27 27 25 25 25 26 28 28 28 29 30 32 32 32 32 31 31
25 20 18 23 25 29 30 21 26 24 25 26 28 23 20 21 21 21 21 20 19 20 20 22 23 24 24 25 26 25 25 26 26 27 27 28 30 30 31 32 32 32 32 32
25 21 21 25 28 31 23 23 26 24 23 23 21 23 22 21 20 20 19 18 18 17 17 18 20 22 23 23 25 27 27 26 26 27 28 28 28 30 30 31 31 30 30 31
25 21 18 27 31 25 29 30 27 25 22 22 22 22 20 20 19 17 17 16 16 16 17 17 18 19 20 22 23 24 25 26 25 26 26 27 27 28 28 27 27 27 27 27
23 22 28 29 28 28 29 28 28 24 23 22 22 21 20 18 15 14 13 14 14 15 15 16 17 18 18 20 21 22 23 23 24 24 25 26 25 25 25 25 25 25 25 25
25 27 26 26 24 25 28 29 26 23 21 20 19 19 17 16 14 12 12 12 13 13 13 14 15 16 18 19 19 19 20 21 21 22 21 22 22 23 23 25 23 22 23 24
26 28 26 24 23 25 24 23 21 21 21 20 19 17 16 15 12 9 9 10 10 10 11 12 14 15 16 18 18 17 18 19 20 19 18 17 20 21 21 23 23 23 23 23
24 29 27 25 24 24 23 21 20 19 17 17 16 15 14 12 9 7 7 9 8 7 7 9 12 13 15 17 17 17 16 17 19 20 19 17 17 18 20 20 21 21 21 22
29 30 30 28 24 22 21 20 19 17 16 15 14 13 12 11 10 9 6 5 5 4 3 6 10 12 13 16 16 17 17 18 18 18 16 17 17 17 17 19 17 18 19 19
28 26 23 22 21 20 19 20 19 17 16 15 14 14 12 11 10 8 6 5 5 4 1 3 9 12 13 16 16 17 19 17 19 20 19 19 18 18 17 16 16 16 16 16
28 28 25 22 20 19 19 17 16 16 15 14 14 13 12 11 10 9 8 7 5 4 1 2 9 11 13 14 16 17 17 18 18 19 19 17 18 17 16 15 14 13 13 12
24 23 21 20 18 18 17 17 16 16 15 14 13 11 10 11 10 9 10 8 6 5 3 3 8 10 11 11 12 13 15 14 15 17 17 17 17 16 15 14 13 12 11 10
22 21 20 19 18 17 17 17 17 17 16 15 14 12 10 10 7 6 6 8 8 7 4 4 6 9 9 11 12 13 14 15 13 15 15 16 16 15 14 13 12 11 11 9
24 23 22 21 19 18 18 17 16 16 15 15 14 12 10 10 10 7 5 6 6 5 5 3 5 8 8 11 11 12 12 12 13 13 14 14 13 14 14 13 11 10 10 9
23 21 21 20 20 19 17 16 15 14 12 8 7 7 6 5 7 6 2 2 3 6 7 4 8 9 9 11 10 10 10 10 10 10 11 11 12 11 12 12 11 11 9 9
21 21 20 19 18 17 16 15 13 11 8 4 1 2 5 3 0 1 1 8 8 10 7 6 6 9 10 8 8 6 8 9 8 9 10 9 10 11 10 8 9 10 10 9
22 21 19 18 16 15 13 12 9 6 1 1 5 5 6 5 0 -1 6 11 9 5 8 7 5 5 7 7 5 9 9 9 8 8 7 8 8 8 9 9 9 9 9 9
19 17 14 12 11 7 8 8 8 3 2 -1 -4 -1 1 7 3 3 4 9 11 4 7 8 8 3 3 5 7 9 7 8 8 8 7 7 7 7 7 7 7 8 8 8
16 15 12 10 10 10 4 5 3 4 1 1 3 4 6 11 12 12 11 10 9 9 8 10 6 4 2 9 10 10 9 7 8 8 7 7 7 7 7 6 7 7 7 6
13 13 12 10 8 8 7 5 4 4 3 5 5 4 7 10 12 12 12 10 6 8 11 11 9 4 -0 10 10 9 9 10 8 8 7 2 7 6 7 6 6 7 6 5
13 11 9 9 9 9 9 8 7 8 8 9 10 10 8 9 12 14 14 13 9 8 13 9 4 3 9 11 10 9 9 9 9 8 7 7 7 6 7 6 5 7 6 5
13 12 12 12 13 11 10 9 9 11 11 14 15 16 16 14 14 14 14 13 12 9 12 13 11 10 10 9 9 9 9 8 8 8 6 7 8 7 7 6 6 6 6 5
14 12 12 12 12 12 12 12 14 15 15 17 17 17 14 14 14 12 11 14 13 12 11 11 10 8 10 10 9 10 10 9 7 8 8 8 7 7 7 7 6 6 6 5